GFSSE_con_mlcape_000.txt.gz
CAPE
462 507 497 596 654 591 551 558 554 497 403 360 442 423 419 427 440 438 429 472 639 792 972 1080 1032 1192 1454 1384 1294 1144 1022 1168 1378 1118 780 593 539 258 245 562 824 433 487
551 515 538 633 695 698 599 563 553 519 511 549 587 557 517 488 402 308 236 200 275 464 660 749 1015 940 821 743 727 791 922 914 899 892 624 513 653 591 453 370 303 255 613
556 575 578 650 720 739 755 718 699 700 699 687 679 609 565 502 327 137 117 150 173 205 241 204 190 125 188 281 367 575 633 769 783 698 575 552 696 780 345 170 240 378 658
617 607 597 703 751 839 914 920 884 901 895 839 799 750 660 400 168 78 22 7 9 32 77 71 88 20 4 0 5 44 196 332 384 546 493 578 982 805 115 471 453 394 582
660 705 773 828 843 865 868 887 912 901 915 938 803 616 447 200 91 17 0 0 0 1 3 1 0 0 0 0 0 8 79 137 145 234 310 550 533 295 285 219 443 360 878
848 867 960 1046 986 919 843 798 827 909 942 748 443 450 241 113 26 0 0 0 0 0 0 0 0 0 0 0 0 0 0 0 107 221 366 632 512 516 304 171 535 540 898
990 1109 1294 1239 1174 1065 1052 1000 857 804 669 410 363 275 131 24 0 0 0 0 0 0 0 0 0 0 0 0 0 0 0 0 0 1 212 631 532 411 503 400 326 393 641
1115 1376 1489 1459 1376 1294 1155 865 565 341 203 178 206 142 19 0 0 0 0 0 0 0 0 0 0 0 0 0 0 0 0 0 0 0 280 556 519 589 436 217 603 334 310
1236 1225 1128 994 904 730 530 291 185 144 48 44 32 3 4 0 0 0 0 0 0 0 0 0 0 0 0 0 0 0 0 0 0 0 89 461 414 739 773 476 415 490 520
371 409 385 331 203 148 147 98 56 1 0 5 2 31 35 1 0 0 0 0 0 0 0 0 0 0 0 0 0 0 0 0 0 0 0 111 517 637 888 1009 921 641 672
107 34 119 45 0 0 5 0 0 0 0 20 56 178 174 96 5 2 18 0 1 0 0 0 0 0 0 0 0 0 0 0 0 0 0 7 149 190 201 212 379 551 503
280 187 189 89 0 0 0 0 0 20 103 162 229 266 277 243 224 80 101 100 57 26 12 15 7 6 0 0 0 0 0 0 0 0 0 0 10 52 0 0 37 452 396
340 361 326 250 24 0 17 0 34 156 233 300 415 355 348 393 187 275 102 23 8 3 14 34 32 12 0 0 0 0 0 0 0 0 0 0 0 0 0 0 0 97 383
373 273 211 237 165 53 57 49 84 260 408 494 465 263 121 105 2 0 0 0 0 0 0 7 11 0 0 0 0 0 0 0 0 0 0 0 0 0 0 0 0 0 17
286 205 105 33 77 35 5 100 159 246 453 567 481 298 27 30 0 0 0 0 0 0 0 0 2 0 0 0 0 0 0 0 0 0 0 0 0 0 0 0 0 0 0
315 298 282 21 142 94 91 42 55 52 52 301 234 51 6 0 21 21 8 1 0 1 0 0 0 0 0 0 0 0 0 0 0 0 0 0 0 0 0 0 0 0 0
324 464 413 583 470 118 217 224 60 0 1 33 10 0 0 2 21 1 0 0 0 0 0 0 0 0 0 0 0 0 0 0 0 0 0 0 0 0 0 0 0 0 0
389 605 592 30 184 156 148 131 50 0 0 0 0 0 0 0 0 0 0 0 0 0 0 0 0 0 0 0 0 0 0 0 0 0 0 0 0 0 0 0 0 0 0
437 680 454 37 395 99 88 5 0 0 0 0 0 0 0 0 0 0 0 0 0 0 0 0 0 0 0 0 0 0 0 0 0 0 0 0 0 0 0 0 0 0 0
442 279 273 65 84 4 0 0 0 0 0 0 0 0 0 0 0 0 0 0 0 0 0 0 0 0 0 0 0 0 0 0 0 0 0 0 0 0 0 0 0 0 0
19 14 1 47 13 0 0 0 0 0 0 0 0 0 0 0 0 0 0 0 0 0 0 0 0 0 0 0 0 0 0 0 0 0 0 0 0 0 0 0 0 0 0
0 0 0 0 0 0 0 0 0 0 0 0 0 0 0 0 0 0 0 0 0 0 0 0 0 0 0 0 0 0 0 0 0 0 0 0 0 0 0 0 0 0 0
0 0 0 0 0 0 0 0 0 0 0 0 0 0 0 0 0 0 0 0 0 0 0 0 0 0 0 0 0 0 0 0 0 0 0 0 0 0 0 0 0 0 0
0 0 0 0 0 0 0 0 0 0 0 0 0 0 0 0 0 0 0 0 0 0 0 0 0 0 0 0 0 0 0 0 0 0 0 0 0 0 0 0 0 0 0
0 0 0 0 0 0 0 0 0 0 0 0 0 0 0 0 0 0 0 0 0 0 0 0 0 0 0 0 0 0 0 0 3 0 0 0 0 0 0 0 0 0 0
0 0 0 0 0 0 0 0 0 0 0 0 0 0 0 0 0 0 0 0 0 0 0 0 0 0 0 0 0 0 0 4 3 2 1 0 0 0 0 0 0 0 0

GFSSE_con_mlcape_003.txt.gz
CAPE
408 577 578 590 566 533 470 425 367 328 340 365 386 397 371 339 318 305 307 347 485 582 615 654 556 473 451 460 571 766 776 885 1080 986 663 437 437 517 574 642 461 415 508
497 637 700 635 575 578 532 484 435 443 517 528 508 491 468 409 329 233 236 260 259 239 206 286 354 373 257 219 264 289 468 617 582 668 568 510 609 847 478 266 425 443 592
529 657 732 765 670 630 624 574 561 597 621 584 552 527 500 335 155 110 24 0 0 35 23 18 14 19 0 0 26 159 180 261 503 512 542 480 439 838 703 468 114 98 736
606 672 783 821 803 737 668 702 745 769 758 670 638 629 397 167 57 9 0 0 0 0 0 0 0 0 0 0 0 6 29 84 158 261 236 293 338 715 523 131 194 339 432
587 701 867 827 866 873 862 884 879 846 798 781 769 532 238 103 32 0 0 0 0 0 0 0 0 0 0 0 0 0 0 1 68 139 134 224 364 500 556 369 157 288 327
685 807 839 862 977 983 931 850 778 783 803 553 415 238 155 72 2 0 0 0 0 0 0 0 0 0 0 0 0 0 0 0 0 1 64 367 596 458 813 574 608 531 606
811 959 943 916 871 824 746 751 839 820 540 262 140 72 33 11 0 0 0 0 0 0 0 0 0 0 0 0 0 0 0 0 0 0 0 214 423 568 787 809 609 429 471
983 1244 1153 1018 857 808 888 796 707 560 331 150 45 26 2 0 0 0 0 0 0 0 0 0 0 0 0 0 0 0 0 0 0 0 0 304 462 679 842 548 467 265 295
1087 1137 1222 1235 1150 1034 808 567 400 185 41 23 17 11 7 0 0 0 0 0 0 0 0 0 0 0 0 0 0 0 0 0 0 0 0 0 291 444 550 584 459 270 344
1102 1063 1032 960 897 709 507 252 85 6 4 24 16 11 5 0 0 0 0 0 0 0 0 0 0 0 0 0 0 0 0 0 0 0 0 0 63 486 395 222 246 213 245
538 406 377 343 292 212 145 44 15 0 0 0 42 67 81 31 8 24 42 20 16 1 0 0 0 0 0 0 0 0 0 0 0 0 0 0 2 300 313 196 266 94 435
48 136 36 9 2 12 7 0 0 0 0 34 116 154 160 160 152 153 94 123 153 93 50 40 38 27 30 1 0 0 0 0 0 0 0 0 0 0 167 10 0 0 56
35 104 45 7 0 0 0 0 0 4 67 109 259 251 251 276 223 156 130 34 34 70 38 40 42 46 25 13 7 0 0 0 0 0 0 0 0 0 0 0 0 0 0
140 184 143 16 0 0 0 0 3 58 181 221 297 324 202 144 46 0 0 0 0 0 0 0 0 12 27 1 0 0 0 0 0 0 0 0 0 0 0 0 0 0 0
303 280 270 197 0 0 2 0 42 158 334 425 362 233 93 34 0 0 0 0 0 0 0 0 0 0 0 0 0 0 0 0 0 0 0 0 0 0 0 0 0 0 0
344 322 238 271 95 37 7 43 91 189 355 498 426 209 74 1 0 0 0 0 0 0 0 0 0 0 0 0 0 0 0 0 0 0 0 0 0 0 0 0 0 0 0
257 337 253 151 94 31 4 7 34 159 90 259 207 23 0 0 0 0 0 0 0 0 0 0 0 0 0 0 0 0 0 0 0 0 0 0 0 0 0 0 0 0 0
155 321 373 403 110 24 17 10 0 0 0 1 0 0 0 0 0 0 0 0 0 0 0 0 0 0 0 0 0 0 0 0 0 0 0 0 0 0 0 0 0 0 4
39 418 525 410 58 0 0 0 0 0 0 0 0 0 0 0 0 0 0 0 0 0 0 0 0 0 0 0 0 0 0 0 0 0 0 0 0 0 0 0 0 0 0
30 129 115 126 36 0 0 0 0 0 0 0 0 0 0 0 0 0 0 0 0 0 0 0 0 0 0 0 0 0 0 0 0 0 0 0 0 0 0 0 0 0 0
0 71 16 0 0 0 0 0 0 0 0 0 0 0 0 0 0 0 0 0 0 0 0 0 0 0 0 0 0 0 0 0 0 0 0 0 0 0 0 0 0 0 0
0 0 0 0 0 0 0 0 0 0 0 0 0 0 0 0 0 0 0 0 0 0 0 0 0 0 0 0 0 0 0 0 0 0 0 0 0 0 0 0 0 0 0
0 0 0 0 0 0 0 0 0 0 0 0 0 0 0 0 0 0 0 0 0 0 0 0 0 0 0 0 0 0 0 0 0 0 0 0 0 0 0 0 0 0 0
0 0 0 0 0 0 0 0 0 0 0 0 0 0 0 0 0 0 0 0 0 0 0 0 0 0 0 0 0 0 0 0 1 0 0 0 0 0 0 0 0 0 0
0 0 0 0 0 0 0 0 0 0 0 0 0 0 0 0 0 0 0 0 0 0 0 0 0 0 0 0 0 0 0 0 4 3 0 0 0 0 0 0 0 0 0
0 0 0 0 0 0 0 0 0 0 0 0 0 0 0 0 0 0 0 0 0 0 0 0 0 0 0 0 0 0 0 0 2 9 5 1 4 0 0 0 0 0 0

GFSSE_con_mlcape_006.txt.gz
CAPE
380 456 441 529 417 335 270 225 205 254 279 301 333 346 320 289 251 152 116 166 207 295 255 179 146 137 145 155 191 235 329 354 485 598 438 330 416 715 715 400 305 314 721
487 590 611 531 466 391 344 295 314 376 443 448 441 431 362 255 148 131 82 42 38 31 21 33 44 51 56 52 109 180 211 249 286 349 458 472 190 267 690 482 106 272 649
608 741 589 524 514 500 457 382 490 547 560 506 520 501 305 124 45 10 0 0 16 11 0 0 5 8 0 2 7 21 50 102 104 190 261 99 123 363 815 556 381 344 576
749 798 641 562 598 593 524 548 640 688 585 557 563 369 128 35 0 0 0 0 0 0 0 0 0 0 0 0 0 0 0 0 0 18 4 42 110 276 808 835 426 482 516
748 777 775 685 650 622 616 676 728 710 639 615 484 242 93 8 0 0 0 0 0 0 0 0 0 0 0 0 0 0 0 0 0 0 0 1 248 378 689 1000 721 329 475
740 712 732 772 709 760 759 796 777 682 634 572 337 146 76 2 0 0 0 0 0 0 0 0 0 0 0 0 0 0 0 0 0 0 0 0 126 413 618 725 866 342 402
674 726 803 863 855 835 829 778 673 686 464 247 126 83 14 0 0 0 0 0 0 0 0 0 0 0 0 0 0 0 0 0 0 0 0 0 123 432 781 770 527 276 174
821 900 907 888 836 772 684 682 737 602 250 155 93 19 0 0 0 0 0 0 0 0 0 0 0 0 0 0 0 0 0 0 0 0 0 0 3 396 456 358 536 213 110
948 984 868 820 729 692 728 743 635 468 207 88 28 4 0 0 0 0 0 0 0 0 0 0 0 0 0 0 0 0 0 0 0 0 0 0 0 136 507 266 47 148 96
844 899 916 903 880 865 749 574 385 212 80 76 28 43 0 0 0 0 0 0 0 0 0 0 0 0 0 0 0 0 0 0 0 0 0 0 0 0 307 242 216 0 5
850 884 903 929 904 741 499 321 204 106 45 9 25 84 71 0 0 0 26 30 5 10 2 0 4 1 0 0 0 0 0 0 0 0 0 0 0 0 0 120 12 0 0
426 664 721 670 595 422 265 98 22 3 0 17 123 136 103 60 66 94 59 57 55 49 83 79 64 60 45 0 0 0 0 0 0 0 0 0 0 0 0 7 0 0 0
7 310 276 201 147 47 12 0 0 1 15 71 150 161 158 193 152 82 24 5 0 2 0 0 0 0 0 0 0 0 0 0 0 0 0 0 0 0 0 0 0 0 0
12 129 99 11 0 0 0 0 0 12 28 112 271 271 201 160 66 0 0 0 0 0 0 0 0 0 0 0 0 0 0 0 0 0 0 0 0 0 0 0 0 0 0
50 137 85 4 0 0 0 0 0 44 158 250 330 321 143 63 2 0 0 0 0 0 0 0 0 0 0 0 0 0 0 0 0 0 0 0 0 0 0 0 0 0 0
157 137 165 59 0 0 0 0 0 20 172 400 373 232 108 4 5 0 0 0 0 0 0 0 0 0 0 0 0 0 0 0 0 0 0 0 0 0 0 0 0 0 0
203 256 217 104 22 0 0 0 0 17 50 87 93 13 0 0 0 0 0 0 0 0 0 0 0 0 0 0 0 0 0 0 0 0 0 0 0 0 0 0 0 0 0
26 185 204 124 72 11 48 27 28 0 0 0 0 0 0 0 0 0 0 0 0 0 0 0 0 0 0 0 0 0 0 0 0 0 0 0 0 0 0 0 0 0 0
1 229 285 164 61 0 0 0 0 0 0 0 0 0 0 0 0 0 0 0 0 0 0 0 0 0 0 0 0 0 0 0 0 0 0 0 0 0 0 0 0 0 0
9 184 91 0 0 0 0 0 0 0 0 0 0 0 0 0 0 0 0 0 0 0 0 0 0 0 0 0 0 0 0 0 0 0 0 0 0 0 0 0 0 0 0
0 1 0 0 0 0 0 0 0 0 0 0 0 0 0 0 0 0 0 0 0 0 0 0 0 0 0 0 0 0 0 0 0 0 0 0 0 0 0 0 0 0 0
0 0 0 0 0 0 0 0 0 0 0 0 0 0 0 0 0 0 0 0 0 0 0 0 0 0 0 0 0 0 0 0 0 0 0 0 0 0 0 0 0 0 0
0 0 0 0 0 0 0 0 0 0 0 0 0 0 0 0 0 0 0 0 0 0 0 0 0 0 0 0 0 0 0 0 0 0 0 0 0 0 0 0 0 0 0
0 0 0 0 0 0 0 0 0 0 0 0 0 0 0 0 0 0 0 0 0 0 0 0 0 0 0 0 0 0 0 0 1 1 0 0 0 0 0 0 0 0 0
0 0 0 0 0 0 0 0 0 0 0 0 0 0 0 0 0 0 0 0 0 0 0 0 0 0 0 0 0 0 0 0 0 4 0 0 0 0 0 0 0 0 0
0 0 0 0 0 0 0 0 0 0 0 0 0 0 0 0 0 0 0 0 0 0 0 0 0 0 0 0 0 0 0 0 0 0 0 0 0 0 0 0 0 0 0

GFSSE_con_mlcape_009.txt.gz
CAPE
414 597 342 207 199 224 190 182 196 196 209 224 238 267 265 226 158 144 112 61 35 34 23 22 40 61 106 105 124 156 178 194 217 296 355 500 444 582 767 355 151 208 560
606 701 406 318 269 259 204 219 251 299 319 317 322 302 219 106 69 0 0 5 16 0 0 0 9 1 1 1 2 13 15 20 35 95 133 123 124 303 593 450 261 260 402
804 855 571 365 359 326 296 312 397 417 381 370 368 256 81 11 0 0 0 17 5 0 0 0 0 0 0 0 0 0 0 0 0 0 9 109 173 335 697 627 484 522 602
892 902 620 422 468 427 410 496 527 526 485 486 406 164 39 0 0 0 0 0 0 0 0 0 0 0 0 0 0 0 0 0 0 0 0 2 248 449 843 885 685 577 429
960 897 657 516 534 526 540 623 681 609 553 535 261 101 48 0 0 0 0 0 0 0 0 0 0 0 0 0 0 0 0 0 0 0 0 35 425 439 628 346 326 349 368
821 728 626 576 622 612 652 793 702 596 592 414 206 132 40 0 0 0 0 0 0 0 0 0 0 0 0 0 0 0 0 0 0 0 0 0 305 731 654 546 297 192 167
731 840 748 653 606 716 861 863 695 613 564 328 160 152 14 0 0 0 0 0 0 0 0 0 0 0 0 0 0 0 0 0 0 0 0 0 1 303 420 374 72 74 73
878 956 1011 726 739 876 913 823 680 570 306 106 144 51 0 0 0 0 0 0 0 0 0 0 0 0 0 0 0 0 0 0 0 0 0 0 0 8 500 399 123 46 0
1059 1080 1124 1166 1013 900 776 700 693 455 205 103 59 10 0 0 0 0 0 0 0 0 0 0 0 0 0 0 0 0 0 0 0 0 0 0 0 0 152 268 266 39 0
1098 1155 1187 1178 1069 902 840 829 671 386 169 94 14 1 0 0 0 0 0 0 0 0 0 0 0 0 0 0 0 0 0 0 0 0 0 0 0 0 0 12 95 0 0
887 900 871 847 812 868 940 801 549 265 104 56 19 26 14 16 21 33 18 12 19 2 0 0 0 4 1 0 0 0 0 0 0 0 0 0 0 0 0 0 0 0 0
901 785 774 783 839 919 756 604 453 324 227 155 128 167 140 132 157 154 148 48 16 6 6 0 0 2 6 29 9 0 0 0 0 0 0 0 0 0 0 0 0 0 0
807 752 791 805 828 826 623 402 220 127 73 77 178 218 293 280 370 302 148 60 23 0 1 0 0 0 1 0 0 0 0 0 0 0 0 0 0 0 0 0 0 0 0
338 426 665 743 605 436 253 147 34 42 48 151 309 413 433 444 324 59 19 0 0 0 0 0 0 0 0 0 0 0 0 0 0 0 0 0 0 0 0 0 0 0 0
101 228 420 305 189 85 18 0 2 29 115 238 410 462 474 267 119 0 0 0 0 0 0 0 0 0 0 0 0 0 0 0 0 0 0 0 0 0 0 0 0 0 0
76 215 254 87 8 0 0 2 10 39 37 64 88 31 23 6 25 0 0 0 0 0 0 0 0 0 0 0 0 0 0 0 0 0 0 0 0 0 0 0 0 0 0
110 221 194 35 1 0 20 1 0 1 0 0 0 0 0 0 0 0 0 0 0 0 0 0 0 0 0 0 0 0 0 0 0 0 0 0 0 0 0 0 0 0 0
70 247 219 94 31 14 10 0 0 0 0 0 0 0 0 0 0 0 0 0 0 0 0 0 0 0 0 0 0 0 0 0 0 0 0 0 0 0 0 0 0 0 0
68 235 293 257 65 0 0 0 0 0 0 0 0 0 0 0 0 0 0 0 0 0 0 0 0 0 0 0 0 0 0 0 0 0 0 0 0 0 0 0 0 0 0
129 164 97 48 2 0 0 0 0 0 0 0 0 0 0 0 0 0 0 0 0 0 0 0 0 0 0 0 0 0 0 0 0 0 0 0 0 0 0 0 0 0 0
94 113 25 0 0 0 0 0 0 0 0 0 0 0 0 0 0 0 0 0 0 0 0 0 0 0 0 0 0 0 0 0 0 0 0 0 0 0 0 0 0 0 0
48 8 3 0 0 0 0 0 0 0 0 0 0 0 0 0 0 0 0 0 0 0 0 0 0 0 0 0 0 0 0 0 0 0 0 0 0 0 0 0 0 0 0
0 0 0 0 0 0 0 0 0 0 0 0 0 0 0 0 0 0 0 0 0 0 0 0 0 0 0 0 0 0 0 0 0 0 0 0 0 0 0 0 0 0 0
0 0 0 0 0 0 0 0 0 0 0 0 0 0 0 0 0 0 0 0 0 0 0 0 0 0 0 0 0 0 0 0 0 0 0 0 0 0 0 0 0 0 0
0 0 0 0 0 0 0 0 0 0 0 0 0 0 0 0 0 0 0 0 0 0 0 0 0 0 0 0 0 0 0 0 0 0 0 0 0 0 0 0 0 0 0
0 0 0 0 0 0 0 0 0 0 0 0 0 0 0 0 0 0 0 0 0 0 0 0 0 0 0 0 0 0 0 0 0 0 0 0 0 0 0 0 0 0 0

GFSSE_con_mlcape_012.txt.gz
CAPE
532 439 253 188 235 249 222 209 178 186 179 213 251 283 243 165 113 40 0 0 0 0 4 27 40 39 30 23 12 7 4 2 12 16 13 85 164 561 512 193 65 275 273
612 529 267 234 258 283 255 262 258 242 245 310 334 285 163 100 1 0 0 0 0 0 0 0 0 0 0 0 0 0 0 0 0 0 0 99 330 561 656 520 311 223 330
804 749 363 259 298 307 321 333 347 360 409 417 324 175 73 0 0 0 0 0 0 0 0 0 0 0 0 0 0 0 0 0 0 0 0 1 224 669 664 444 512 472 276
904 765 562 307 345 350 400 434 476 520 546 454 256 68 0 0 0 0 0 0 0 0 0 0 0 0 0 0 0 0 0 0 0 0 0 0 87 472 341 226 227 365 190
1050 789 779 378 353 360 423 493 560 575 537 381 158 29 0 0 0 0 0 0 0 0 0 0 0 0 0 0 0 0 0 0 0 0 0 0 42 549 522 100 101 185 125
888 1053 626 458 390 429 483 636 644 605 529 322 170 103 19 0 0 0 0 0 0 0 0 0 0 0 0 0 0 0 0 0 0 0 0 0 18 513 462 255 0 47 52
939 1162 713 528 461 515 664 814 691 601 500 298 216 113 21 0 0 0 0 0 0 0 0 0 0 0 0 0 0 0 0 0 0 0 0 0 0 160 485 311 63 0 0
939 1043 940 575 580 672 859 864 653 636 474 267 172 78 3 0 0 0 0 0 0 0 0 0 0 0 0 0 0 0 0 0 0 0 0 0 0 14 112 320 320 0 0
1245 1248 957 812 720 815 964 794 676 484 307 172 103 23 0 0 0 0 0 0 0 0 0 0 0 0 0 0 0 0 0 0 0 0 0 0 0 0 0 0 169 0 0
1258 1214 1120 963 1042 998 963 787 679 380 201 146 61 8 0 0 0 0 0 0 0 0 0 0 0 0 0 0 0 0 0 0 0 0 0 0 0 0 0 0 0 0 0
1112 1111 1141 1044 956 890 851 860 538 279 162 50 58 19 40 92 108 94 16 7 2 1 0 0 0 0 0 0 0 0 0 0 0 0 0 0 0 0 0 0 0 0 0
1101 1061 1088 1001 968 965 650 566 423 163 115 145 320 363 255 486 426 221 111 27 0 0 0 0 0 0 0 0 0 0 0 0 0 0 0 0 0 0 0 0 0 0 18
941 917 956 857 867 882 508 327 67 49 142 384 628 669 643 747 688 440 174 110 113 0 20 0 0 0 0 0 0 0 0 0 0 0 0 0 0 0 0 0 0 11 12
676 716 836 813 930 638 297 65 65 134 322 543 707 890 836 735 679 315 147 91 103 34 0 0 0 0 0 0 0 0 0 0 0 0 0 0 0 0 0 0 0 0 4
352 563 703 640 535 501 225 129 221 441 631 747 857 714 450 457 486 359 195 53 0 0 0 0 0 0 0 0 0 0 0 0 0 0 0 0 0 0 0 0 0 0 0
324 647 732 521 396 235 150 270 385 141 38 105 135 97 45 1 13 220 19 0 0 0 0 0 0 0 0 0 0 0 0 0 0 0 0 0 0 0 0 0 0 0 0
397 727 707 494 293 314 349 10 0 0 4 14 41 43 9 0 0 0 0 0 0 0 0 0 0 0 0 0 0 0 0 0 0 0 0 0 0 0 0 0 0 0 0
335 721 733 492 391 319 0 0 1 11 2 0 0 0 0 0 0 0 0 0 0 0 0 0 0 0 0 0 0 0 0 0 0 0 0 0 0 0 0 0 0 0 0
494 879 827 687 639 279 0 0 0 1 0 0 0 0 0 0 0 0 0 0 0 0 0 0 0 0 0 0 0 0 0 0 0 0 1 0 0 0 0 0 0 0 0
704 877 970 669 480 229 25 0 0 0 0 0 0 0 0 0 0 0 0 0 0 0 0 0 0 0 0 0 0 0 0 0 0 0 10 2 0 0 0 0 0 0 0
730 760 852 592 423 287 55 0 0 0 0 0 0 0 0 0 0 0 0 0 0 0 0 0 0 0 0 0 0 0 0 0 0 6 6 3 1 1 0 0 0 0 0
835 803 669 505 373 155 12 0 0 0 0 0 0 0 0 0 0 0 0 0 0 0 0 0 0 0 0 1 7 0 0 0 0 2 4 0 2 9 0 0 0 0 0
341 264 82 8 0 0 0 0 0 0 0 0 0 0 0 0 0 0 0 0 0 0 0 0 0 0 0 0 4 2 0 0 0 0 0 0 0 0 0 0 0 0 0
0 0 0 0 0 0 0 0 0 0 0 0 0 0 0 0 0 0 0 0 0 0 0 0 0 0 0 0 0 0 0 0 0 0 0 0 0 0 0 0 0 0 0
0 0 0 0 0 0 0 0 0 0 0 0 0 0 0 0 0 0 0 0 0 0 0 0 0 0 0 0 0 0 0 0 0 0 0 0 0 0 0 0 0 0 0
0 0 0 0 0 0 0 0 0 0 0 0 0 0 0 0 0 0 0 0 0 0 2 0 0 0 0 0 0 0 0 0 0 0 0 0 0 0 0 0 0 0 0

GFSSE_con_mlcape_015.txt.gz
CAPE
442 117 120 142 124 110 93 82 70 82 147 235 289 298 252 159 18 0 0 0 0 0 0 0 0 0 0 0 0 0 0 0 0 0 0 224 378 630 607 338 31 65 168
493 141 109 165 156 150 159 124 137 265 326 331 314 261 153 2 0 0 0 0 0 0 0 0 0 0 0 0 0 0 0 0 0 0 0 362 389 628 586 234 230 163 201
612 258 153 224 232 245 280 245 296 369 387 350 248 129 0 0 0 0 0 0 0 0 0 0 0 0 0 0 0 0 0 0 0 0 0 78 472 301 317 242 179 166 354
700 290 204 249 269 340 320 358 407 483 432 310 156 44 0 0 0 0 0 0 0 0 0 0 0 0 0 0 0 0 0 0 0 0 1 0 265 381 378 211 244 42 106
671 466 347 278 261 274 344 420 526 535 409 226 116 38 0 0 0 0 0 0 0 0 0 0 0 0 0 0 0 0 0 0 0 0 0 0 16 359 434 4 21 87 18
675 746 314 328 293 296 363 492 460 523 299 210 101 24 0 0 0 0 0 0 0 0 0 0 0 0 0 0 0 0 0 0 0 0 0 0 0 261 445 162 0 0 0
435 516 404 358 360 366 417 471 526 493 290 168 113 21 0 0 0 0 0 0 0 0 0 0 0 0 0 0 0 0 0 0 0 0 0 0 0 28 289 362 65 0 0
410 727 555 325 417 390 538 556 575 474 237 127 16 0 0 0 0 0 0 0 0 0 0 0 0 0 0 0 0 0 0 0 0 0 0 0 0 0 0 54 98 0 0
263 731 765 574 452 547 663 589 511 308 96 45 0 0 0 0 0 0 0 0 0 0 0 0 0 0 0 0 0 0 0 0 0 0 0 0 0 0 0 0 0 0 0
278 855 764 671 755 834 785 574 343 151 32 1 0 0 0 0 0 0 0 0 0 0 0 0 0 0 0 0 0 0 0 0 0 0 5 0 0 0 0 0 0 0 0
824 885 822 754 671 645 807 575 233 23 0 0 10 0 18 68 73 36 0 0 0 0 0 0 0 0 0 2 8 0 0 0 0 0 4 0 0 0 0 0 0 0 4
833 838 654 733 744 633 396 371 201 11 54 144 364 210 128 287 273 7 6 0 0 0 1 0 0 0 0 0 14 0 0 0 0 0 0 0 0 0 30 4 6 7 15
875 858 855 1067 1045 396 248 130 30 45 210 482 534 490 462 373 486 309 189 227 201 44 117 44 31 5 5 0 0 0 0 0 0 0 0 0 0 0 0 0 1 1 5
484 783 830 837 835 368 162 65 42 205 369 389 592 661 666 497 482 345 191 214 223 135 53 39 36 4 0 0 0 0 0 0 0 0 0 0 0 0 0 0 0 0 0
330 488 543 564 441 356 99 178 461 500 600 685 754 528 513 598 458 267 197 182 92 40 38 15 6 0 0 0 0 0 0 0 0 0 0 0 0 0 0 0 0 0 0
256 478 488 408 340 187 291 525 343 84 51 35 114 248 367 281 166 11 30 67 4 5 1 0 0 0 0 0 0 0 0 0 0 0 0 0 0 0 0 0 0 0 0
443 662 578 519 357 278 538 194 9 0 1 0 37 127 163 187 21 0 1 0 0 0 0 0 0 0 0 0 0 0 0 0 0 0 0 5 0 0 0 0 0 0 0
620 1046 864 508 481 581 324 23 0 1 0 0 0 0 0 0 0 0 0 0 0 0 0 0 0 0 0 0 0 0 0 0 0 0 0 11 17 2 0 0 0 0 0
537 1087 1082 807 768 490 191 34 146 40 0 0 0 0 0 0 0 0 0 0 0 0 0 0 0 0 0 0 0 0 0 0 0 0 0 0 18 11 4 0 0 0 0
653 1203 1294 1133 871 405 262 244 196 53 1 0 0 0 0 0 0 0 0 0 0 0 0 0 0 0 0 0 0 0 0 0 0 0 0 20 14 8 1 6 5 3 0
1059 1233 934 850 657 602 584 336 15 0 0 0 0 0 0 0 0 0 0 0 0 0 0 0 0 0 0 0 0 0 0 0 0 0 0 6 4 6 5 8 1 0 0
1158 1133 926 874 783 688 277 17 2 7 3 0 0 0 0 0 0 0 0 0 0 0 0 0 0 0 0 0 0 0 0 0 0 0 0 0 0 0 1 0 0 0 0
1051 999 911 695 507 156 6 0 11 1 0 0 0 0 0 0 0 0 0 0 0 0 0 0 0 0 0 0 0 0 0 0 0 0 0 0 1 0 0 0 0 0 0
619 403 170 24 1 0 0 0 0 8 6 0 0 0 0 0 0 0 0 0 0 0 0 0 0 0 0 0 0 0 0 2 2 0 0 0 0 0 0 0 0 0 0
0 0 0 0 0 0 0 0 0 0 0 0 0 0 0 0 0 0 0 0 0 0 0 0 2 2 5 7 5 1 0 0 0 0 0 0 0 1 0 0 0 0 0
0 0 0 0 0 0 0 0 0 0 0 0 0 0 0 0 0 0 0 0 0 0 0 3 6 10 15 4 0 0 3 1 1 3 3 2 4 0 0 0 4 4 5

GFSSE_con_mlcape_018.txt.gz
CAPE
59 83 77 140 261 236 118 36 52 90 147 245 253 171 30 0 0 0 0 0 0 0 0 0 0 0 0 0 0 0 0 0 0 0 106 405 365 470 84 31 14 32 60
79 72 77 99 119 100 61 65 124 210 314 309 174 78 20 0 0 0 0 0 0 0 0 0 0 0 0 0 0 0 0 0 0 0 57 136 337 214 89 35 108 182 231
63 99 120 118 138 114 147 192 273 367 350 191 95 21 0 0 0 0 0 0 0 0 0 0 0 0 0 0 0 0 0 0 0 0 9 203 265 183 167 184 48 113 331
74 83 187 176 172 196 310 373 453 455 268 88 56 0 0 0 0 0 0 0 0 0 0 0 0 0 0 0 0 0 0 0 0 0 0 70 165 318 41 32 95 27 157
117 145 291 208 191 253 266 341 452 349 183 90 15 0 0 0 0 0 0 0 0 0 0 0 0 0 0 0 0 0 0 0 0 1 0 0 0 379 161 16 0 0 22
379 284 226 183 162 269 310 427 355 235 174 77 0 0 0 0 0 0 0 0 0 0 0 0 0 0 0 0 0 0 0 0 0 0 0 0 2 129 225 193 0 0 0
193 115 169 177 258 316 394 439 287 230 147 16 0 0 0 0 0 0 0 0 0 0 0 0 0 0 0 0 0 0 0 0 0 0 0 0 0 0 0 60 0 0 0
68 87 129 134 322 388 448 390 285 173 72 0 0 0 0 0 0 0 0 0 0 0 0 0 0 0 0 0 0 0 0 0 0 1 0 0 0 0 0 0 0 0 0
132 192 0 245 433 490 455 323 182 61 11 0 0 0 0 0 0 0 0 0 0 0 0 0 0 0 0 0 0 0 0 0 0 5 6 0 0 0 0 0 0 0 0
2 39 205 203 601 529 379 160 40 20 7 0 0 0 0 0 0 0 2 0 0 0 0 0 0 0 0 0 0 0 0 0 0 0 0 0 0 0 2 0 0 0 4
25 179 467 680 630 535 352 128 18 0 0 0 0 0 0 14 29 26 0 0 0 0 0 0 0 0 0 1 0 0 0 0 0 0 0 0 0 12 99 73 16 28 106
107 392 503 540 620 588 286 165 23 1 23 147 82 37 280 178 30 0 22 0 0 9 0 1 0 3 1 0 3 0 0 0 0 0 0 0 0 4 42 59 29 0 5
495 588 691 654 656 377 262 228 31 154 307 390 403 505 360 371 364 248 313 139 131 115 110 39 36 68 14 5 0 0 0 0 0 0 0 0 0 0 0 0 0 0 0
810 722 703 607 637 172 190 155 240 386 626 645 745 625 741 712 593 342 214 135 107 50 34 15 3 0 0 0 0 0 0 0 0 0 0 0 0 0 0 0 0 0 0
589 600 644 803 376 131 167 527 541 470 327 382 391 344 294 302 230 87 6 0 16 0 0 0 0 0 0 0 0 0 0 0 0 0 0 0 0 0 0 0 0 0 0
428 410 475 475 342 326 616 451 202 15 0 8 100 170 235 372 214 0 10 0 0 0 0 0 0 0 0 0 0 0 0 0 0 0 0 0 0 0 0 0 0 0 0
392 454 432 380 292 439 561 259 11 0 0 0 0 4 20 61 3 0 0 0 0 0 0 0 0 0 0 0 0 0 0 0 0 0 0 0 4 4 0 0 0 0 0
442 460 500 394 301 632 319 24 7 6 0 0 0 0 0 0 0 0 0 0 0 0 0 0 0 0 0 0 0 0 0 0 0 0 0 0 2 3 0 0 0 0 0
861 729 544 540 577 434 162 47 123 53 12 0 0 0 0 0 0 0 0 0 0 0 0 0 0 0 0 0 0 0 0 0 0 0 0 0 0 4 3 0 0 0 0
1132 1141 783 767 680 358 204 88 305 131 4 0 0 0 0 0 0 0 0 0 0 0 0 0 0 0 0 0 0 0 0 0 0 0 0 0 23 2 0 0 0 0 0
1161 1249 914 743 463 420 308 318 201 1 0 0 0 0 0 0 0 0 0 0 0 0 0 0 0 0 0 0 0 0 0 0 0 0 0 0 0 0 0 0 0 0 0
1210 1317 925 719 468 568 628 196 0 0 0 0 0 0 0 0 0 0 0 0 0 0 0 0 0 0 0 0 0 0 0 0 0 0 0 0 0 0 0 0 0 0 0
1119 1087 671 594 572 786 221 0 1 0 0 0 0 0 0 0 0 0 0 0 0 0 0 0 0 0 0 0 0 0 0 0 0 0 0 0 0 0 0 0 0 0 0
845 794 886 779 524 15 0 0 0 0 0 0 0 0 0 0 0 0 0 0 0 0 0 0 0 0 0 0 0 0 0 0 0 0 0 0 0 0 0 0 0 0 0
949 767 262 0 0 0 0 0 0 0 0 0 0 0 0 0 0 0 0 0 0 0 0 0 0 0 0 0 0 0 0 0 0 0 0 0 0 0 0 1 0 0 0
80 0 0 0 0 0 0 0 0 0 0 0 0 0 0 0 0 0 0 0 0 0 0 0 0 0 0 0 0 0 0 0 0 0 0 0 0 0 0 0 0 0 0

GFSSE_con_mlcape_021.txt.gz
CAPE
12 392 607 629 446 216 76 61 99 143 155 120 23 0 0 0 0 0 0 0 0 0 0 0 0 0 0 0 0 0 0 0 0 2 83 49 191 108 74 41 51 127 164
52 424 526 538 373 145 84 114 192 192 139 51 4 0 0 0 0 0 0 0 0 0 0 0 0 0 0 0 0 0 0 0 0 0 88 47 84 100 144 24 105 284 301
46 282 357 312 173 137 170 273 235 187 69 1 0 0 0 0 0 0 0 0 0 0 0 0 0 0 0 0 0 0 0 0 0 0 6 67 68 6 43 40 45 142 159
15 58 167 153 121 152 264 334 262 152 43 0 0 0 0 0 0 0 0 0 0 0 0 0 0 0 0 0 0 0 0 0 0 17 4 28 65 91 39 0 0 5 88
101 142 165 112 83 244 452 377 201 103 30 3 0 0 0 0 4 0 0 0 0 0 0 0 0 0 0 0 0 0 0 0 0 0 0 0 54 88 75 4 0 0 0
215 167 68 77 98 337 398 256 139 69 37 13 0 0 0 0 2 0 0 0 0 0 0 0 0 0 0 0 0 0 0 0 0 0 0 0 0 0 14 3 0 0 0
159 122 53 74 169 257 324 193 92 47 21 1 0 0 0 0 0 0 0 0 0 0 0 0 0 0 0 0 0 0 0 0 0 0 0 0 0 0 0 0 0 0 0
17 17 67 173 59 348 240 121 53 24 1 0 0 0 0 0 0 0 0 0 0 0 0 0 0 0 0 0 0 0 0 0 0 0 0 0 0 0 0 2 0 0 0
0 0 107 106 189 290 128 48 29 8 0 0 0 0 0 0 0 0 0 0 0 0 0 0 0 0 0 0 0 0 0 0 0 0 0 0 0 0 0 0 4 48 70
1 0 30 184 171 242 102 21 4 0 0 0 0 0 0 0 0 0 0 0 0 0 0 0 0 0 0 0 0 0 0 0 0 0 0 0 68 99 41 92 88 123 157
0 0 0 101 211 164 33 2 0 0 0 0 0 0 0 0 0 0 0 0 0 0 0 0 0 0 0 0 0 0 0 0 0 0 0 0 54 81 0 73 71 29 28
0 15 45 212 259 75 12 0 0 7 0 0 0 6 2 18 0 0 0 0 0 0 0 0 14 8 0 0 0 0 0 0 0 0 0 0 0 0 0 0 0 0 0
77 173 213 257 230 57 6 0 2 19 76 147 193 173 176 206 96 92 26 21 26 14 4 3 0 0 0 0 0 0 0 0 0 0 0 0 0 0 0 0 0 0 0
214 278 405 469 261 126 72 37 22 222 255 399 275 281 241 182 42 0 0 0 0 0 0 0 0 0 0 0 0 0 0 0 0 0 0 0 0 0 0 0 0 0 0
352 432 505 553 150 131 134 291 313 347 344 174 109 18 14 50 63 0 0 0 0 0 0 0 0 0 0 0 0 0 0 0 0 0 0 0 0 0 0 0 0 0 0
419 327 521 244 103 208 230 156 108 6 1 0 0 0 4 11 0 0 0 0 0 0 0 0 0 0 0 0 0 0 0 0 0 0 0 0 0 0 1 0 0 0 0
123 255 516 64 255 187 86 12 0 0 0 0 0 0 0 0 0 0 0 0 0 0 0 0 0 0 0 0 0 0 0 0 0 0 0 0 0 0 0 0 0 0 0
134 213 296 188 362 213 60 0 0 0 0 0 0 0 0 0 0 0 0 0 0 0 0 0 0 0 0 0 0 0 0 0 0 0 0 0 0 0 0 0 0 0 0
221 287 245 219 386 172 29 0 0 0 0 0 0 0 0 0 0 0 0 0 0 0 0 0 0 0 0 0 0 0 0 0 0 0 0 0 0 0 0 4 0 0 0
299 295 240 302 310 165 30 4 38 0 0 0 0 0 0 0 0 0 0 0 0 0 0 0 0 0 0 0 0 0 0 0 0 0 0 0 0 0 0 0 0 0 0
427 318 341 303 294 209 13 8 118 0 0 0 0 0 0 0 0 0 0 0 0 0 0 0 0 0 0 0 0 0 0 0 0 0 0 0 0 0 0 0 0 0 0
670 464 462 460 386 258 1 156 76 0 0 0 0 0 0 0 0 0 0 0 0 0 0 0 0 0 0 0 0 0 0 0 0 0 0 0 0 0 0 0 0 0 0
841 644 525 466 432 299 241 60 0 0 0 0 0 0 0 0 0 0 0 0 0 0 0 0 0 0 0 0 0 0 0 0 0 0 0 0 0 0 0 0 0 0 0
849 570 589 500 300 394 280 0 0 0 0 0 0 0 0 0 0 0 0 0 0 0 0 0 0 0 0 0 0 0 0 0 0 0 0 0 0 0 0 0 0 0 0
779 608 302 330 309 185 0 0 0 0 0 0 0 0 0 0 0 0 0 0 0 0 0 0 0 0 0 0 0 0 0 0 0 0 0 0 0 0 0 0 0 0 0
618 474 262 21 0 0 0 0 0 0 0 0 0 0 0 0 0 0 0 0 0 0 0 0 0 0 0 0 0 0 0 0 0 0 0 0 0 0 0 0 0 0 0

GFSSE_con_mlcape_024.txt.gz
CAPE
570 689 535 416 257 86 103 151 135 70 22 1 2 0 0 0 0 0 0 0 0 0 0 0 0 0 0 0 0 0 0 0 0 0 27 78 85 70 42 87 132 121 267
562 684 551 393 198 98 142 163 125 58 13 3 6 1 0 0 0 0 0 0 0 0 0 0 0 0 0 0 0 0 0 0 0 8 47 25 0 2 3 27 102 84 155
648 692 495 319 104 169 220 206 112 28 13 1 1 0 0 0 0 0 0 0 0 0 0 0 0 0 0 0 0 0 0 0 0 8 22 0 0 3 0 0 0 69 123
587 575 398 226 175 270 312 208 68 37 14 3 0 0 0 0 0 0 0 0 3 0 0 0 0 0 0 0 0 0 0 0 0 16 0 0 0 0 0 0 0 0 34
461 405 320 167 265 436 341 194 65 36 8 1 0 0 0 3 4 8 2 9 8 0 0 0 0 0 0 0 0 0 0 0 0 0 0 0 0 0 0 0 0 0 0
248 260 130 157 316 396 244 74 45 25 18 4 0 14 22 23 24 11 5 7 0 0 0 0 0 0 0 0 0 0 0 0 0 0 0 0 0 0 0 0 0 0 0
187 127 55 150 264 255 148 97 77 47 11 2 0 17 12 7 4 0 0 0 0 0 0 0 0 0 0 0 0 0 0 0 0 0 0 0 0 0 0 0 0 0 0
127 86 100 129 83 79 127 90 71 10 0 0 0 0 0 0 0 0 0 0 0 0 0 0 0 0 0 0 0 0 0 0 0 0 0 0 6 0 0 0 3 70 77
7 44 4 5 14 74 104 56 1 0 0 0 0 0 0 0 0 0 0 0 0 0 0 0 0 0 0 0 0 0 0 0 0 0 0 0 58 49 61 91 95 123 129
2 3 11 57 96 37 25 0 0 0 0 0 0 0 0 0 0 0 0 0 0 0 0 0 0 0 0 0 0 0 0 0 0 0 0 7 68 43 78 78 82 2 5
0 5 5 29 111 56 0 0 0 0 0 0 0 0 0 0 0 0 0 0 0 0 0 0 0 0 0 0 0 0 0 0 0 0 0 8 0 10 36 0 0 0 0
0 0 2 51 87 21 0 1 0 0 0 0 0 0 0 0 0 0 0 0 0 0 5 0 0 0 0 0 0 0 0 0 0 0 0 0 0 8 0 0 0 0 0
0 0 0 97 108 1 0 0 0 0 0 0 0 0 19 13 5 0 0 0 3 0 0 0 0 0 0 0 0 0 0 0 0 0 0 0 0 8 7 0 0 0 0
5 0 21 190 16 0 0 0 0 3 94 175 164 144 79 11 0 0 0 0 0 0 0 0 0 0 0 0 0 0 0 0 0 0 0 0 0 1 23 10 0 0 0
49 81 172 254 49 0 0 2 21 206 138 83 69 50 28 0 0 0 0 0 0 0 0 0 0 0 0 0 0 0 0 0 0 0 0 0 0 3 22 29 5 0 0
227 200 249 162 73 11 24 20 77 44 3 0 0 0 0 0 0 0 0 0 0 0 0 0 0 0 0 0 0 0 0 0 0 0 0 0 0 5 12 4 0 0 0
372 431 446 235 185 117 30 19 3 0 0 0 0 0 0 0 0 0 0 0 0 0 0 0 0 0 0 0 0 0 0 0 0 0 0 0 0 0 0 0 0 0 0
378 510 482 282 108 34 11 0 0 0 0 0 0 0 0 0 0 0 0 0 0 0 0 0 0 0 0 0 0 0 0 0 0 0 0 0 0 0 0 0 0 0 0
399 481 190 227 84 13 0 0 0 0 0 0 0 0 0 0 0 0 0 0 0 0 0 0 0 0 0 0 0 0 0 0 0 0 0 0 0 0 0 0 0 0 0
228 452 187 241 103 2 0 0 0 0 0 0 0 0 0 0 0 0 0 0 0 0 0 0 0 0 0 0 0 0 0 0 0 0 0 0 0 0 0 0 0 0 0
115 251 246 222 132 41 13 2 0 0 0 0 0 0 0 0 0 0 0 0 0 0 0 0 0 0 0 0 0 0 0 0 0 0 0 0 0 0 0 0 0 0 0
228 278 273 198 142 46 29 19 2 0 0 0 0 0 0 0 0 0 0 0 0 0 0 0 0 0 0 0 0 0 0 0 0 0 0 0 0 0 0 0 0 0 0
353 359 253 232 207 184 78 24 0 0 0 0 0 0 0 0 0 0 0 0 0 0 0 0 0 0 0 0 0 0 0 0 0 0 0 0 0 0 0 0 0 0 0
450 388 344 272 276 241 8 14 5 0 0 0 0 0 0 0 0 0 0 0 0 0 0 0 0 0 0 0 0 0 0 0 0 0 0 0 0 0 0 0 0 0 0
451 377 381 306 279 253 0 5 0 0 0 0 0 0 0 0 0 0 0 0 0 0 0 0 0 0 0 0 0 0 0 0 0 0 0 0 0 0 0 0 0 0 0
613 588 433 461 277 123 31 0 0 0 0 0 0 0 0 0 0 0 0 0 0 0 0 0 0 0 0 0 0 0 0 0 0 0 0 0 0 0 0 0 0 0 0

GFSSE_con_mlcape_027.txt.gz
CAPE
547 573 386 215 60 39 51 33 5 1 0 0 0 0 0 0 0 0 0 0 0 0 0 0 0 0 0 0 0 0 0 0 12 30 24 1 0 0 12 67 0 58 122
653 649 450 238 96 82 85 42 14 1 0 0 0 0 0 0 0 0 0 0 0 0 0 0 0 0 0 0 0 0 0 0 59 0 0 0 0 0 0 0 1 34 91
730 716 488 213 90 110 104 60 22 12 0 0 0 0 0 0 0 0 0 0 0 0 0 0 0 0 0 0 0 0 0 0 29 0 0 0 0 0 0 0 0 0 56
776 646 357 177 151 205 151 79 2 13 9 1 0 0 0 0 0 0 0 0 0 0 0 0 0 0 0 0 0 0 0 0 0 0 0 0 0 0 0 0 0 0 0
530 481 348 319 281 243 67 10 20 26 9 1 1 10 19 1 4 0 0 0 0 0 0 0 0 0 0 0 0 0 0 0 0 0 0 0 0 0 0 0 0 0 0
525 450 338 294 286 168 49 11 0 13 7 10 45 55 45 21 5 0 0 4 0 0 0 0 0 0 0 0 0 0 0 0 0 0 0 0 0 0 0 0 0 0 0
357 343 264 233 291 148 8 0 1 13 17 35 74 75 80 59 30 23 7 0 0 0 0 0 0 0 0 0 0 0 0 0 0 0 0 0 0 0 0 0 19 42 19
280 194 204 163 115 22 4 4 18 22 27 63 57 68 62 24 3 0 0 0 0 0 0 0 0 0 0 0 0 0 0 0 0 0 0 0 0 0 0 16 1 1 1
18 18 122 54 40 61 26 18 20 18 8 24 11 3 0 0 0 0 0 0 0 0 0 0 0 0 0 0 0 0 0 0 0 0 0 0 41 0 57 37 12 1 2
2 0 1 4 46 87 59 6 0 0 0 2 0 0 0 0 0 0 0 0 0 0 0 0 0 0 0 0 0 0 0 0 0 0 0 4 0 13 20 0 0 0 0
0 0 10 11 58 32 2 3 0 0 0 4 0 0 0 0 0 0 0 0 0 0 0 0 0 0 0 0 0 0 0 0 0 0 0 0 0 0 0 0 0 0 0
3 0 17 24 47 30 43 19 0 1 0 0 0 0 0 0 0 0 0 0 0 0 0 0 0 0 0 0 0 0 0 0 0 0 0 0 0 5 1 0 0 0 0
0 0 45 111 102 63 15 0 0 0 0 0 0 0 0 0 0 0 0 0 0 0 0 0 0 0 0 0 0 0 0 0 0 0 0 0 13 19 17 10 0 0 0
0 0 0 46 123 38 0 0 0 0 0 0 0 7 5 0 0 0 0 0 0 0 0 0 0 0 0 0 0 0 0 0 0 0 0 0 0 0 39 27 17 0 0
0 0 0 127 205 3 0 0 0 19 134 110 50 51 0 0 0 0 0 0 0 0 0 0 0 0 0 0 0 0 0 0 0 0 0 0 0 1 17 51 28 0 0
0 4 41 178 246 1 0 0 47 130 83 56 53 15 0 0 0 0 0 0 0 0 0 0 0 0 0 0 0 0 0 0 0 0 0 0 0 0 25 43 9 0 0
19 109 144 308 231 0 0 0 107 30 1 1 0 0 0 0 0 0 0 0 0 0 0 0 0 0 0 0 0 0 0 0 0 0 0 0 0 0 1 0 0 0 1
271 264 310 337 136 0 0 23 47 0 0 0 0 0 0 0 0 0 0 0 0 0 0 0 0 0 0 0 0 0 0 0 0 0 0 0 0 0 0 0 2 2 1
362 322 290 254 102 20 0 12 1 0 0 0 0 0 0 0 0 0 0 0 0 0 0 0 0 0 0 0 0 0 0 0 0 0 0 0 0 0 0 0 0 0 0
367 353 344 285 209 30 0 0 0 0 0 0 0 0 0 0 0 0 0 0 0 0 0 0 0 0 0 0 0 0 0 0 0 0 0 0 0 0 0 0 0 0 0
336 343 413 199 54 9 0 0 0 0 0 0 0 0 0 0 0 0 0 0 0 0 0 0 0 0 0 0 0 0 0 0 0 0 0 0 0 0 0 0 0 0 0
285 377 337 119 25 9 0 0 0 0 0 0 0 0 0 0 0 0 0 0 0 0 0 0 0 0 0 0 0 0 0 0 0 0 0 0 0 0 0 0 0 0 0
164 335 345 176 93 7 4 0 0 0 0 0 0 0 0 0 0 0 0 0 0 0 0 0 0 0 0 0 0 0 0 0 0 0 0 0 0 0 0 0 0 0 0
148 165 309 197 153 50 15 6 0 0 0 0 0 0 0 0 0 0 0 0 0 0 0 0 0 0 0 0 0 0 0 0 0 0 0 0 0 0 0 0 0 0 0
235 50 159 208 151 122 4 6 0 0 0 0 0 0 0 0 0 0 0 0 0 0 0 0 0 0 0 0 0 0 0 0 0 0 0 0 0 0 0 0 0 0 0
263 172 122 238 152 113 68 0 0 0 0 0 0 0 0 0 0 0 0 0 0 0 0 0 0 0 0 0 0 0 0 0 0 0 0 0 0 0 0 0 0 0 0

GFSSE_con_mlcape_030.txt.gz
CAPE
616 642 397 248 150 90 37 37 28 19 3 0 0 0 0 0 0 0 0 0 0 0 0 0 0 0 0 0 0 0 0 0 0 0 0 0 0 0 1 1 0 25 96
734 672 403 293 127 34 14 8 7 5 0 0 0 0 0 0 0 0 0 0 0 0 0 0 0 11 0 0 0 0 0 0 0 0 0 0 0 0 0 0 0 27 28
785 681 423 259 109 49 19 1 0 0 0 0 0 0 0 0 0 0 0 0 0 0 0 0 2 10 8 0 0 0 0 0 0 0 0 0 0 0 0 0 0 0 1
757 652 423 191 137 88 66 39 0 0 0 0 0 1 0 0 0 0 0 0 0 0 0 0 0 0 0 0 0 0 0 0 0 0 0 0 0 0 0 0 0 0 0
697 534 338 311 322 163 28 6 3 0 0 3 7 7 5 0 0 2 1 3 5 0 0 0 0 0 0 0 0 0 0 0 0 0 0 0 0 0 0 0 0 0 0
728 496 423 210 265 95 30 8 31 0 8 17 42 37 38 37 33 3 0 11 17 4 0 0 0 0 0 0 0 0 0 0 0 0 0 0 0 0 0 0 0 0 0
676 573 324 173 171 79 79 27 25 10 31 86 98 91 91 82 48 10 0 0 0 0 0 0 0 0 0 0 0 0 0 0 0 0 0 0 0 1 3 2 2 4 4
323 403 265 76 71 81 198 49 50 58 114 120 144 138 114 65 17 0 0 0 0 0 0 0 0 0 0 0 0 0 0 0 0 0 0 0 0 2 4 1 1 2 4
4 123 47 77 39 77 97 93 45 73 105 153 165 112 45 7 0 0 0 0 0 0 0 0 0 0 0 0 0 0 0 0 0 0 0 0 0 0 0 0 0 2 0
2 3 0 3 3 19 95 92 57 71 79 101 45 6 0 0 0 0 0 0 0 0 0 0 0 0 0 0 0 0 0 0 0 0 0 0 16 2 0 0 0 0 0
1 1 5 0 19 125 84 59 26 87 36 4 0 1 1 0 0 0 0 0 0 0 0 0 0 0 0 0 0 0 0 0 0 0 0 9 20 27 4 0 0 0 0
0 0 5 0 12 24 90 4 0 14 7 0 0 0 0 0 0 0 0 0 0 0 0 0 0 0 0 0 0 0 0 0 0 0 0 9 13 30 26 5 0 0 0
0 0 0 0 3 0 14 0 0 1 0 0 0 0 0 0 0 0 0 0 0 0 0 0 0 0 0 0 0 0 0 0 0 0 0 0 15 33 32 28 15 4 0
1 0 0 3 12 69 37 0 0 0 0 0 0 0 0 0 0 0 0 0 0 0 0 0 0 0 0 0 0 0 0 0 0 0 0 0 0 21 40 42 27 5 0
0 0 0 16 87 45 0 0 0 0 0 0 0 1 0 0 0 0 0 0 0 0 0 0 0 0 0 0 0 0 0 0 0 0 0 0 0 2 20 66 21 6 3
0 0 0 42 241 64 0 0 0 0 1 0 1 6 0 0 0 0 0 0 0 0 0 0 0 0 0 0 0 0 0 0 0 0 0 0 0 1 18 42 17 5 8
0 0 0 70 270 60 0 0 0 59 38 52 39 0 0 0 0 0 0 0 0 0 0 0 0 0 0 0 0 0 0 0 0 0 0 0 0 0 0 0 0 0 10
0 0 15 170 221 61 0 0 13 8 13 9 6 0 0 0 0 0 0 0 0 0 0 0 0 0 0 0 0 0 0 0 0 0 0 0 0 0 0 0 0 0 0
9 82 176 224 253 61 0 0 10 0 0 0 0 0 0 0 0 0 0 0 0 0 0 0 0 0 0 0 0 0 0 0 0 0 0 0 0 0 0 0 0 0 0
108 227 269 255 218 33 0 0 0 0 0 0 0 0 0 0 0 0 0 0 0 0 0 0 0 0 0 0 0 0 0 0 0 0 0 0 0 0 0 0 0 0 0
241 365 331 243 153 36 4 7 0 0 0 0 0 0 0 0 0 0 0 0 0 0 0 0 0 0 0 0 0 0 0 0 0 0 0 0 0 0 0 0 0 0 0
253 309 275 250 145 75 51 6 0 0 0 0 0 0 0 0 0 0 0 0 0 0 0 0 0 0 0 0 0 0 0 0 0 0 0 0 0 0 0 0 0 0 0
247 267 221 192 149 61 0 0 0 0 0 0 0 0 0 0 0 0 0 0 0 0 0 0 0 0 0 0 0 0 0 0 0 0 0 0 0 0 0 0 0 0 0
278 248 242 240 166 7 0 0 0 0 0 0 0 0 0 0 0 0 0 0 0 0 0 0 0 0 0 0 0 0 0 0 0 0 0 0 0 0 0 0 0 0 0
237 245 216 202 136 4 0 0 0 0 0 0 0 0 0 0 0 0 0 0 0 0 0 0 0 0 0 0 0 0 0 0 0 0 0 0 0 0 0 0 0 0 0
210 167 105 110 162 36 0 0 0 0 0 0 0 0 0 0 0 0 0 0 0 0 0 0 0 0 0 0 0 0 0 0 0 0 0 0 0 0 0 0 0 0 0

GFSSE_con_mlcape_033.txt.gz
CAPE
542 359 328 183 109 125 154 131 57 26 3 0 0 0 0 0 0 0 0 0 0 0 0 2 9 0 0 118 13 0 0 0 0 0 0 0 0 0 0 0 2 33 99
655 437 478 197 64 29 29 26 11 0 0 0 0 0 0 0 0 0 0 0 0 0 26 82 34 0 0 40 0 0 0 0 0 0 0 0 0 0 0 0 0 7 37
730 493 466 359 141 60 36 10 0 1 7 1 2 4 0 0 0 0 0 0 0 24 117 151 108 23 1 32 0 0 0 0 0 0 0 0 0 0 0 0 0 0 0
749 528 345 358 247 196 112 52 80 65 29 8 1 5 3 11 16 5 0 0 0 0 18 90 160 80 68 64 0 0 0 0 0 0 0 0 0 0 0 0 0 0 0
787 612 399 376 308 216 125 112 75 66 29 11 10 12 14 36 43 31 0 0 0 0 0 0 0 6 1 0 0 0 0 0 0 0 0 0 0 5 5 2 0 0 0
884 669 451 335 286 152 61 79 68 40 29 31 40 38 59 62 64 54 36 26 0 0 0 0 0 0 0 0 0 0 0 0 0 0 0 0 0 3 4 7 8 11 14
767 702 509 261 243 192 243 114 63 17 39 64 80 92 76 64 77 79 82 68 6 0 0 0 0 0 0 0 0 0 0 0 0 0 0 0 2 2 1 2 6 10 11
654 427 417 311 114 39 165 70 68 32 89 102 120 116 85 53 39 22 13 0 0 0 0 0 0 0 0 0 0 0 0 0 0 0 0 0 0 0 0 0 0 1 3
200 301 333 94 37 1 78 75 92 130 166 151 145 118 56 14 4 0 0 0 0 0 0 0 0 0 0 0 0 0 0 0 0 0 0 0 0 0 0 0 0 0 0
1 2 0 0 1 5 22 216 176 143 187 177 116 64 3 1 0 0 0 0 0 0 0 0 0 0 0 0 0 0 0 0 0 0 1 3 25 12 0 0 0 0 1
4 2 4 0 0 32 119 150 246 175 172 118 55 12 6 9 0 0 0 0 0 0 0 0 0 0 0 0 0 0 0 0 0 0 0 9 21 17 8 2 0 0 0
5 3 1 2 15 14 109 90 158 195 85 28 23 7 5 1 0 0 0 0 0 0 0 0 0 0 0 0 0 0 0 0 0 0 0 0 2 29 14 9 9 4 0
3 7 3 0 0 0 43 18 20 7 11 10 6 1 0 0 0 0 0 0 0 0 0 0 0 0 0 0 0 0 0 0 0 0 0 0 7 23 31 19 7 0 0
0 0 0 0 0 18 27 8 5 9 1 0 0 0 0 0 0 0 0 0 0 0 0 0 0 0 0 0 0 0 0 0 0 0 0 0 0 6 37 33 7 6 0
4 5 5 1 8 48 39 3 0 0 0 0 0 17 8 6 0 0 0 0 0 0 0 0 0 0 0 0 0 0 0 0 0 0 0 0 0 0 3 56 8 8 1
5 0 0 0 29 112 0 0 0 0 0 0 0 15 1 2 0 0 0 0 0 0 0 0 0 0 0 0 0 0 0 0 0 0 0 0 0 0 8 56 34 20 2
0 0 0 2 193 122 0 0 0 0 0 0 0 0 0 0 0 0 0 0 0 0 0 0 0 0 0 0 0 0 0 0 0 0 0 0 0 0 0 10 0 0 10
0 0 0 44 173 205 0 0 0 28 36 33 18 0 0 0 0 0 0 0 0 0 0 0 0 0 0 0 0 0 0 0 0 0 0 0 0 0 0 0 0 0 0
0 0 0 35 247 261 2 0 7 42 32 34 4 0 0 0 0 0 0 0 0 0 0 0 0 0 0 0 0 0 0 0 0 0 0 0 0 0 0 0 0 0 0
0 0 33 132 267 265 26 0 17 12 0 0 0 0 0 0 0 0 0 0 0 0 0 0 0 0 0 0 0 0 0 0 0 0 0 0 0 0 0 0 0 0 0
7 24 118 187 212 198 49 3 42 39 0 0 0 0 0 0 0 0 0 0 0 0 0 0 0 0 0 0 0 0 0 0 0 0 0 0 0 0 0 0 0 0 0
83 86 186 266 247 210 87 19 11 0 0 0 0 0 0 0 0 0 0 0 0 0 0 0 0 0 0 0 0 0 0 0 0 0 0 0 0 0 0 0 0 0 0
141 204 267 370 266 184 66 4 0 0 0 0 0 0 0 0 0 0 0 0 0 0 0 0 0 0 0 0 0 0 0 0 0 0 0 0 0 0 0 0 0 0 0
119 229 343 382 313 231 55 33 4 5 0 0 0 0 0 0 0 0 0 0 0 0 0 0 0 0 0 0 0 0 0 0 0 0 0 0 0 0 0 0 0 0 0
249 210 262 316 236 168 24 7 2 0 0 0 0 0 0 0 0 0 0 0 0 0 0 0 0 0 0 0 0 0 0 0 0 0 0 0 0 0 0 0 0 0 0
416 321 280 258 257 94 33 16 0 0 0 0 0 0 0 0 0 0 0 0 0 0 0 0 0 0 0 0 0 0 0 0 0 0 0 0 0 0 0 0 0 0 0

GFSSE_con_mlcape_036.txt.gz
CAPE
682 299 610 757 853 819 731 558 429 254 78 10 0 0 0 0 0 0 0 0 0 0 0 0 105 241 0 0 0 0 0 0 0 0 0 0 0 0 0 1 15 38 99
656 237 617 713 760 737 613 462 271 77 22 0 0 1 0 0 0 0 0 0 0 40 78 46 69 112 0 0 0 0 0 0 0 0 0 0 0 0 0 0 0 8 15
725 237 406 656 674 615 427 247 90 52 0 0 0 0 0 1 8 0 8 21 139 184 163 114 93 82 0 0 0 0 0 0 0 0 0 0 0 0 0 0 0 0 1
857 371 94 457 450 358 178 73 66 41 34 34 13 4 32 48 34 18 17 137 257 287 241 147 177 86 0 0 0 0 0 0 0 0 0 0 0 0 0 0 0 0 0
934 537 270 464 303 149 40 51 70 58 57 52 38 69 92 67 63 29 29 48 107 180 262 240 224 44 0 0 0 0 0 0 0 1 1 7 4 2 3 1 6 0 0
911 708 563 377 176 88 79 77 79 52 86 57 120 119 132 115 84 56 64 71 6 37 43 99 41 0 0 0 0 0 0 0 0 0 4 3 4 5 6 9 18 7 11
914 797 473 330 316 254 233 165 87 52 72 95 153 141 162 165 156 121 97 70 0 0 0 0 0 0 0 0 0 0 0 0 0 0 1 1 0 2 1 2 3 8 14
862 649 532 227 375 329 279 143 61 71 91 112 162 165 178 207 174 135 54 9 0 0 0 0 0 0 0 0 0 0 0 0 0 0 1 2 0 0 0 0 2 3 8
683 463 307 109 66 93 65 116 87 122 136 178 191 202 156 106 66 26 0 0 0 0 0 0 0 0 0 0 0 0 0 0 0 0 0 2 0 0 0 0 0 1 4
258 178 2 0 0 0 58 193 195 180 231 226 160 116 60 29 4 0 0 0 6 0 0 0 0 0 0 0 0 0 0 0 0 0 3 1 0 0 0 0 0 0 0
3 1 3 0 0 0 0 180 238 223 323 198 90 53 2 0 0 0 0 0 0 0 0 0 0 0 0 0 0 0 0 0 0 0 2 0 15 13 0 0 0 0 0
2 3 5 1 0 0 5 72 265 256 185 136 78 21 26 45 11 4 3 0 0 0 0 0 0 0 0 0 0 0 0 0 0 0 0 0 15 24 14 5 10 6 0
3 2 7 0 20 0 0 0 229 205 192 201 129 81 84 75 38 54 0 0 0 0 0 0 0 0 0 0 0 0 0 0 0 0 0 0 2 46 31 13 8 10 1
4 3 1 5 5 7 24 127 122 106 79 39 28 79 73 50 104 25 0 0 0 0 0 0 0 0 0 0 0 0 0 0 0 0 0 0 0 15 77 29 10 11 1
0 1 6 12 22 40 27 15 17 3 24 36 33 9 0 10 121 29 0 0 0 0 0 0 0 0 0 0 0 0 0 0 0 0 0 0 0 0 27 69 30 4 2
0 0 0 0 3 3 20 19 8 57 33 26 61 88 162 100 52 17 0 0 0 0 0 0 0 0 0 0 0 0 0 0 0 0 0 0 0 0 7 62 53 26 4
9 7 3 5 36 23 38 96 33 25 9 16 212 335 270 157 60 1 0 0 0 0 0 0 0 0 0 0 0 0 0 0 0 0 0 0 0 0 0 1 1 0 1
15 9 7 13 61 163 183 79 1 27 8 121 271 308 215 77 8 0 0 0 0 0 0 0 0 0 0 0 0 0 0 0 0 0 0 0 0 0 0 0 0 0 0
0 1 0 7 152 310 347 39 9 88 214 366 358 263 37 2 0 0 0 0 0 0 0 0 0 0 0 0 0 0 0 0 0 0 0 0 0 0 0 0 0 0 0
0 0 0 94 264 462 336 65 1 242 428 526 471 287 69 0 0 0 0 0 0 0 0 0 0 0 0 0 0 0 0 0 0 0 0 0 0 0 0 0 0 0 0
0 30 75 132 346 526 326 20 28 160 352 380 415 233 47 0 0 0 0 0 0 0 0 0 0 0 0 0 0 0 0 0 0 0 0 0 0 0 0 0 0 0 0
55 105 162 279 460 539 356 58 180 341 358 272 89 1 0 0 0 0 0 0 0 0 0 0 0 0 0 0 0 0 0 0 0 0 0 0 0 0 0 0 0 0 0
113 154 199 358 563 701 471 178 169 334 142 17 0 0 0 0 0 0 0 0 0 0 0 0 0 0 0 0 0 0 0 0 0 0 0 0 0 0 0 0 0 0 0
327 258 288 334 566 711 592 254 83 78 200 24 0 0 0 0 0 0 0 0 0 0 0 0 0 0 0 0 0 0 0 0 0 0 0 0 0 0 0 0 0 0 0
459 369 468 495 597 769 726 461 261 217 332 121 0 0 0 0 0 0 0 0 0 0 0 0 0 0 0 0 0 0 0 0 0 0 0 0 0 0 0 0 0 0 0
727 552 553 593 665 788 645 310 193 177 285 22 0 0 0 0 0 0 0 0 0 0 0 0 0 0 0 0 0 0 0 0 0 0 0 0 0 0 0 0 0 1 1

GFSSE_con_mlcape_039.txt.gz
CAPE
765 637 1034 1250 1066 893 779 619 509 367 123 2 0 0 0 0 0 0 0 64 5 103 277 241 0 0 0 0 0 0 0 0 0 0 0 0 0 0 0 0 18 32 134
854 677 1087 1272 1155 1000 827 650 449 215 25 0 0 0 6 0 0 0 0 0 0 41 255 131 0 0 0 0 0 0 0 0 0 0 0 0 0 0 0 0 0 6 17
836 723 1149 1246 1171 1019 836 547 358 151 0 0 0 4 0 0 1 51 73 122 168 148 162 43 0 0 0 0 0 0 0 0 0 1 2 0 0 3 0 0 1 0 0
769 698 1215 1110 1053 884 678 458 223 34 0 0 6 19 32 36 70 81 196 314 323 254 198 65 0 0 0 0 0 0 0 0 0 16 8 1 0 5 14 3 0 4 0
448 524 1041 929 915 763 536 316 109 29 39 12 31 87 94 102 109 199 327 483 438 325 253 121 0 0 0 0 0 0 0 0 2 0 0 0 0 2 0 1 7 5 1
110 264 697 742 729 585 398 209 68 39 19 42 105 157 151 153 143 134 174 303 433 365 328 166 0 0 0 0 0 0 0 0 3 15 3 0 0 1 1 6 8 24 25
5 359 506 591 452 421 268 129 50 61 65 167 172 217 197 162 199 172 83 116 142 180 188 6 0 0 0 0 0 0 0 0 0 15 4 0 0 0 0 0 2 4 3
763 648 367 409 403 274 170 92 61 66 119 235 241 280 249 253 200 130 37 20 23 0 0 0 0 0 0 0 0 0 0 0 0 10 10 0 0 0 0 0 0 3 2
535 350 227 69 181 234 130 60 104 171 259 270 265 334 180 130 89 43 0 0 0 0 0 0 0 0 0 0 0 0 0 0 4 4 5 0 0 0 0 0 2 3 2
359 40 94 63 114 96 81 101 128 205 294 283 254 197 113 75 34 6 0 0 0 0 0 0 0 0 0 0 0 0 0 0 0 8 0 0 0 0 0 0 0 0 0
87 53 0 0 0 0 15 127 206 300 282 207 146 119 33 16 20 59 46 21 0 0 0 0 0 0 0 0 0 0 0 0 0 0 0 0 11 9 1 0 1 1 1
2 2 2 0 0 0 9 36 132 255 209 143 88 33 51 55 121 102 23 0 0 0 0 0 0 0 0 0 0 0 0 0 0 0 0 0 27 17 4 1 5 8 6
3 0 2 0 0 0 0 39 84 173 220 180 93 202 192 147 140 92 18 3 0 0 0 0 0 0 0 0 0 0 0 0 0 0 0 0 1 38 18 8 2 5 1
3 2 1 5 0 0 0 17 53 185 240 227 235 217 216 151 245 151 45 4 0 0 0 0 0 0 0 0 0 0 0 0 0 0 0 0 0 4 53 10 13 6 0
2 2 4 6 0 0 0 1 6 22 167 199 222 214 201 165 238 158 90 37 1 0 0 0 0 0 0 0 0 0 0 0 0 0 0 0 0 0 28 47 32 8 4
1 3 5 4 6 19 9 0 30 112 103 72 92 98 96 119 335 191 133 36 0 0 0 0 0 0 0 0 0 0 0 0 0 0 0 0 0 0 0 50 51 15 3
0 0 0 0 26 13 5 7 34 67 43 55 27 190 167 179 342 226 133 41 0 0 0 0 0 0 0 0 0 0 0 0 0 0 0 0 0 0 0 2 37 5 7
0 0 0 0 0 7 35 122 82 69 68 41 101 340 344 362 343 230 57 21 0 0 0 0 0 0 0 0 0 0 0 0 0 0 0 0 0 0 0 0 0 0 0
1 7 0 11 10 48 85 119 29 17 52 11 120 380 419 344 276 257 77 29 0 0 0 0 0 0 0 0 0 0 0 0 0 0 0 0 0 0 1 0 0 0 0
3 0 0 30 31 115 78 93 32 23 94 93 442 444 419 275 154 142 66 8 0 0 0 0 0 0 0 0 0 0 0 0 0 0 0 0 0 0 0 0 0 0 0
4 0 6 9 87 135 112 37 11 0 48 296 448 448 397 273 119 116 67 0 0 0 0 0 0 0 0 0 0 0 0 0 0 0 0 0 0 0 0 0 0 0 0
1 1 1 1 52 200 254 36 0 4 80 197 400 494 494 388 112 88 16 0 0 0 0 0 0 0 0 0 0 0 0 0 0 0 0 0 0 0 0 0 0 0 0
40 73 99 144 198 388 360 154 33 136 259 317 311 346 317 272 49 0 0 0 0 0 0 0 0 0 0 0 0 0 0 0 0 0 0 0 0 0 0 0 0 0 0
100 142 202 305 356 556 604 428 65 139 357 385 425 249 149 30 0 0 0 0 0 0 0 0 0 0 0 0 0 0 0 0 0 0 0 0 0 0 0 0 0 0 0
279 252 309 352 381 581 695 674 351 222 311 418 362 191 70 0 0 0 0 0 0 0 0 0 0 0 0 0 0 0 0 0 0 0 0 0 0 0 0 0 0 0 0
433 469 450 362 350 427 872 714 553 448 338 387 439 109 4 0 0 0 0 0 0 0 0 0 0 0 0 0 0 0 0 0 0 0 0 0 0 0 0 0 0 0 0

GFSSE_con_mlcape_042.txt.gz
CAPE
643 983 1196 1114 893 757 603 501 370 176 29 0 0 0 0 0 0 61 122 159 320 0 0 0 0 0 0 0 0 0 0 0 0 0 0 0 0 0 0 0 1 36 88
664 1345 1300 1240 1027 875 688 549 352 185 10 0 0 0 0 0 0 98 61 117 249 95 0 0 0 0 0 0 0 0 0 0 0 0 0 0 0 0 0 0 0 0 5
721 1492 1610 1340 1094 997 769 577 326 104 5 0 0 0 0 2 42 59 89 116 283 0 0 0 0 0 0 0 0 0 0 1 16 18 0 0 12 5 6 12 1 1 2
1077 1670 1655 1418 1203 1062 891 593 328 124 14 0 0 0 6 62 87 131 175 198 215 32 0 0 0 0 0 0 0 0 0 2 20 8 0 0 5 25 15 6 8 10 7
926 1507 1415 1214 997 938 754 480 257 139 32 0 0 18 91 125 231 283 329 337 309 101 0 0 0 0 0 0 0 0 0 0 0 0 0 0 0 3 0 14 19 22 17
448 1164 957 930 991 764 624 410 278 113 30 0 62 180 200 294 389 508 513 459 399 173 0 0 0 0 0 0 0 0 0 1 0 0 0 0 0 1 4 8 9 12 17
739 903 969 792 767 628 501 386 229 95 97 143 267 250 220 215 251 419 528 487 444 209 15 0 0 0 0 0 0 0 0 0 0 0 0 0 0 0 0 2 3 2 10
450 562 641 614 668 459 306 220 123 203 184 324 318 243 260 163 141 198 233 299 285 59 0 0 0 0 0 0 0 0 0 0 13 0 0 0 0 0 0 1 3 5 7
95 301 190 278 418 235 190 235 200 242 305 385 465 355 162 121 72 65 79 104 81 0 0 0 0 0 0 0 0 0 0 0 11 0 0 0 0 1 2 1 2 1 4
152 21 20 7 62 117 183 222 297 237 272 350 234 162 105 76 17 0 3 29 0 0 0 0 0 0 0 0 0 0 0 0 0 0 0 0 0 1 2 1 1 3 4
125 5 3 2 3 23 122 215 272 252 239 202 136 99 36 13 8 60 8 0 0 0 0 0 0 0 0 0 0 0 0 0 0 0 0 0 0 4 5 2 2 5 6
71 50 25 45 19 50 135 83 195 176 157 178 93 44 45 54 143 112 40 0 0 0 0 0 0 0 0 0 0 0 0 0 0 0 0 0 0 10 10 7 4 3 8
2 2 2 0 0 1 18 41 12 97 83 80 62 164 106 139 116 53 64 11 0 0 0 0 0 0 0 0 0 0 0 0 0 0 0 0 1 7 2 2 9 7 8
2 2 3 0 0 0 1 17 58 64 128 92 180 169 143 182 81 37 63 40 4 0 0 0 0 0 0 0 0 0 0 0 0 0 0 0 0 6 18 8 8 7 10
3 2 2 0 0 0 0 3 28 25 89 146 187 217 206 244 201 113 77 50 0 0 0 0 0 0 0 0 0 0 0 0 0 0 0 0 0 0 30 24 11 5 10
2 2 0 0 0 0 0 0 0 13 34 120 85 59 96 202 284 205 227 108 60 0 0 0 0 0 0 0 0 0 0 0 0 0 0 0 0 0 0 47 45 10 13
1 0 0 0 0 0 0 0 0 3 27 11 4 89 181 157 333 350 161 94 60 48 5 0 0 0 0 0 0 0 0 0 0 0 0 0 0 0 0 50 42 15 8
1 1 2 3 0 0 9 0 0 0 4 5 4 169 91 200 333 274 252 130 70 5 0 0 0 0 0 0 0 0 0 0 0 0 0 0 0 0 0 0 0 0 0
0 0 2 0 0 0 0 0 0 4 130 78 18 80 344 236 330 311 244 115 34 0 0 0 0 0 0 0 0 0 0 0 0 0 0 0 0 0 0 0 0 0 0
0 0 0 0 0 0 0 0 15 103 64 26 11 228 218 372 421 360 254 86 9 0 0 0 0 0 0 0 0 0 0 0 0 0 0 0 0 0 0 0 0 0 0
0 0 0 0 0 0 2 38 53 7 33 41 179 299 400 382 364 254 208 38 2 0 0 0 0 0 0 0 0 0 0 0 0 0 0 0 0 0 0 0 0 0 0
0 0 0 0 0 0 22 0 16 0 0 35 255 416 417 378 261 210 196 25 7 0 0 0 0 0 0 0 0 0 0 0 0 0 0 0 0 0 0 0 0 0 0
0 0 0 0 1 25 53 40 14 2 0 57 154 275 346 385 254 150 170 34 0 0 0 0 0 0 0 0 0 0 0 0 0 0 0 0 0 0 0 0 0 0 0
0 0 0 0 0 66 155 304 24 0 1 148 237 280 283 416 352 107 43 1 0 0 0 0 0 0 0 0 0 0 0 0 0 0 0 0 0 0 0 0 0 0 0
40 55 4 4 77 150 167 369 284 23 190 281 299 254 246 232 137 33 0 0 0 0 0 0 0 0 0 0 0 0 0 0 0 0 0 0 0 0 0 0 0 0 0
108 135 210 204 256 336 385 353 430 143 308 374 281 242 253 73 1 0 0 0 0 0 0 0 0 0 0 0 0 0 0 0 0 0 0 0 0 0 0 0 0 0 0

GFSSE_con_mlcape_045.txt.gz
CAPE
229 913 1005 1033 855 651 517 323 246 163 104 38 3 0 1 50 51 287 15 0 0 0 0 0 0 0 0 0 0 0 0 0 0 0 0 0 0 0 2 2 3 21 36
271 764 886 1046 1095 828 579 402 261 178 101 32 1 0 77 138 183 412 68 0 0 0 0 0 0 0 0 0 0 1 0 0 0 0 0 1 4 6 0 0 2 4 9
41 12 621 1080 1092 922 644 423 285 222 136 4 0 23 193 130 158 343 169 0 0 0 0 0 0 0 0 0 0 0 3 6 3 0 0 10 6 8 14 4 4 8 8
0 0 16 685 1127 1019 608 431 362 248 16 0 3 98 186 115 129 359 91 0 0 0 0 0 0 0 0 0 0 0 0 0 0 0 0 0 4 14 15 15 15 11 11
366 280 746 872 1074 823 564 394 357 132 1 19 88 194 209 260 230 276 180 22 0 0 0 0 0 0 0 0 0 0 0 0 0 0 0 0 0 13 15 11 12 20 18
777 611 952 815 866 735 517 386 240 8 5 132 267 250 370 480 401 349 319 98 46 0 0 0 0 0 0 0 0 0 0 0 0 0 0 0 0 3 5 5 17 25 26
489 164 399 426 547 405 418 323 61 2 94 245 279 471 655 725 597 494 488 170 64 0 0 0 0 0 0 0 0 0 0 0 0 0 0 0 0 3 5 6 14 17 12
229 64 303 215 318 260 179 58 112 110 225 287 356 431 609 751 738 659 564 168 24 0 0 0 0 0 0 0 0 0 0 0 0 0 0 0 0 1 3 3 7 8 9
529 466 326 408 285 184 60 28 188 261 371 322 323 268 337 446 467 496 385 85 0 0 0 0 0 0 0 0 0 0 0 0 0 0 0 0 0 3 5 2 4 3 3
355 213 97 106 132 178 62 83 234 353 276 182 121 94 103 153 169 159 137 27 0 0 0 0 0 0 0 0 0 0 0 0 0 0 0 0 0 4 5 4 4 5 5
163 52 0 2 16 32 33 93 303 259 145 107 79 48 8 7 14 37 64 22 4 0 0 0 0 0 0 0 0 0 0 0 0 0 0 0 0 3 1 1 2 7 9
40 0 0 1 2 0 1 76 297 185 50 87 44 9 8 34 8 7 21 14 11 0 0 0 0 0 0 0 0 0 0 0 0 0 0 0 0 4 8 9 10 11 10
2 2 21 1 0 0 0 4 29 52 74 22 21 27 115 92 2 3 5 11 11 0 0 0 0 0 0 0 0 0 0 0 0 0 0 0 0 10 15 11 5 4 5
1 1 1 0 1 0 0 0 5 57 67 42 78 82 121 32 14 21 18 5 0 0 0 0 0 0 0 0 0 0 0 0 0 0 0 0 0 8 11 7 4 13 8
1 1 1 1 0 0 0 2 25 71 43 117 107 119 120 39 27 54 43 0 0 0 0 0 0 0 0 0 0 0 0 0 0 0 0 0 0 0 2 9 17 16 16
2 1 0 0 0 0 0 2 13 27 39 118 148 158 173 92 77 80 43 21 1 0 0 0 0 0 0 0 0 0 0 0 0 0 0 0 0 0 6 22 21 8 17
2 2 1 0 0 0 0 0 0 0 9 1 5 11 107 198 240 116 126 42 19 0 0 0 0 0 0 0 0 0 0 0 0 0 0 0 0 0 0 26 40 16 21
1 0 2 2 0 0 0 0 0 0 0 0 0 40 38 83 209 242 81 71 18 0 0 0 0 0 0 0 0 0 0 0 0 0 0 0 0 0 0 16 25 15 14
0 0 1 0 0 0 0 0 0 0 0 0 0 6 86 42 234 185 161 80 1 0 0 0 0 0 0 0 0 0 0 0 0 0 0 0 0 0 0 0 0 0 0
0 1 0 0 0 0 0 0 0 0 0 0 0 0 0 115 41 158 195 54 0 0 0 0 0 0 0 0 0 0 0 0 0 0 0 0 0 0 0 0 0 0 0
0 0 0 0 0 0 0 0 0 0 0 0 0 0 0 0 119 258 165 60 0 0 0 0 0 0 0 0 0 0 0 0 0 0 0 0 0 0 0 0 0 0 0
0 0 0 0 0 0 0 0 0 0 0 0 0 0 0 0 70 176 61 33 0 0 0 0 0 0 0 0 0 0 0 0 0 0 0 0 0 0 0 0 0 0 0
0 0 0 0 0 0 0 0 1 10 2 0 0 0 0 83 188 137 88 31 0 0 0 0 0 0 0 0 0 0 0 0 0 0 0 0 0 0 0 0 0 0 0
0 0 0 0 0 0 0 0 0 0 0 0 0 0 21 131 194 173 96 47 3 0 0 0 0 0 0 0 0 0 0 0 0 0 0 0 0 0 0 0 0 0 0
0 0 0 0 0 0 0 0 0 0 0 0 0 16 82 163 212 162 76 25 0 0 0 0 0 0 0 0 0 0 0 0 0 0 0 0 0 0 0 0 0 0 0
0 0 0 0 0 0 0 1 16 44 0 0 15 55 129 141 147 107 0 2 0 0 0 0 0 0 0 0 0 0 0 0 0 0 0 0 0 0 0 0 0 0 0

GFSSE_con_mlcape_048.txt.gz
CAPE
1046 1068 822 805 915 643 67 28 222 82 55 93 197 361 436 147 51 48 11 0 0 0 0 0 0 0 0 0 0 0 0 0 0 1 1 3 9 11 12 1 15 28 33
900 1112 1126 841 820 674 210 52 232 125 99 159 266 445 509 158 52 31 2 0 0 0 0 0 0 0 0 1 0 0 0 0 0 0 3 11 6 4 4 1 5 12 37
1066 855 317 154 757 728 389 190 147 81 53 198 231 520 603 222 32 13 0 0 0 0 0 0 0 0 0 3 8 0 0 0 0 0 0 0 9 9 15 7 6 10 13
511 879 712 384 405 765 259 201 239 173 168 348 371 604 669 429 51 10 0 0 0 0 0 0 0 0 0 0 0 0 0 0 0 0 0 0 6 8 6 11 5 5 6
76 208 285 5 103 591 464 342 218 104 218 340 359 558 664 450 56 21 0 0 0 0 0 0 0 0 0 0 0 0 0 0 0 0 0 0 2 8 10 26 25 20 15
112 26 67 0 104 337 535 324 118 149 254 339 365 545 683 418 80 32 1 0 0 0 0 0 0 0 0 0 0 0 0 0 0 0 0 0 0 7 22 26 23 17 15
584 75 35 17 52 300 481 135 101 177 351 364 445 536 623 473 141 103 0 0 0 0 0 0 0 0 0 0 0 0 0 0 0 0 0 0 1 6 9 8 6 6 5
316 437 517 207 197 226 240 99 163 230 420 524 566 614 603 587 285 119 0 0 0 0 0 0 0 0 0 0 0 0 0 0 0 0 0 0 1 2 4 4 7 7 8
308 209 472 153 233 15 47 61 467 381 568 649 736 757 594 568 432 60 0 0 0 0 0 0 0 0 0 0 0 0 0 0 0 0 0 0 0 2 2 2 3 7 7
286 274 121 136 75 5 0 0 152 321 380 399 472 497 541 544 297 59 0 0 0 0 0 0 0 0 0 0 0 0 0 0 0 0 0 0 1 2 5 7 11 9 7
256 78 59 1 9 37 25 10 0 239 236 231 249 230 232 191 150 0 0 0 0 0 0 0 0 0 0 0 0 0 0 0 0 0 0 0 0 2 4 7 11 11 9
151 15 16 0 1 1 0 5 54 229 137 56 25 13 23 38 23 0 0 0 0 0 0 0 0 0 0 0 0 0 0 0 0 0 0 0 1 7 8 11 9 14 11
90 3 2 10 0 0 0 0 29 78 32 0 0 1 6 0 12 1 0 0 0 0 0 0 0 0 0 0 0 0 0 0 0 0 0 0 0 5 7 9 14 7 4
0 2 2 2 2 1 0 0 36 19 0 0 0 0 0 0 0 0 0 0 0 0 0 0 0 0 0 0 0 0 0 0 0 0 0 0 0 7 11 9 15 11 3
0 1 2 0 4 1 0 2 33 1 0 0 9 3 0 0 0 2 0 0 0 0 0 0 0 0 0 0 0 0 0 0 0 0 0 0 0 6 12 16 12 19 11
2 1 0 1 2 0 0 1 9 0 0 7 36 9 0 3 4 2 0 0 0 0 0 0 0 0 0 0 0 0 0 0 0 0 0 0 0 0 1 4 17 25 24
0 2 1 0 0 0 0 0 0 0 0 34 64 35 9 6 19 13 6 0 0 0 0 0 0 0 0 0 0 0 0 0 0 0 0 0 0 0 0 0 41 22 36
2 1 2 2 0 0 0 0 0 0 0 10 32 58 53 80 66 69 43 34 7 0 0 0 0 0 0 0 0 0 0 0 0 0 0 0 0 0 0 17 29 16 22
1 1 0 3 0 0 0 0 0 0 0 0 0 5 36 59 150 138 82 73 28 0 0 0 0 0 0 0 0 0 0 0 0 0 0 0 0 0 0 0 0 0 0
1 0 0 0 0 0 0 0 0 0 0 0 0 0 0 47 57 121 110 69 11 0 0 0 0 0 0 0 0 0 0 0 0 0 0 0 0 0 0 0 0 0 0
0 0 1 0 0 0 0 0 0 2 0 0 0 0 0 0 14 74 57 37 2 0 0 0 0 0 0 0 0 0 0 0 0 0 0 0 0 0 0 0 0 0 0
0 0 0 0 0 0 0 0 0 0 1 0 0 0 0 0 4 56 60 39 0 0 0 0 0 0 0 0 0 0 0 0 0 0 0 0 0 0 0 0 0 0 0
0 0 0 0 0 0 0 0 0 0 0 0 0 0 0 0 0 5 10 40 0 0 0 0 0 0 0 0 0 0 0 0 0 0 0 0 0 0 0 0 0 0 0
0 0 0 0 0 0 0 0 0 0 0 0 0 0 0 0 4 0 13 23 0 0 0 0 0 0 0 0 0 0 0 0 0 0 0 0 0 0 0 0 0 0 0
0 0 0 0 0 0 0 0 0 0 0 0 0 0 0 0 5 9 54 72 25 0 0 0 0 0 0 0 0 0 0 0 0 0 0 0 0 0 0 0 0 0 0
0 0 0 0 0 0 0 0 0 0 0 0 0 0 0 1 4 29 64 66 4 0 0 0 0 0 0 0 0 0 0 0 0 0 0 0 0 0 0 0 0 0 0

GFSSE_con_mlcape_051.txt.gz
CAPE
1061 1116 904 560 253 120 154 10 118 259 361 386 311 238 262 167 101 41 2 0 0 0 1 1 1 0 0 1 5 5 4 1 0 0 7 15 7 5 16 36 31 36 41
1320 1124 821 733 390 189 30 49 192 121 572 649 397 261 209 141 85 32 1 7 8 5 4 5 3 1 0 0 1 0 0 0 7 10 7 9 10 11 7 18 23 34 34
1329 1300 1040 616 464 432 368 102 27 253 647 814 476 318 260 167 73 12 0 5 38 19 4 6 9 10 5 0 0 2 2 0 3 7 11 6 4 8 5 4 3 4 8
1341 1108 1024 928 570 388 348 247 105 177 720 834 505 349 271 147 37 2 4 32 58 24 1 1 0 0 0 0 0 0 0 0 0 0 0 0 3 26 19 14 6 14 7
849 877 533 486 416 159 193 147 173 484 598 759 655 321 192 99 5 0 0 27 41 17 0 0 0 0 0 0 0 0 0 0 0 0 0 0 3 10 22 19 13 3 7
614 816 765 472 467 237 192 216 333 486 584 865 751 276 168 46 0 0 0 3 20 0 0 0 0 0 0 0 0 0 0 0 0 0 0 0 3 7 8 13 7 6 8
431 415 507 273 359 215 198 80 303 532 557 769 620 280 204 47 0 0 0 0 0 0 0 0 0 0 0 0 0 0 0 0 0 0 0 0 3 6 5 6 6 8 10
474 120 200 177 89 234 248 91 60 480 554 487 575 342 216 35 0 0 0 0 0 0 0 0 0 0 0 0 0 0 0 0 0 0 0 0 3 6 9 7 7 8 8
454 444 62 95 10 98 65 56 43 456 446 418 439 430 280 88 0 0 0 0 0 0 0 0 0 0 0 0 0 0 0 0 0 0 0 0 5 8 9 8 5 5 5
347 506 305 2 1 1 2 0 122 406 466 403 477 559 277 53 0 0 0 0 0 0 0 0 0 0 0 0 0 0 0 0 0 0 0 0 5 8 9 8 5 4 4
227 318 233 2 0 1 0 0 61 446 469 444 506 579 206 8 0 0 0 0 0 0 0 0 0 0 0 0 0 0 0 0 0 0 0 2 7 6 6 7 8 5 4
164 164 68 9 3 0 0 0 1 61 239 414 458 296 51 0 0 0 0 0 0 0 0 0 0 0 0 0 0 0 0 0 0 0 0 0 4 5 5 10 16 16 8
22 25 17 1 3 3 1 0 0 0 46 134 187 149 27 0 0 0 0 0 0 0 0 0 0 0 0 0 0 0 0 0 0 0 0 0 0 9 17 23 20 21 10
2 2 1 2 1 1 1 0 0 0 0 46 103 81 9 0 0 0 0 0 0 0 0 0 0 0 0 0 0 0 0 0 0 0 0 0 0 12 23 29 24 14 9
4 2 2 3 2 0 1 2 0 2 0 40 76 7 0 0 0 0 0 0 0 0 0 0 0 0 0 0 0 0 0 0 0 0 0 0 3 6 11 22 23 12 3
0 1 2 5 3 0 0 0 10 0 10 3 0 0 0 0 0 0 0 0 0 0 0 0 0 0 0 0 0 0 0 0 0 0 0 0 0 2 5 13 24 24 5
1 0 2 4 7 0 0 1 3 0 0 0 0 0 0 0 0 0 0 0 0 0 0 0 0 0 0 0 0 0 0 0 0 0 0 0 0 0 0 6 12 18 10
1 1 1 1 0 0 0 0 1 0 0 32 0 0 0 0 0 0 0 0 0 0 0 0 0 0 0 0 0 0 0 0 0 0 0 0 0 0 0 0 0 0 21
1 2 0 1 0 0 0 0 2 0 6 32 13 9 17 17 12 15 10 13 8 2 0 0 0 0 0 0 0 0 0 0 0 0 0 0 0 0 0 0 0 0 15
1 2 2 1 1 0 0 0 0 0 2 20 9 30 46 52 68 56 51 73 35 8 0 0 0 0 0 0 0 0 0 0 0 0 0 0 0 0 0 0 0 0 2
0 0 1 0 0 0 0 0 2 0 4 11 2 1 14 31 94 147 123 58 49 21 0 0 0 0 0 0 0 0 0 0 0 0 0 0 0 0 0 0 0 0 0
0 0 0 1 0 0 2 6 0 0 0 0 1 0 0 1 1 52 86 100 81 23 0 0 0 0 0 0 0 0 0 0 0 0 0 0 0 0 0 0 0 0 0
0 0 0 0 0 0 0 0 0 0 0 0 0 0 0 0 0 0 54 82 58 0 0 0 0 0 0 0 0 0 0 0 0 0 0 0 0 0 0 0 0 0 0
0 0 0 0 0 0 0 0 0 0 0 0 0 0 0 0 0 0 0 7 34 29 0 0 0 0 0 0 0 0 0 0 0 0 0 0 0 0 0 0 0 0 0
0 0 0 0 0 0 0 0 0 0 0 0 0 0 0 0 0 0 0 0 0 3 0 0 0 0 0 0 0 0 0 0 0 0 0 0 0 0 0 0 0 0 0
0 0 0 0 0 0 0 0 0 0 0 0 0 0 0 0 0 0 0 14 15 8 0 0 0 0 0 0 0 0 0 0 0 0 0 0 0 0 0 0 0 0 0

GFSSE_con_mlcape_054.txt.gz
CAPE
417 10 100 249 434 316 330 401 576 646 688 710 597 421 398 434 274 66 23 15 8 6 1 4 8 13 12 11 7 3 1 0 0 16 36 33 31 49 39 29 26 33 36
1036 896 947 943 470 205 198 293 429 650 679 667 571 569 481 310 59 7 13 12 6 0 1 2 3 1 2 3 7 7 4 1 8 11 11 14 22 20 12 7 2 34 38
1228 1234 968 564 403 337 231 551 818 713 592 610 567 423 333 168 28 74 74 51 33 24 17 10 7 6 4 2 0 0 0 2 4 4 3 1 7 7 0 0 7 14 7
1369 1267 992 741 698 571 476 372 846 1076 636 516 418 374 274 81 88 112 94 68 82 75 40 38 36 3 1 1 0 0 0 0 0 2 0 6 10 12 13 7 6 3 9
1391 1203 972 748 825 595 614 554 733 642 345 534 352 329 227 106 125 145 83 84 78 51 37 11 11 1 0 0 0 0 0 0 0 0 0 1 6 7 3 4 6 11 12
1075 1088 1003 699 638 894 933 1102 1091 1077 663 425 320 318 188 79 150 116 67 36 22 0 0 0 1 0 0 0 0 0 0 0 0 0 1 10 10 10 7 9 9 7 11
929 1002 898 829 816 944 917 971 986 1016 655 304 223 247 162 70 73 89 76 19 0 0 0 0 0 0 0 0 0 0 0 0 0 0 0 0 2 6 6 8 8 8 8
519 395 573 745 414 303 357 553 502 841 640 339 178 243 168 97 84 117 4 0 0 0 0 0 0 0 0 0 0 0 0 0 0 0 0 0 5 7 7 8 6 6 9
384 255 171 303 329 89 9 0 26 258 512 327 196 254 198 166 81 12 0 0 0 0 0 0 0 0 0 0 0 0 0 0 0 0 0 0 5 8 8 9 8 7 7
535 206 52 86 38 1 3 0 0 205 364 321 199 266 238 186 82 0 0 0 0 0 0 0 0 0 0 0 0 0 0 0 0 0 0 3 3 10 12 7 4 4 2
301 34 4 1 2 1 0 0 19 19 63 250 290 236 213 123 0 0 0 0 0 0 0 0 0 0 0 0 0 0 0 0 0 0 0 4 8 11 8 4 4 3 3
124 10 0 0 0 0 1 4 12 27 104 225 273 266 141 29 0 0 0 0 0 0 0 0 0 0 0 0 0 0 0 0 0 0 0 4 8 9 4 7 5 4 3
110 3 3 2 1 1 1 0 1 0 66 173 213 248 107 6 0 0 0 0 0 0 0 0 0 0 0 0 0 0 0 0 0 0 0 3 4 8 6 16 9 3 3
30 5 3 3 2 1 0 0 0 0 14 61 147 207 89 4 6 0 0 0 0 0 0 0 0 0 0 0 0 0 0 0 0 0 0 0 2 9 15 21 19 10 3
8 4 3 4 3 0 0 0 0 0 8 67 93 111 93 24 2 0 0 0 0 0 0 0 0 0 0 0 0 0 0 0 0 0 0 0 0 4 22 28 29 18 4
7 5 2 1 2 0 0 0 0 0 0 26 66 74 73 11 0 2 0 0 0 0 0 0 0 0 0 0 0 0 0 0 0 0 0 0 0 0 14 38 32 26 14
0 0 2 3 1 0 0 0 0 0 0 0 14 41 46 0 5 4 0 0 0 0 0 0 0 0 0 0 0 0 0 0 0 0 0 0 0 0 4 21 23 29 12
0 0 0 3 2 0 0 0 0 2 0 1 27 4 23 3 2 2 0 0 0 0 0 0 0 0 0 0 0 0 0 0 0 0 0 0 0 0 0 0 6 11 13
0 1 0 1 2 2 2 3 2 2 13 13 0 15 24 6 3 3 1 0 0 0 0 0 0 0 0 0 0 0 0 0 0 0 0 0 0 0 0 0 0 0 0
1 1 0 0 2 2 0 0 2 8 12 2 8 14 21 18 9 14 5 2 4 0 0 0 0 0 0 0 0 0 0 0 0 0 0 0 0 0 0 0 0 0 0
0 1 0 1 1 0 0 0 20 3 0 6 21 19 26 26 23 39 32 29 14 0 1 0 0 0 0 0 0 0 0 0 0 0 0 0 0 0 0 0 0 0 0
0 0 0 1 1 0 0 0 0 0 2 3 19 45 54 72 105 110 66 105 65 0 0 0 0 0 0 0 0 0 0 0 0 0 0 0 0 0 0 0 0 0 0
0 0 3 0 0 1 0 0 0 1 1 5 0 7 19 29 14 45 59 67 46 3 10 0 0 0 0 0 0 0 0 0 0 0 0 0 0 0 0 0 0 0 0
0 0 0 0 0 0 0 0 0 0 0 0 0 0 0 1 0 0 5 32 44 28 11 1 0 0 0 0 0 0 0 0 0 0 0 0 0 0 0 0 0 0 0
0 0 0 0 0 0 0 0 0 0 0 0 0 0 0 0 0 0 0 0 0 0 15 10 0 0 0 0 0 0 0 0 0 0 0 0 0 0 0 0 0 0 0
0 0 0 0 0 0 0 0 0 0 0 0 0 0 0 0 0 0 0 0 0 0 0 0 0 0 0 0 0 0 0 0 0 0 0 0 0 0 0 0 0 0 0

GFSSE_con_mlcape_057.txt.gz
CAPE
735 1010 469 353 652 952 1295 1193 1103 1020 744 563 422 273 523 555 595 484 449 280 121 50 11 17 20 22 14 22 18 13 13 17 20 25 30 29 35 32 30 23 28 34 32
875 929 767 706 858 955 1191 1444 1194 1036 880 654 356 304 495 471 486 356 203 116 6 4 12 14 13 13 9 14 4 0 0 0 3 19 19 14 11 6 7 2 16 18 21
770 468 690 788 1074 1138 1321 1394 1236 1118 952 657 660 490 418 240 134 60 21 7 3 3 6 11 10 13 17 13 0 0 0 0 0 0 6 8 3 4 0 0 0 4 4
902 789 966 775 889 1262 1289 1303 1258 1093 733 635 502 402 212 191 133 57 7 5 0 2 4 6 6 7 10 4 0 0 0 0 0 2 0 1 13 6 1 0 0 1 0
1374 1213 1168 1106 816 1145 1262 1275 1251 1111 952 767 572 341 179 193 181 122 95 53 13 19 29 8 2 4 2 0 0 0 0 0 1 1 10 15 3 12 9 16 4 11 10
1388 1384 1337 889 737 1030 1386 1421 1194 1091 861 601 498 226 250 221 187 98 85 88 66 88 34 1 1 1 0 0 0 0 0 0 0 1 8 7 5 14 12 9 8 2 4
1056 1164 1246 843 662 871 1136 1421 1148 1018 793 586 392 246 218 242 131 87 127 68 21 65 45 0 0 0 0 0 0 0 0 0 0 0 1 6 12 12 12 11 9 9 9
669 546 600 771 686 539 583 1233 1039 908 709 557 285 215 258 145 78 70 72 12 2 66 50 0 0 0 0 0 0 0 0 0 0 1 3 10 16 14 7 6 7 6 7
417 344 341 227 451 327 375 893 888 688 725 534 237 184 175 94 75 101 4 5 12 32 2 0 0 0 0 0 0 0 0 0 0 0 1 6 12 10 5 6 7 6 4
548 321 285 221 44 21 108 148 246 396 439 432 191 122 94 89 63 21 0 0 116 72 0 0 0 0 0 0 0 0 0 0 0 0 1 5 10 9 9 7 7 4 2
308 208 91 110 4 23 5 1 0 232 188 356 232 149 106 96 2 0 0 9 81 53 0 0 0 0 0 0 0 0 0 0 0 1 1 5 10 10 9 8 4 2 2
114 108 27 69 28 48 23 3 10 9 91 206 237 186 113 33 0 0 0 0 13 15 0 0 0 0 0 0 0 0 0 0 0 1 3 4 10 6 6 6 4 2 2
26 1 0 0 1 1 1 2 3 9 45 44 224 126 46 7 0 0 0 0 8 13 19 4 0 0 0 0 0 0 0 0 0 0 2 5 11 7 4 7 5 3 1
0 1 3 3 2 2 1 2 0 2 21 48 217 101 17 2 0 0 0 0 0 0 0 13 0 0 0 0 0 0 0 0 0 0 1 4 6 7 18 10 6 4 0
10 0 1 4 3 2 1 1 0 10 45 28 175 74 7 0 0 0 0 0 0 0 0 0 0 0 0 0 0 0 0 0 0 0 2 0 5 12 13 12 11 3 5
11 1 3 4 2 0 0 0 8 24 16 43 117 57 5 3 0 0 0 0 0 0 0 0 0 0 0 0 0 0 0 0 0 0 0 2 0 2 12 13 14 13 9
2 2 3 3 2 0 0 0 2 0 6 40 102 90 9 23 1 0 0 0 0 0 0 0 0 0 0 0 0 0 0 0 0 0 0 0 0 0 0 12 20 19 23
0 2 3 2 0 0 0 0 0 0 0 17 64 84 16 4 6 3 0 0 0 0 0 0 0 0 0 0 0 0 0 0 0 0 0 0 0 0 0 0 10 27 20
2 0 2 2 2 3 0 0 0 0 0 0 7 41 32 1 3 6 1 0 0 0 0 0 0 0 0 0 0 0 0 0 0 0 0 0 0 0 0 0 0 15 26
1 2 0 1 2 3 0 0 2 1 0 0 0 8 19 10 15 11 7 0 0 7 0 0 0 0 0 0 0 0 0 0 0 0 0 0 0 0 0 0 0 6 18
1 1 1 1 2 3 2 3 1 0 0 6 3 16 13 22 21 19 19 8 3 3 3 2 0 0 0 0 0 0 0 0 0 0 0 0 0 0 0 0 0 0 8
2 1 2 2 1 2 3 6 4 0 0 9 32 34 37 41 31 42 35 22 25 9 4 3 0 0 0 0 0 0 0 0 0 0 0 0 0 0 0 0 0 0 0
2 3 1 2 2 2 4 4 2 1 0 2 7 23 34 55 81 69 62 71 76 37 36 20 0 0 0 0 0 0 0 0 0 0 0 0 0 0 0 0 0 0 0
1 4 6 1 1 2 1 1 0 0 0 0 2 6 3 41 63 106 100 61 70 42 40 19 1 0 0 0 0 0 0 0 0 0 0 0 0 0 0 0 0 0 0
2 1 4 2 1 0 1 0 0 0 0 4 0 5 5 16 18 20 22 23 15 46 64 35 5 0 0 0 0 0 0 0 0 0 0 0 0 0 0 0 0 0 0
0 2 3 2 0 0 0 0 0 0 0 0 0 2 1 0 0 5 1 6 5 32 37 37 49 13 0 0 0 0 0 0 0 0 0 0 0 0 0 0 0 0 0

GFSSE_con_mlcape_060.txt.gz
CAPE
1129 1205 753 935 1357 1510 1295 1137 949 1003 806 656 449 329 347 434 527 260 232 208 109 144 85 85 52 75 64 62 53 37 25 27 25 21 28 30 28 23 24 24 36 49 38
1182 1197 812 1266 1693 1585 1283 922 929 999 922 781 542 697 680 577 580 587 361 123 44 35 30 16 8 33 8 4 0 0 16 15 9 14 10 28 21 22 15 8 24 23 18
1130 1290 789 1118 1578 1788 1487 1230 1215 1111 1069 769 796 832 840 689 641 451 183 46 30 36 17 8 3 11 9 1 0 0 0 0 0 0 4 22 10 3 2 0 7 7 6
1339 1404 1000 935 1493 1832 1683 1529 1396 1263 1083 889 895 738 832 643 429 218 40 8 4 4 10 7 5 4 8 0 0 0 0 0 0 0 2 9 8 5 4 2 3 2 1
1375 1060 1044 867 1080 1623 1782 1686 1485 1394 1191 1037 943 741 641 447 238 80 9 0 0 0 3 5 7 12 5 0 0 0 0 0 0 0 0 1 0 13 8 2 3 3 1
1302 1069 1044 988 1131 1591 1800 1776 1613 1395 1172 1057 824 731 598 423 183 59 2 0 5 3 2 5 9 7 0 0 0 0 0 0 0 0 0 0 0 11 4 2 4 4 4
1137 1514 1083 1073 745 1239 1781 1814 1623 1404 1226 909 726 727 640 519 367 70 38 18 39 0 1 2 6 1 0 0 0 0 0 0 0 0 0 1 7 10 8 9 6 8 5
1107 948 1043 857 485 865 1409 1580 1490 1294 1111 812 777 742 654 597 340 158 95 115 84 0 0 0 2 0 0 0 0 0 0 0 0 0 0 3 11 11 7 9 8 5 4
948 655 643 451 165 234 413 989 625 1091 939 764 776 735 666 485 333 174 92 139 82 0 0 0 0 0 0 0 0 0 0 0 0 0 0 2 12 10 8 6 4 4 4
862 387 469 280 164 81 84 244 327 465 699 653 708 723 474 290 199 45 34 108 79 0 0 0 0 0 0 0 0 0 0 0 0 0 1 3 10 10 5 3 4 5 5
733 527 432 228 127 109 77 98 321 518 550 446 605 546 325 239 142 31 2 83 80 0 0 0 0 0 0 0 0 0 0 0 1 0 0 5 8 7 6 6 5 5 2
237 185 224 144 121 98 63 50 107 235 290 347 392 380 218 233 110 0 24 64 13 0 0 0 0 0 0 0 0 0 0 0 4 2 1 7 5 8 8 10 5 3 2
185 72 79 49 33 21 43 17 5 4 18 58 91 205 201 201 30 27 89 106 59 0 0 0 0 0 0 0 0 0 0 0 2 0 1 7 6 10 11 8 9 4 0
83 78 3 48 3 16 39 5 17 31 18 26 29 115 219 75 70 32 60 42 6 1 0 0 0 0 0 0 0 0 0 0 0 1 1 10 13 10 9 3 3 3 1
24 3 2 3 8 4 1 1 1 2 38 49 18 116 199 122 62 21 26 24 35 83 43 6 0 1 0 0 0 0 0 0 0 1 2 4 16 16 12 11 4 0 4
19 18 3 4 5 6 4 2 2 6 6 49 24 174 172 111 55 27 4 0 0 23 41 7 0 0 0 0 0 0 0 0 0 1 1 3 7 17 23 20 12 7 5
13 8 4 2 3 6 6 2 4 0 21 7 33 124 124 85 48 31 4 0 0 1 0 0 0 0 0 0 0 0 0 0 0 0 2 2 0 5 15 27 15 8 8
6 0 4 4 1 7 4 4 1 1 23 36 54 119 106 80 52 29 11 1 0 0 0 0 0 0 0 0 0 0 0 0 0 0 0 0 2 1 0 17 18 23 15
2 5 2 3 2 1 0 0 2 0 3 36 42 94 89 61 46 18 6 26 18 0 0 0 0 0 0 0 0 0 0 0 0 0 0 0 0 0 1 0 1 13 19
8 2 4 2 3 1 0 0 0 0 0 1 32 103 59 48 67 30 19 53 42 1 1 0 0 0 0 0 0 0 0 0 0 0 0 0 0 0 0 0 0 0 5
2 5 1 2 2 2 1 0 1 0 0 0 24 37 71 67 87 75 66 66 55 47 45 31 6 0 0 0 0 0 0 0 0 0 0 0 0 0 0 0 0 0 1
5 10 1 1 2 2 2 0 0 4 1 1 11 30 67 94 90 88 72 62 52 89 87 67 25 16 2 0 0 0 0 0 0 0 0 0 0 0 0 0 0 0 0
1 1 11 10 2 2 0 3 12 21 2 6 3 6 37 103 153 79 81 101 95 92 131 137 98 78 68 5 0 46 64 21 44 0 0 0 0 0 0 0 0 0 0
0 4 10 19 10 4 4 3 4 0 0 0 0 5 38 71 114 108 80 131 154 154 132 170 185 158 148 122 0 0 7 10 35 11 0 0 0 0 0 0 0 0 0
0 1 5 10 6 2 4 3 2 0 0 0 0 1 50 46 84 92 101 156 192 160 145 157 135 128 148 122 95 63 0 0 0 0 0 0 0 0 0 0 0 0 0
0 0 2 2 7 3 3 3 2 2 0 0 0 0 3 12 32 40 51 83 156 87 31 8 34 169 179 144 123 87 27 0 0 0 0 0 2 0 0 0 0 0 0

GFSSE_con_mlcape_063.txt.gz
CAPE
808 1382 600 1158 1582 1396 1214 978 910 825 786 579 376 353 676 610 400 215 113 181 283 307 425 362 267 204 129 50 2 0 1 8 25 17 27 40 42 39 38 51 38 45 51
1375 1577 591 1163 1691 1605 1355 1104 933 960 820 797 571 473 614 618 341 285 392 377 414 385 359 253 184 127 53 16 0 9 0 0 9 15 24 34 21 13 4 2 10 10 10
1493 1626 947 1189 1708 1830 1519 1346 1301 1026 958 833 733 671 804 580 706 744 387 321 306 198 131 138 66 9 8 1 0 0 0 0 0 0 4 11 12 11 6 1 2 2 4
1476 1498 1144 1115 1591 1728 1548 1322 1447 1292 1158 897 973 946 883 839 822 535 305 250 220 71 20 31 28 10 1 0 0 0 0 0 0 7 7 14 14 7 6 7 3 3 4
1516 1519 1399 997 1326 1615 1530 1520 1446 1457 1211 1113 1007 1041 1026 956 687 346 204 164 86 5 7 15 19 11 0 0 0 0 0 0 0 9 1 6 15 5 3 5 3 1 1
1489 1609 1392 1049 908 1495 1475 1511 1151 1414 1267 1209 1201 1171 1034 817 513 247 135 99 21 5 12 6 11 3 0 0 0 0 0 0 0 0 2 4 5 6 2 0 2 2 2
1413 1728 1173 982 743 964 1167 1027 1013 1159 1203 1166 1205 1039 916 655 315 120 51 12 5 3 9 10 10 0 0 0 0 0 0 0 0 0 0 1 5 4 2 2 3 2 2
1271 1423 1426 987 680 612 785 753 575 804 1035 985 1088 909 832 476 204 95 144 55 0 0 4 6 0 0 0 0 0 0 0 0 0 0 0 1 6 4 5 3 3 4 3
1122 1089 1324 1302 510 156 78 1 299 803 948 990 971 874 697 403 195 239 204 55 0 0 0 0 0 0 0 0 0 0 0 0 1 0 0 1 6 6 7 5 3 3 3
975 653 903 604 274 136 6 126 25 58 711 864 888 826 600 362 343 370 206 72 0 0 0 0 0 0 0 0 0 0 0 0 0 0 0 0 7 6 6 4 2 2 3
861 769 726 252 119 11 12 7 22 23 223 481 729 616 515 210 331 249 182 90 0 0 0 0 0 0 0 0 0 0 0 2 3 0 0 4 6 9 7 7 5 3 4
271 715 531 301 154 64 24 24 0 2 223 373 497 378 162 272 329 158 208 49 0 0 0 0 0 0 0 0 0 0 3 9 7 1 1 4 12 11 9 5 6 5 3
308 201 301 260 283 146 65 29 17 31 187 326 322 301 201 179 134 161 161 24 0 0 0 0 0 0 0 0 0 0 0 9 9 1 2 8 3 7 5 7 3 2 1
125 64 130 107 89 80 68 19 11 20 43 105 208 131 98 89 75 129 133 30 0 0 0 0 0 0 0 0 0 0 3 13 8 1 4 6 9 9 9 8 3 2 0
59 35 49 100 47 69 46 42 33 16 1 13 43 32 67 102 95 111 149 98 1 6 0 0 4 0 0 0 0 1 5 17 7 1 6 7 10 13 4 7 8 4 2
20 30 20 3 14 9 10 16 13 18 7 1 3 20 49 121 138 134 122 114 79 66 15 0 18 2 0 0 0 0 1 3 11 4 4 11 9 9 0 1 4 8 2
8 17 1 4 0 2 2 2 2 2 4 4 0 15 27 129 159 198 224 231 168 115 65 40 2 0 0 0 0 0 0 1 3 12 0 3 2 8 3 4 0 0 8
9 5 2 2 0 5 2 3 2 4 5 16 31 18 2 116 124 162 143 136 112 114 78 24 0 0 1 0 0 0 0 0 0 2 16 5 0 4 0 4 5 0 4
6 76 3 2 1 5 9 4 6 3 2 2 8 20 25 136 115 133 99 89 54 42 47 25 2 3 1 0 0 0 0 0 0 0 0 0 2 1 0 0 0 7 8
10 11 5 2 2 0 5 4 11 6 2 1 0 39 91 75 89 85 91 81 33 18 13 19 3 0 1 0 0 0 0 0 0 0 0 0 0 0 0 8 0 0 4
3 13 5 2 2 0 3 1 1 5 5 8 5 41 61 49 71 60 91 127 118 38 23 35 10 0 0 0 0 0 0 0 0 0 0 0 0 0 0 0 5 0 0
0 4 2 3 2 1 0 1 4 2 2 1 1 33 66 61 130 98 112 134 158 115 103 76 68 38 2 0 0 0 0 0 0 0 0 0 0 0 0 0 0 0 7
0 2 2 3 2 1 0 0 10 3 3 0 4 10 25 63 105 143 171 152 117 182 153 158 160 113 56 5 0 31 39 13 21 0 0 0 0 0 0 0 0 0 0
0 1 14 13 4 1 3 1 1 0 0 0 0 4 12 12 88 104 92 100 159 136 127 163 181 148 131 89 44 12 80 129 86 16 0 0 0 0 0 0 0 0 0
0 0 0 10 11 5 4 3 0 0 4 14 1 5 7 0 51 75 75 49 107 180 140 201 197 178 185 83 130 131 60 66 107 58 54 0 0 0 0 0 0 0 0
0 0 0 2 9 10 3 2 1 0 3 8 9 5 4 5 23 36 46 56 39 132 153 162 160 227 191 170 102 110 93 57 32 21 6 35 6 0 0 0 0 0 0

GFSSE_con_mlcape_069.txt.gz
CAPE
1084 1286 1205 996 930 997 993 880 760 552 534 548 509 437 446 439 388 262 146 63 21 60 192 390 365 320 372 355 255 212 171 151 151 178 149 138 98 88 65 64 63 70 124
1219 1298 1505 1190 1113 1076 1098 988 871 631 623 597 523 478 412 320 291 212 81 36 140 227 276 295 176 131 163 195 145 85 57 42 60 42 54 79 50 49 19 13 12 12 65
1350 995 1594 1536 1095 1130 1077 1039 1072 845 805 803 591 353 387 294 225 211 354 744 690 576 292 23 51 48 181 90 33 33 18 0 0 5 7 14 42 35 26 13 13 20 19
1484 1115 1041 1742 1506 1323 1235 1123 1115 1013 980 976 727 481 438 499 596 682 812 764 693 531 467 214 89 50 34 27 22 26 0 0 0 3 11 22 37 35 24 17 12 9 7
1113 1400 1165 1262 1732 1588 1414 1249 1260 1175 988 1040 846 592 558 674 823 746 690 595 605 525 386 242 46 13 0 0 27 0 0 0 0 0 3 7 20 28 15 13 9 11 7
779 1432 1425 1097 1519 1835 1590 1405 1300 1208 1045 971 904 820 878 964 997 712 535 551 522 507 298 89 37 0 0 0 0 10 19 0 0 0 5 9 7 8 5 1 1 2 2
1036 1270 1387 1227 1346 1429 1476 1548 1197 1157 1105 997 813 881 980 1053 901 613 448 434 460 275 65 39 1 0 0 0 0 0 0 0 0 0 0 4 14 6 3 6 4 2 2
1298 1346 1234 1064 1259 1165 997 1222 996 745 725 663 484 693 210 917 676 506 370 359 314 88 30 8 0 0 0 0 0 0 0 0 0 0 0 0 5 6 14 8 8 7 7
1112 1171 1308 1159 849 747 723 590 171 142 100 214 287 110 169 617 452 400 256 136 86 34 4 3 0 0 0 0 0 0 0 0 0 0 2 0 11 10 7 4 5 4 2
888 862 726 1042 760 340 203 56 97 92 7 0 18 206 402 461 339 326 247 97 41 20 5 0 0 0 0 0 0 0 0 0 0 0 3 9 12 9 6 5 5 6 5
538 621 523 677 596 267 80 28 46 54 64 12 0 2 298 396 263 196 112 63 15 6 0 0 0 0 0 0 0 0 0 0 0 0 1 8 9 9 6 6 6 3 3
576 710 610 466 206 84 51 7 0 0 31 0 0 1 145 251 104 116 55 34 5 3 0 0 0 0 0 0 0 0 0 0 0 0 1 6 8 6 4 5 2 2 1
542 525 528 271 59 6 7 0 0 3 0 0 0 0 194 140 74 42 16 8 0 0 0 0 0 0 0 0 0 0 0 0 0 0 0 4 7 5 5 4 2 2 1
382 197 224 189 63 22 16 1 0 0 0 0 0 0 180 95 45 3 1 0 0 0 0 0 0 0 0 0 0 0 0 0 0 0 0 1 5 7 5 6 2 2 1
129 77 72 13 68 0 0 0 0 0 0 0 4 20 127 77 11 0 0 0 0 0 0 0 0 0 0 0 0 0 0 0 0 0 0 3 4 9 5 5 2 1 0
32 0 7 5 2 0 0 0 0 0 0 4 57 76 65 77 0 0 0 0 0 0 0 0 0 0 0 0 0 3 0 0 0 0 0 0 1 4 3 3 1 1 0
34 0 1 3 0 0 4 0 0 1 3 19 35 32 44 52 1 0 0 0 0 0 0 0 0 0 0 0 0 1 0 0 0 0 0 0 0 0 1 0 2 2 1
2 0 1 1 0 0 0 1 0 0 1 12 29 4 20 44 3 0 0 0 0 0 0 0 0 0 0 0 1 2 0 0 0 0 0 0 0 0 0 0 0 0 0
1 0 0 0 1 0 0 1 0 0 0 1 1 0 6 9 21 5 0 0 3 0 0 0 0 0 0 0 0 0 0 0 0 0 0 0 0 0 0 0 0 0 0
0 0 0 2 2 0 1 3 1 5 1 1 0 1 8 2 3 7 12 19 65 3 0 0 1 0 0 0 0 0 0 0 0 0 0 0 0 0 0 0 0 0 0
0 0 2 3 2 1 0 1 2 0 1 2 0 0 2 0 0 19 21 21 43 55 38 25 16 4 0 0 0 0 0 0 0 0 0 0 0 0 0 0 0 0 0
0 0 1 0 0 1 0 0 0 1 3 3 1 0 0 1 0 4 21 30 9 39 38 4 8 3 2 0 0 1 0 0 0 0 0 0 0 0 0 0 0 0 0
0 0 0 0 0 0 0 1 2 1 1 1 1 0 0 0 5 1 8 4 0 6 0 0 2 0 0 0 0 1 0 0 0 0 0 0 0 0 0 0 0 0 0
0 0 0 0 1 0 0 1 1 1 0 1 1 0 0 0 0 0 0 0 0 5 9 27 16 4 0 0 0 1 0 3 0 0 0 0 0 0 0 0 0 0 0
0 0 0 0 0 0 3 0 1 1 0 0 0 0 0 0 0 0 1 0 3 15 20 26 29 13 2 0 0 2 0 3 27 16 0 0 0 0 0 0 0 0 0
0 0 0 0 0 0 1 1 0 0 0 0 0 0 0 0 0 0 0 17 21 14 63 39 28 18 10 18 18 11 0 0 0 24 21 1 0 0 0 0 0 0 0

GFSSE_con_mlcape_072.txt.gz
CAPE
1071 1062 1122 1102 1016 752 538 493 567 698 711 625 690 720 845 842 746 621 526 459 509 674 627 561 431 571 659 589 490 389 340 331 330 257 203 204 223 156 142 106 77 77 184
1148 1293 1193 1206 1165 920 655 532 561 719 702 695 724 791 726 664 649 552 467 483 642 690 560 587 450 532 512 444 321 300 265 233 175 195 133 147 107 106 71 54 40 63 95
1275 1383 1264 1254 1224 1024 857 656 677 901 818 716 735 674 715 590 495 327 290 465 675 616 486 327 390 432 363 277 213 178 146 112 95 66 28 19 50 67 36 20 10 29 63
1226 1357 1373 1256 1256 1179 1027 920 830 974 894 726 593 630 632 577 409 575 639 616 659 580 228 260 438 332 329 194 99 54 38 15 9 8 1 17 46 60 27 22 25 15 10
1255 1321 1483 1327 1270 1349 1256 1143 1006 1087 942 699 663 661 559 475 717 982 903 859 630 275 270 209 288 286 159 99 28 19 2 0 0 0 10 23 26 31 21 19 11 3 4
1227 1166 1291 1419 1461 1417 1314 1289 1151 1073 952 642 550 658 655 706 924 990 898 791 667 519 519 311 256 162 102 27 7 0 0 0 0 4 11 17 15 24 9 5 7 10 8
1040 1267 1264 1420 1424 1540 1497 1326 1191 1094 987 708 673 777 955 1082 1116 856 837 785 601 447 324 239 154 75 35 0 0 0 0 0 0 0 2 6 10 13 3 3 2 1 4
928 1153 1271 1313 1455 1554 1499 1264 1075 1009 948 775 828 924 986 1032 971 860 769 595 454 330 197 158 22 15 0 0 0 0 0 0 0 0 0 4 14 5 7 9 2 7 5
1092 1108 1070 1073 1141 1273 1523 1048 858 724 224 264 209 260 13 308 487 670 628 552 340 117 131 24 0 0 0 0 0 0 0 0 0 0 0 5 3 3 13 7 11 6 7
820 861 992 878 576 560 564 711 571 503 97 101 117 21 22 138 289 459 552 416 212 46 26 3 0 0 0 0 0 0 0 0 0 0 0 7 4 4 13 13 9 8 7
519 391 480 626 453 314 251 261 229 270 144 95 43 10 4 159 229 377 337 244 134 29 3 0 0 0 0 0 0 0 0 0 0 0 1 6 2 10 14 10 11 10 7
348 287 333 431 416 233 54 39 38 68 84 15 0 0 0 0 186 210 224 110 68 33 2 0 0 0 0 0 0 0 0 0 0 0 1 8 8 12 9 9 12 7 7
450 432 395 313 149 109 9 0 0 3 13 1 0 0 0 0 122 151 110 27 29 41 14 0 0 0 0 0 0 0 0 0 0 0 2 5 12 5 8 9 7 7 4
489 392 430 205 34 0 0 0 0 0 0 0 0 0 0 3 108 56 20 0 3 0 0 0 0 0 0 0 0 0 0 0 0 0 1 6 6 7 8 5 3 4 2
380 203 289 168 30 0 0 0 0 0 0 0 0 0 10 35 29 2 1 0 0 0 0 0 0 0 0 0 0 0 0 0 0 0 0 1 3 4 3 4 2 3 2
61 25 133 135 59 1 0 0 0 0 1 0 1 0 4 27 1 0 1 0 0 0 0 0 0 0 0 0 0 0 0 0 0 0 0 0 0 1 4 3 2 1 1
0 3 40 75 7 0 0 0 0 0 4 3 0 0 45 3 0 1 0 0 0 0 0 0 0 0 0 0 0 0 0 0 0 0 0 0 0 0 0 3 3 3 1
0 0 8 0 0 0 0 0 0 2 1 4 4 11 4 1 0 0 0 0 0 0 0 0 0 0 0 0 0 0 0 0 0 0 0 0 0 0 0 0 1 1 0
0 0 0 0 0 0 1 0 0 1 5 7 8 22 9 0 0 0 0 0 0 0 0 0 0 0 0 0 0 0 0 0 0 0 0 0 0 0 0 0 0 0 0
0 0 0 0 0 0 0 3 1 0 1 0 12 22 38 7 0 0 0 0 0 0 0 0 0 0 0 0 0 0 0 0 0 0 0 0 0 0 0 0 0 0 0
0 0 0 0 0 0 1 1 4 1 1 1 0 3 0 9 0 0 0 0 0 0 0 0 0 0 0 0 0 0 0 0 0 0 0 0 0 0 0 0 0 0 0
0 0 0 0 0 0 0 1 1 1 1 1 1 1 0 0 0 0 0 2 8 0 0 0 0 0 0 0 0 0 0 0 0 0 0 0 0 0 0 0 0 0 0
0 0 0 0 0 0 0 0 0 1 1 1 1 1 1 0 3 13 0 16 40 30 5 3 0 0 1 0 0 0 0 0 2 0 2 0 0 0 0 0 0 0 0
0 0 0 0 0 0 1 0 0 1 1 0 1 0 0 0 0 1 21 7 22 55 35 18 0 0 3 0 0 0 0 0 0 0 0 0 0 0 0 0 0 0 0
0 0 0 0 0 0 1 0 0 1 0 1 1 0 0 0 0 0 8 16 10 37 30 12 20 1 0 0 0 0 0 0 0 0 0 0 0 0 0 0 0 0 0
0 0 0 0 0 0 0 0 0 0 0 2 0 1 1 0 0 1 4 9 0 7 20 7 0 3 1 5 0 0 0 0 0 13 4 0 0 0 0 0 0 0 0

GFSSE_con_mlcape_075.txt.gz
CAPE
769 857 926 954 875 873 641 641 491 646 967 1133 1195 1117 984 936 864 795 614 612 666 691 718 711 542 472 643 688 495 352 442 387 409 289 284 300 272 262 257 207 219 238 276
833 894 964 962 891 844 756 752 692 533 979 1211 1287 1288 1209 1044 930 780 694 866 878 801 719 697 722 607 706 624 481 445 402 353 323 294 247 294 305 250 192 198 182 212 239
1044 1011 1006 975 909 859 851 862 877 822 734 1167 1265 1263 1196 1025 906 785 806 974 914 824 759 689 796 728 558 499 428 388 315 229 224 202 126 42 84 165 180 118 115 170 156
1069 1040 1078 1127 1077 919 856 863 1107 1121 1014 859 1044 1094 1079 945 855 785 795 915 789 777 754 868 790 619 564 429 324 271 197 111 64 43 30 48 80 109 108 66 89 76 107
1185 1140 1083 1173 1170 1156 1022 914 1167 1186 971 910 865 884 887 858 732 715 821 774 715 673 711 780 662 481 382 234 174 95 39 13 9 6 0 5 42 73 28 21 9 7 6
1173 1300 1223 1160 1206 1244 1186 1027 1069 1220 1020 920 977 1026 906 737 739 674 765 706 661 351 506 714 454 342 210 72 23 0 0 0 0 0 0 21 22 39 16 4 6 3 4
1053 1189 1375 1188 1201 1335 1346 1157 1066 1233 1049 892 971 1020 858 975 997 812 721 737 554 485 559 494 322 219 97 28 0 0 0 0 0 0 3 8 20 20 10 5 6 2 4
789 1018 1148 1422 1373 1459 1453 1295 887 964 981 934 1043 961 972 1057 989 1036 1006 776 540 432 405 272 183 104 30 2 0 0 0 0 0 0 1 6 17 20 19 11 3 2 8
805 1035 1083 1382 1596 1591 1600 1440 1038 774 626 486 485 279 184 294 439 722 711 571 460 419 250 157 90 5 8 0 0 0 0 0 0 0 3 9 12 13 9 10 3 1 2
835 903 1008 986 1048 1154 1382 1242 959 737 396 243 25 1 1 100 125 183 457 451 362 345 195 80 7 1 0 0 0 0 0 0 0 0 1 5 10 2 7 2 3 1 11
728 790 768 680 566 554 751 827 905 595 127 18 17 12 31 66 135 144 340 366 262 236 100 20 0 0 0 0 0 0 0 0 0 0 2 10 8 10 9 9 3 3 3
425 360 420 382 378 220 232 391 521 362 58 8 11 21 25 68 63 35 147 287 191 147 33 0 0 0 0 0 0 0 0 0 0 0 2 6 8 9 8 3 3 3 4
279 161 170 205 210 129 99 112 140 158 47 17 36 8 0 6 95 180 109 167 124 111 0 0 0 0 0 0 0 0 0 0 0 0 2 2 12 4 4 4 2 2 4
340 273 197 148 108 73 25 0 0 23 0 1 1 2 0 0 4 56 77 56 49 36 3 0 0 0 0 0 0 0 0 0 0 0 1 2 5 5 10 7 9 8 4
410 341 225 168 60 4 0 0 0 0 0 1 0 1 0 0 4 121 45 0 8 7 0 0 0 0 0 0 0 0 0 0 0 0 0 7 4 7 11 12 8 6 7
394 264 205 109 48 0 0 0 0 0 0 0 1 3 0 6 77 95 22 0 0 0 0 0 0 0 0 0 0 0 0 0 0 0 0 1 5 8 4 8 8 5 3
319 85 12 79 49 4 2 0 0 0 0 0 1 1 4 13 125 50 16 1 0 0 0 0 0 0 0 0 0 0 0 0 0 0 0 0 1 5 3 3 5 3 3
95 0 0 24 29 0 0 0 0 2 1 3 0 0 1 37 74 21 1 0 0 0 0 0 0 0 0 0 0 0 0 0 0 0 0 0 0 0 3 0 3 2 2
26 7 0 4 1 0 0 0 1 3 3 6 7 2 1 25 2 1 1 0 0 0 0 0 0 0 0 0 0 0 0 0 0 0 0 0 0 0 0 0 0 1 0
13 14 0 0 0 1 0 0 1 2 3 10 4 2 3 2 0 0 0 0 0 0 0 0 0 0 0 0 0 0 0 0 0 0 0 0 0 0 0 0 0 0 0
0 11 0 0 0 0 0 1 0 1 1 7 4 4 1 1 0 3 0 0 0 0 0 0 0 0 0 0 0 0 0 0 0 0 0 0 0 0 0 0 0 0 0
9 0 0 0 0 0 0 0 0 1 2 0 3 10 28 18 1 0 0 0 0 0 0 0 0 0 0 0 0 0 0 0 0 0 0 0 0 0 0 0 0 0 0
1 0 0 0 0 0 0 0 0 0 2 1 8 15 2 4 0 0 0 0 0 0 0 0 0 0 0 0 0 0 0 0 3 0 0 0 0 0 0 0 0 0 0
5 0 0 0 0 0 0 0 0 0 0 1 2 1 3 9 1 0 0 3 2 0 0 2 3 3 1 3 0 0 0 0 18 5 0 0 5 10 12 6 0 0 0
0 0 0 0 0 0 0 0 0 0 0 0 2 0 1 1 0 0 0 0 5 1 9 26 17 6 14 14 0 0 1 0 0 0 11 1 0 2 23 18 4 0 0
19 0 0 0 0 0 0 0 0 0 0 0 0 1 1 0 1 0 0 0 2 7 15 20 34 36 8 0 4 8 5 1 3 0 0 0 0 1 0 1 0 0 0

GFSSE_con_mlcape_078.txt.gz
CAPE
768 865 1001 1004 1018 733 491 596 768 1054 1243 1217 1189 1122 1008 1012 1034 1017 917 754 827 946 950 871 865 908 850 799 635 641 534 474 392 433 398 484 491 478 434 374 327 328 316
666 920 964 1030 1044 806 582 626 873 1082 1380 1417 1385 1339 1227 1210 1115 992 915 860 1016 1065 1033 1027 988 817 896 691 621 521 499 371 338 293 322 510 450 465 406 349 246 227 290
723 831 985 1103 1145 948 816 630 1019 1254 1465 1500 1456 1385 1358 1300 1113 1027 1026 1051 1118 1041 974 940 800 802 807 667 592 561 470 391 270 285 301 291 316 345 312 260 248 251 261
919 848 982 1111 1183 1126 1013 792 970 1354 1493 1575 1487 1379 1359 1299 1133 948 941 1182 1064 950 962 910 1013 880 727 634 533 472 369 266 169 64 91 143 209 278 235 188 240 236 278
1093 945 1011 1210 1288 1241 1090 1091 882 1359 1543 1670 1628 1530 1454 1284 1125 1067 990 1081 1000 1001 1031 1142 1059 828 625 506 396 314 179 96 76 39 39 62 120 247 188 96 85 127 98
1183 1018 1028 1202 1325 1347 1089 1131 1204 936 1389 1571 1603 1556 1531 1292 1149 1192 1097 970 855 999 1006 1046 954 697 473 347 238 84 46 23 7 4 28 38 22 37 6 3 5 5 6
1146 1056 1082 1207 1371 1393 1224 1098 1250 1248 960 1174 1492 1534 1459 1298 1260 1126 1010 853 812 1000 1041 821 675 481 259 151 62 29 6 1 0 0 0 1 15 10 9 8 8 4 4
1000 1206 1230 1292 1391 1407 1359 1141 981 1014 1087 993 1207 1365 1127 871 657 651 789 769 678 862 839 670 499 236 111 48 14 4 0 0 0 0 0 10 18 19 17 13 5 8 4
1075 1058 1245 1409 1416 1494 1476 1290 881 753 711 812 844 402 384 123 85 270 460 589 648 740 642 455 277 133 54 13 2 0 0 0 0 0 0 5 21 22 10 1 2 5 2
801 947 1080 1332 1493 1419 1377 1474 1133 873 574 246 135 115 0 1 91 152 266 428 303 509 454 293 159 81 19 1 0 0 0 0 0 0 0 9 14 10 7 1 4 6 4
741 864 1020 1083 1170 1190 1076 1065 1079 778 491 223 34 0 0 0 20 32 182 255 352 288 329 97 70 55 4 0 0 0 0 0 0 0 0 4 11 8 10 7 6 1 4
571 697 816 783 784 683 820 919 890 637 278 68 2 0 0 0 5 14 88 180 169 179 122 35 19 5 0 0 0 0 0 0 0 0 0 4 14 10 9 10 4 7 15
508 577 635 543 354 283 383 286 340 282 69 13 1 0 0 1 17 54 18 82 96 109 0 0 0 0 0 0 0 0 0 0 0 0 1 3 8 9 3 12 4 2 2
434 419 264 201 237 131 128 153 180 190 17 6 6 6 2 5 39 63 71 69 59 31 0 0 0 0 0 0 0 0 0 0 0 0 2 7 7 11 19 12 6 6 5
364 288 180 136 152 88 76 54 83 72 7 5 2 2 1 18 54 58 20 52 39 0 0 0 0 0 0 0 0 0 0 0 0 0 1 3 8 19 10 10 7 6 5
354 320 241 164 64 1 0 1 1 2 2 1 1 2 0 0 10 52 56 47 5 0 0 0 0 0 0 0 0 0 0 0 0 0 0 4 7 8 5 5 11 7 5
326 308 321 149 13 0 0 1 0 0 1 1 1 1 2 1 3 60 59 34 8 0 0 0 0 0 0 0 0 0 0 0 0 0 0 0 4 4 5 11 10 9 4
295 293 224 94 2 0 0 0 1 0 0 0 1 2 2 2 69 86 85 23 1 0 0 0 0 0 0 0 0 0 0 0 0 0 0 0 0 4 4 7 8 8 3
192 209 114 20 0 0 0 0 1 1 1 4 1 1 1 4 7 76 37 1 0 0 0 0 0 0 0 0 0 0 0 0 0 0 0 0 0 0 0 1 4 3 2
121 152 34 2 0 0 0 3 0 1 2 3 7 1 2 2 20 15 1 1 0 0 0 0 0 0 0 0 0 0 0 0 0 0 0 0 0 0 0 0 0 0 0
147 64 25 0 0 0 0 0 3 0 2 4 9 11 1 3 19 5 1 0 0 0 0 0 0 0 0 0 0 0 0 0 0 0 0 0 0 0 0 0 0 0 0
143 31 18 0 0 0 2 0 0 1 0 5 2 2 2 1 1 2 0 0 0 0 0 0 0 0 0 0 0 0 1 0 0 0 0 0 0 0 0 0 0 0 0
71 32 12 0 0 0 0 0 0 0 1 1 2 5 1 1 0 0 0 0 0 0 0 0 0 0 0 0 0 0 0 0 0 0 0 0 0 0 0 0 0 0 0
29 25 0 0 0 1 0 0 0 0 0 0 2 1 2 1 0 0 0 0 0 0 0 0 0 0 0 0 0 0 0 0 11 0 0 0 0 0 0 0 8 9 8
3 17 0 0 0 0 0 0 0 0 0 0 1 3 1 3 0 0 0 0 0 0 0 3 1 0 0 4 4 1 2 1 10 3 0 3 4 1 0 0 9 15 12
6 4 0 0 0 1 3 0 0 0 0 0 0 3 0 1 2 0 0 0 0 0 0 7 5 13 13 3 19 43 39 18 15 23 1 10 15 0 12 7 15 29 37

GFSSE_con_mlcape_081.txt.gz
CAPE
712 943 886 884 762 848 775 788 941 1243 1327 1205 1165 1171 1173 1234 1270 1231 1245 1179 1157 1079 1025 940 910 911 850 780 739 734 682 604 561 565 574 595 626 642 565 447 453 430 407
766 1042 981 901 790 835 688 822 1136 1413 1498 1432 1352 1343 1277 1358 1302 1273 1147 1110 1175 1206 1134 1108 1034 1045 964 912 772 682 564 487 462 473 455 656 618 533 475 380 435 286 330
904 1116 1144 986 996 908 735 868 1235 1649 1637 1551 1501 1456 1386 1426 1348 1218 1077 1155 1243 1295 1260 1310 1305 1151 976 832 699 611 528 482 368 368 455 545 560 538 435 357 326 364 364
911 1100 1240 1095 1184 959 804 1029 1300 1798 1815 1735 1682 1623 1547 1448 1234 1152 1149 1219 1256 1344 1310 1283 1275 1073 942 818 655 589 507 426 384 330 413 498 461 487 444 361 376 371 297
934 981 1149 1188 1220 998 868 908 1225 1642 1947 1908 1839 1748 1671 1390 1200 1125 1087 1223 1266 1297 1339 1246 1170 1075 893 741 641 496 346 224 192 222 293 433 406 382 370 291 258 194 202
1029 1001 1123 1161 1149 1163 1011 838 1141 1384 1766 1926 1902 1701 1487 1385 1367 975 979 1166 1276 1322 1344 1207 1027 909 767 629 501 336 176 96 134 212 382 347 286 129 27 13 42 55 54
1078 1164 1298 1283 1250 1227 1190 915 948 1228 1365 1579 1888 1620 1318 1505 1109 910 841 1060 1329 1249 1255 1013 967 813 629 456 301 174 77 77 299 301 241 155 66 9 0 2 2 5 4
758 1036 1240 1390 1391 1250 1222 1188 956 985 1202 1450 1762 1715 1509 1014 865 518 492 639 613 957 1067 1017 822 657 480 263 124 61 24 34 88 95 67 36 2 0 0 0 1 3 3
1294 1187 1152 1419 1553 1377 1276 1212 1232 946 740 921 1268 1501 603 186 363 220 230 234 379 761 806 803 637 466 302 141 61 15 2 5 24 15 10 7 0 2 3 8 11 4 9
1232 1410 1357 1365 1493 1711 1563 1316 1202 1122 757 403 542 355 210 103 95 27 12 102 270 681 659 652 488 318 154 52 7 1 0 0 0 0 1 0 11 8 7 4 4 4 8
945 1126 1322 1400 1496 1545 1422 1350 1331 1104 792 497 347 155 56 25 3 1 13 61 144 402 511 409 325 158 64 6 0 0 0 0 0 0 2 2 10 10 7 11 12 8 7
451 777 1132 1179 1357 1274 1140 1145 1274 1054 676 317 204 86 19 5 11 2 0 32 104 227 247 242 178 64 29 26 0 0 0 0 0 0 1 2 7 12 16 14 9 7 8
684 654 949 1010 1056 1137 1051 889 812 606 399 138 30 18 10 0 0 0 3 34 154 174 197 236 114 77 58 25 0 0 0 0 0 0 0 8 15 18 16 7 7 6 10
685 788 791 800 822 776 773 586 508 382 171 59 0 0 0 1 19 63 99 75 75 45 128 226 140 21 0 0 0 0 0 0 0 0 5 8 12 8 3 14 17 13 10
654 841 780 666 623 480 402 382 243 171 132 45 3 0 3 6 46 98 51 105 58 3 53 127 20 1 0 0 0 0 0 0 0 0 3 4 10 13 21 20 25 16 6
685 738 647 478 389 347 219 192 109 125 92 23 5 0 1 12 35 91 77 85 51 0 12 65 0 0 0 0 0 0 0 0 0 0 3 10 12 17 25 27 21 12 7
636 656 472 366 451 232 92 83 11 11 6 4 3 2 0 2 4 67 102 98 51 1 0 3 0 0 0 0 0 0 0 0 0 0 6 10 7 14 21 21 7 4 3
622 641 460 420 315 89 34 1 0 1 0 1 1 1 2 4 22 61 73 55 7 0 0 2 0 0 0 0 0 0 0 0 0 4 2 5 9 3 6 6 6 5 5
600 578 446 386 185 9 3 3 1 1 3 0 2 1 1 1 5 72 79 33 4 1 0 0 0 0 0 0 0 0 0 0 0 4 1 2 7 10 17 9 5 5 4
484 470 374 259 90 0 1 1 1 2 2 2 2 0 2 3 3 56 37 6 2 2 0 0 0 0 7 3 0 0 0 1 3 4 6 0 2 6 11 14 9 9 5
373 331 221 180 6 0 0 0 1 0 1 2 3 4 2 2 11 7 2 1 1 1 0 0 0 0 0 2 0 1 4 2 1 0 4 5 0 2 2 2 2 5 2
309 255 159 106 0 1 1 1 1 1 3 3 4 1 10 1 4 9 0 2 3 2 0 0 0 0 0 0 0 1 4 2 2 2 1 5 3 0 2 0 0 0 0
243 226 156 32 0 1 1 3 1 3 3 4 2 3 1 1 3 2 2 2 1 1 0 0 0 0 0 0 0 2 2 7 2 3 1 4 3 1 0 0 0 0 0
221 204 48 8 1 2 3 2 0 0 1 6 2 3 2 2 1 2 2 0 0 0 0 0 0 0 0 0 0 0 12 1 19 1 0 0 0 0 1 0 0 0 0
216 133 7 0 2 3 1 0 0 2 4 3 3 1 1 2 2 2 2 0 0 0 0 0 0 0 0 0 2 4 0 1 11 18 0 0 0 0 0 2 2 4 3
117 10 1 0 1 1 1 1 0 8 3 0 6 1 0 2 1 1 0 0 0 0 0 0 0 0 0 3 5 11 12 28 25 36 33 45 42 17 4 7 1 3 1

GFSSE_con_mlcape_084.txt.gz
CAPE
966 972 586 514 668 748 958 770 827 1217 1177 1034 1011 1105 1133 1216 1238 1331 1298 1238 1362 1395 1376 1253 1073 1047 1068 994 785 858 913 837 839 785 739 782 791 718 502 489 544 566 563
1154 1346 651 618 773 927 1004 887 920 1242 1367 1268 1216 1316 1249 1360 1432 1458 1456 1463 1433 1425 1345 1271 1165 1094 1015 1048 1007 876 769 749 740 664 651 778 782 634 494 503 593 500 559
1341 1619 1073 767 906 1148 1128 1094 1211 1467 1627 1523 1394 1468 1440 1535 1568 1600 1499 1453 1343 1349 1377 1373 1370 1363 1264 1075 856 791 757 709 573 545 517 609 716 717 614 443 375 500 480
1347 1630 1659 910 950 1188 1135 1156 1444 1684 1816 1795 1663 1694 1649 1724 1702 1481 1407 1359 1330 1337 1432 1481 1524 1417 1206 929 832 789 705 593 511 528 567 618 614 644 558 504 552 549 425
1392 1513 1719 984 969 1186 1011 1136 1402 1746 1865 1877 1885 1949 1827 1794 1602 1419 1311 1369 1391 1425 1482 1472 1343 1295 1060 885 789 704 544 498 534 601 624 539 521 516 591 562 412 288 301
1410 1448 1495 1001 1144 1107 941 1071 1367 1756 1901 1937 2005 1957 1810 1223 1104 1449 1340 1357 1405 1322 1299 1273 1086 1137 930 789 649 527 472 410 526 739 562 522 494 467 464 268 184 152 158
1522 1595 1564 1039 1079 953 1069 1009 1297 1466 1817 1941 2008 1510 1381 1061 1400 1160 1062 879 1199 1158 1085 994 1042 1043 838 674 527 413 330 331 521 587 537 526 394 193 129 49 17 10 14
1744 1919 1793 1227 1114 1132 1117 1026 1148 1343 1518 1744 1680 1333 1319 1223 974 618 563 542 662 753 759 743 999 925 735 583 398 250 234 397 495 429 419 371 51 61 12 2 0 0 0
1907 1904 1732 1715 1485 1187 1180 1167 930 1189 1350 1197 1561 1289 806 681 500 370 361 431 299 335 484 781 962 787 612 406 249 177 236 358 326 276 252 100 8 4 0 0 0 2 3
2190 1933 1477 1751 1836 1646 1432 1167 1127 995 1040 1017 1122 1006 662 439 383 300 227 244 146 189 390 726 699 569 413 241 142 101 69 132 191 211 96 30 9 0 0 0 0 1 0
1986 2160 2059 1711 1814 1826 1942 1677 1221 1256 1126 865 740 635 587 663 535 227 164 136 107 161 293 608 498 370 230 115 82 38 29 148 97 63 63 1 1 0 2 3 1 5 5
1603 2014 2029 1815 1971 1905 1881 1914 1726 1789 1459 1140 943 633 707 698 439 247 130 33 36 148 313 327 265 196 164 244 114 24 105 49 58 25 15 0 4 1 9 6 7 13 9
1341 1641 1803 1771 2014 2073 1614 1562 1528 1541 1322 1107 1005 582 544 657 260 50 55 98 186 36 56 180 167 247 218 186 148 130 59 78 46 37 5 0 1 16 20 14 14 11 8
1260 1572 1441 1591 1772 1833 1476 1321 1212 1005 882 886 895 762 333 375 370 160 41 35 70 7 70 104 273 221 177 185 115 90 36 33 20 26 8 0 1 20 18 15 9 9 10
1290 1567 1377 1508 1582 1301 1116 973 859 700 602 632 661 535 235 186 198 67 40 127 188 139 127 126 205 159 148 107 88 39 18 14 10 15 14 5 10 23 4 8 20 20 12
825 1452 1512 1377 1449 1428 1446 925 682 648 542 466 511 405 82 37 92 108 147 142 84 55 108 93 131 117 118 70 78 31 8 2 3 4 2 4 9 10 15 19 31 19 4
558 1268 1563 1325 1281 1281 1204 1114 914 578 590 380 240 206 16 62 73 157 209 157 68 97 73 89 116 92 91 79 47 24 10 2 2 0 3 10 13 13 21 19 22 16 6
661 1177 1513 1121 1160 1180 1118 765 567 269 323 323 252 169 7 1 10 35 89 139 111 63 84 61 100 78 74 73 32 35 8 0 0 0 5 23 9 11 20 16 13 7 7
851 1158 1460 1075 1118 1208 865 484 418 98 85 76 84 64 25 4 5 1 81 170 71 23 80 47 95 86 71 57 35 31 8 7 2 8 5 24 14 4 19 13 5 6 7
816 1214 1375 1151 1241 965 273 197 212 101 36 2 3 3 2 3 8 23 71 95 33 8 5 21 58 71 85 42 27 20 26 11 6 8 9 24 24 15 24 9 8 7 5
818 1278 1342 1093 1078 557 236 138 89 43 14 3 4 4 4 3 2 17 68 55 12 2 1 6 66 62 46 49 35 22 20 4 19 6 9 18 17 15 17 22 13 6 0
765 1164 1229 963 802 447 221 91 45 5 3 12 10 40 48 25 45 18 36 23 5 2 1 0 50 39 49 27 24 13 10 12 8 10 9 11 18 19 18 11 4 2 1
615 1061 938 781 780 294 194 75 59 23 7 3 16 63 56 33 8 10 23 2 2 2 1 0 9 28 42 41 48 10 10 7 10 20 8 9 9 11 7 16 18 16 7
524 932 677 722 669 193 102 66 9 0 3 15 7 5 7 3 4 2 6 2 1 2 2 1 3 30 22 22 32 32 13 8 18 22 13 3 4 7 7 3 2 2 0
460 902 599 492 469 132 79 76 2 7 9 29 5 3 2 1 1 1 1 1 1 2 2 0 4 31 7 6 7 34 39 50 24 26 19 17 10 8 6 2 2 1 1
417 844 429 198 141 75 104 77 6 15 9 11 3 2 2 2 3 2 0 2 2 2 2 2 4 36 4 30 20 40 8 24 34 43 31 52 37 62 75 57 49 49 49

GFSSE_con_mlcape_087.txt.gz
CAPE
734 937 557 782 905 1064 904 1189 1312 1071 995 886 954 976 1001 1198 1278 1337 1370 1303 1330 1483 1637 1524 1392 1155 1053 967 781 801 853 851 834 905 955 950 892 734 550 527 656 635 640
957 984 460 604 676 940 1103 954 1206 1304 1199 1072 1002 1059 1147 1311 1358 1459 1461 1378 1526 1654 1732 1585 1337 1310 1266 1067 1062 994 956 889 832 852 854 912 822 698 556 559 624 627 634
1231 1267 715 637 779 910 1164 1105 1128 1400 1473 1318 1221 1253 1092 1378 1163 1560 1529 1562 1674 1762 1671 1493 1363 1250 1321 1217 1046 973 931 828 781 760 728 658 752 798 676 549 507 621 648
1089 1493 1346 700 848 1037 1144 1128 1177 1523 1722 1644 1492 1495 1449 1553 1519 1304 1349 1588 1726 1743 1653 1546 1482 1594 1369 1101 990 941 858 699 589 595 612 561 728 779 573 612 676 676 606
439 1181 1713 700 917 1132 1082 1111 1246 1585 1850 1921 1777 1657 1720 1651 1648 1156 1186 1467 1610 1487 1660 1723 1582 1472 1207 1014 942 873 710 537 555 632 638 639 673 735 757 661 412 385 454
716 1037 1372 760 867 1099 1035 1103 1401 1734 2064 2108 1951 1733 1729 1280 1159 1010 1001 1304 1401 1370 1481 1440 1335 1270 1032 936 852 764 619 600 632 554 586 620 607 579 574 470 428 389 366
1065 1207 1595 819 807 1113 1044 1096 1442 1677 2087 2137 2078 1877 1538 1244 1034 981 948 1101 1173 1107 950 828 928 1014 957 845 739 619 599 561 507 677 560 499 582 565 512 396 305 272 246
1277 1639 1921 955 981 1052 1058 1088 1352 1605 2006 2103 1942 1674 1474 1167 1017 904 692 559 534 287 381 519 635 1005 870 733 632 561 496 435 618 626 524 472 349 412 266 104 53 43 20
1550 1859 1974 1593 1318 1000 1058 1066 1231 1496 1734 1920 1515 1483 1217 1019 801 733 524 439 292 228 190 343 508 876 787 538 372 395 420 374 513 476 380 293 171 122 77 17 0 0 2
1960 2092 2166 1997 1797 1655 1481 1162 1100 1410 1554 1645 1434 1207 950 820 732 566 338 261 218 196 267 262 247 421 419 321 270 334 317 244 413 348 202 101 7 10 4 2 3 3 1
2029 2059 2176 1944 1975 1868 1731 1615 1220 1187 1267 1332 1217 865 732 743 701 433 360 241 154 133 165 248 221 231 219 216 267 294 191 367 279 99 207 0 0 1 0 0 0 0 0
1749 2099 2349 2065 2008 2035 1736 2014 1666 1539 1368 1314 1081 1090 816 734 768 601 361 167 94 89 58 78 205 111 160 326 308 139 288 169 80 38 32 4 0 1 1 0 0 0 0
1491 1745 2161 2260 2091 2156 1992 2155 1794 1789 1813 1680 1391 1274 910 804 782 705 390 117 96 38 19 122 135 184 215 341 341 303 181 100 40 36 16 0 0 6 1 7 2 3 7
1177 1479 2059 2230 2072 1952 1725 1645 1585 2148 2120 1720 1472 1300 1001 813 748 590 454 202 95 114 62 86 202 178 228 281 290 195 73 82 82 57 0 0 0 8 10 11 15 11 6
880 1279 1988 1900 1956 1925 1829 1664 1747 1842 1740 1539 1435 1244 1063 718 695 489 182 112 109 195 62 12 22 130 236 208 188 164 49 63 34 49 0 0 6 16 13 12 13 5 12
194 1099 1967 1908 1899 1889 1863 1627 1370 1499 1346 1225 1140 1116 1115 786 577 574 330 141 152 238 78 11 42 112 218 184 141 146 37 40 22 20 7 0 14 12 4 11 16 21 20
0 345 1812 2038 1922 1908 1778 1804 1314 1410 1010 931 783 1070 893 728 536 351 236 234 208 229 187 42 48 81 146 134 119 69 33 35 14 5 13 14 13 2 3 22 26 20 7
0 0 1375 2018 1857 1903 1773 1665 1526 971 843 911 937 814 699 516 405 346 305 306 227 155 104 52 62 50 61 150 83 33 44 21 11 5 10 4 6 2 14 28 15 13 8
0 43 1030 2060 1742 1848 1764 1598 1295 957 748 857 847 558 440 396 402 356 311 186 141 109 92 77 60 34 55 72 50 48 29 8 7 4 15 3 1 7 19 19 12 8 7
0 216 1143 2092 1720 1801 1741 1319 913 640 544 409 384 312 433 251 129 59 11 27 86 100 116 86 44 39 78 61 28 31 33 24 17 6 9 9 9 6 16 12 10 7 5
6 656 1337 1995 1653 1819 1461 821 607 399 407 270 185 154 217 224 95 3 9 25 39 67 81 94 55 21 40 57 79 34 33 21 26 14 14 2 15 1 7 18 0 1 0
207 950 1449 1852 1673 1683 1005 933 650 442 290 341 298 134 60 8 2 4 15 53 29 27 43 65 42 26 41 76 31 19 30 10 24 10 11 0 21 13 14 27 11 0 1
242 905 1401 1733 1693 1577 1098 931 582 322 210 171 72 52 344 174 137 39 47 32 8 23 10 8 11 13 31 37 23 2 11 8 22 18 24 5 20 13 12 9 3 3 3
252 770 1248 1572 1538 1455 1146 817 496 252 100 86 63 103 240 156 109 97 79 51 62 8 1 5 6 22 26 45 35 17 0 0 1 26 27 5 5 0 5 11 5 2 4
58 616 1257 1400 1324 1351 1030 736 462 242 81 51 54 50 58 8 2 7 6 16 11 16 1 7 0 25 25 70 45 44 20 23 18 15 0 16 18 26 19 2 1 2 0
19 642 1418 1251 1308 973 985 696 488 239 67 31 76 74 3 4 2 0 1 4 3 2 2 2 1 0 36 41 62 77 64 29 58 39 59 27 20 22 23 14 1 0 1

GFSSE_con_mlcape_090.txt.gz
CAPE
1134 681 861 972 1035 1164 1208 1099 1020 1002 962 870 865 839 841 946 1004 1145 1212 1249 1263 1500 1644 1591 1240 1028 990 1050 772 701 697 828 872 853 897 828 761 595 485 590 585 630 630
1047 555 761 1031 1068 1106 1263 1376 1160 1065 1103 1049 1049 994 1010 1073 1217 1333 1409 1361 1378 1724 1785 1631 1320 1215 1175 948 757 761 761 837 884 884 876 869 786 642 597 622 646 659 672
998 430 586 735 886 1073 1080 1274 1504 1298 1294 1276 1209 1112 1101 1132 1203 1386 1498 1481 1624 1616 1779 1670 1458 1453 1177 924 833 881 838 818 791 771 753 684 843 812 701 499 709 712 672
1119 542 635 640 678 878 1119 1086 1211 1507 1531 1447 1431 1373 1112 1131 1179 1216 1275 1528 1571 1621 1673 1657 1556 1523 1308 1028 996 924 853 788 704 620 751 770 840 792 709 731 730 708 614
1260 1084 935 574 685 784 949 1032 1161 1409 1627 1602 1562 1473 1277 1200 1099 1049 1035 1372 1578 1602 1525 1661 1547 1542 1139 1008 933 874 793 607 577 612 698 724 760 762 892 786 681 563 513
1145 1501 801 509 714 865 940 1012 1185 1558 1819 1832 1734 1663 1539 1309 1061 961 879 1125 1064 1167 1210 1514 1535 1307 1018 902 843 788 596 576 673 530 451 703 630 680 580 564 585 491 440
1287 1647 1155 668 789 916 943 1035 1217 1564 1902 1966 1954 1879 1819 1486 1061 940 927 1000 914 698 554 659 657 830 981 876 805 676 533 575 685 471 583 607 550 680 718 599 490 448 362
1563 2046 1424 885 884 1038 992 1051 1285 1563 1574 1893 1980 1998 1859 1644 1137 983 857 726 510 466 265 293 297 641 877 784 719 555 547 475 446 483 469 468 491 596 599 447 354 274 134
1532 2097 1914 1103 1097 1077 995 1051 1295 1584 1623 1779 1935 2042 1879 1645 1266 931 705 564 478 243 76 79 247 211 473 579 582 454 219 282 354 372 412 377 354 484 377 240 90 44 10
2046 2153 2318 1765 1317 1067 1009 983 1167 1451 1635 1615 1830 1744 1708 1448 1146 836 712 521 396 236 143 86 209 303 375 357 341 261 200 198 465 388 367 205 244 291 155 51 20 6 2
2155 2258 2566 2324 1960 1806 1723 1157 1016 1270 1456 1516 1560 1402 1318 1230 1057 761 596 442 324 208 193 279 221 172 256 259 195 182 183 254 268 190 132 93 62 96 25 7 3 2 4
2270 2286 2576 2192 2375 2157 1617 1645 1323 1326 1311 1430 1405 1168 1218 1165 1055 842 574 328 194 211 179 138 176 99 114 212 146 126 83 121 139 90 25 22 23 9 4 9 3 3 8
2206 2262 2468 2121 1944 1921 1698 1835 1575 1786 1502 1542 1471 1428 1009 1017 1129 906 632 310 94 121 146 92 80 102 149 252 223 131 142 55 37 34 30 16 7 5 8 3 1 4 1
1849 1972 2517 2484 1852 2013 1965 1855 2095 1917 1810 1927 1729 1533 1354 1032 915 940 728 375 118 49 69 61 83 12 45 261 180 176 151 80 44 43 16 9 0 0 5 8 9 6 3
721 1800 2129 2520 2157 2262 2205 1906 1698 1845 2137 1967 1787 1591 1294 1026 909 792 884 517 258 222 118 76 50 20 28 235 242 105 119 105 64 18 7 0 0 0 5 5 15 12 5
0 1137 2108 2400 2369 2171 2252 1849 1764 1804 1784 1808 1855 1544 1382 1108 938 813 723 496 296 281 124 73 55 21 23 87 124 102 149 108 33 6 0 0 0 0 5 16 8 7 10
0 42 2118 2157 2291 1905 2143 1841 1467 1526 1430 1487 1462 1491 1196 1081 843 628 495 373 291 223 96 23 40 15 8 61 80 112 103 69 40 7 0 0 0 11 9 6 6 3 9
0 0 2185 2206 2142 2024 1959 1828 1309 1186 1316 1331 1139 1096 1034 969 779 583 446 346 314 187 131 20 13 2 45 97 55 81 40 15 1 1 0 0 0 0 1 6 10 17 7
0 0 2101 2116 2139 2134 1924 2137 1627 1250 1136 1076 981 922 872 813 768 503 402 297 250 211 114 29 14 15 36 39 44 27 29 10 0 0 4 0 0 0 2 12 8 5 8
0 0 2148 2174 2157 2169 2039 1986 1747 1257 857 915 856 829 740 771 642 429 316 253 222 114 49 43 28 35 23 49 48 23 3 3 0 2 10 4 0 1 2 1 3 8 6
0 0 2275 2111 2046 1999 1922 1724 1382 1018 730 647 452 475 409 612 479 355 259 236 136 84 51 51 31 13 19 64 13 15 21 6 0 0 19 6 0 0 0 0 0 0 0
0 2 2177 2105 1991 1914 1956 1470 1134 888 631 445 199 181 238 473 289 210 148 70 29 40 73 41 11 1 34 14 27 31 18 32 30 14 14 12 13 2 0 0 0 0 0
0 208 1938 2150 1896 1867 1887 1196 993 705 652 520 320 204 122 122 174 144 93 59 31 33 42 56 11 0 3 32 35 6 7 7 10 10 5 3 12 16 0 2 1 0 0
2 396 1568 2172 1777 1880 1498 1259 967 684 495 380 267 190 250 278 110 63 48 75 59 70 46 35 27 10 2 21 27 19 6 0 0 1 8 1 0 5 5 8 7 8 3
13 502 1084 1977 1799 1718 1363 1373 993 703 460 259 290 241 310 302 177 127 125 101 58 23 24 48 29 14 1 7 11 19 5 33 0 0 0 2 0 3 0 0 7 1 0
47 532 1134 1764 1727 1761 1349 1401 952 712 397 267 184 98 105 21 0 0 0 17 47 41 20 22 28 25 2 3 6 16 10 21 25 35 15 2 0 0 0 0 0 5 1

GFSSE_con_mlcape_093.txt.gz
CAPE
616 821 1061 1104 1098 1016 1023 991 873 806 702 593 571 536 512 630 908 1153 1279 1356 1542 1676 1610 1403 1176 1093 928 872 868 845 797 691 661 703 1016 1088 871 857 901 698 656 711 779
702 940 1069 1176 1161 1140 1080 1032 961 946 883 815 780 714 666 696 899 1146 1288 1481 1713 1754 1653 1378 1258 1304 1082 953 848 834 891 857 831 779 756 843 930 933 799 680 688 747 787
638 1050 1081 1093 1192 1310 1252 1127 1066 1107 1083 1066 1024 877 832 848 1023 1131 1274 1439 1753 1823 1794 1538 1491 1046 1081 964 846 796 836 818 795 836 830 786 895 995 784 717 726 718 722
410 843 1043 1033 1060 1223 1349 1322 1187 1228 1260 1248 1171 1078 957 1102 1183 1210 1279 1420 1654 1720 1782 1675 1622 1426 1070 806 778 851 843 805 815 784 752 833 982 981 795 804 748 750 693
198 550 723 714 924 1006 1049 1235 1365 1385 1394 1444 1399 1272 1039 1144 1168 1215 1265 1438 1640 1532 1320 1209 1444 1436 1007 904 852 863 790 729 813 725 657 762 860 928 957 866 755 757 591
289 617 451 538 756 949 1065 1074 1173 1340 1421 1504 1524 1522 1220 1206 1256 1124 1247 1434 1353 924 704 873 1437 1218 1012 958 891 827 693 709 570 655 702 735 802 838 922 766 696 581 491
957 957 414 659 843 939 1011 1080 1222 1426 1523 1599 1679 1640 1529 1346 1221 1094 1152 1053 936 706 598 629 743 883 753 779 773 656 599 605 412 556 526 646 688 785 861 745 607 518 446
1473 1309 626 749 1003 1049 954 1060 1237 1534 1766 1581 1686 1739 1724 1461 1185 1098 1135 823 742 616 647 498 533 426 521 514 503 385 514 533 439 457 494 599 625 771 791 653 554 445 318
1573 1341 993 842 1065 987 921 949 1226 1554 1386 1472 1647 1792 1888 1556 1279 1136 1047 772 632 433 279 179 192 182 190 416 293 333 252 384 378 415 465 516 457 720 705 554 401 238 96
1748 1570 1079 675 925 864 888 995 1202 1372 1126 1533 1643 1858 1977 1773 1448 1124 993 782 587 341 186 145 139 76 3 314 237 173 185 283 260 353 308 396 443 576 538 442 222 57 11
1960 1805 1664 881 772 734 813 944 1151 1317 1354 1416 1561 1736 1716 1588 1404 1136 884 771 541 330 136 94 188 90 98 286 260 135 159 261 294 296 246 302 425 472 333 104 19 8 3
1821 2192 2056 1783 1217 1035 1078 882 968 1261 1220 1342 1410 1357 1241 1296 1162 983 820 691 580 401 171 132 259 231 234 286 226 113 102 174 210 165 187 164 291 312 168 8 5 6 4
1884 2355 2277 2259 2046 1682 1542 1151 884 927 1025 1145 1120 927 941 1174 1008 849 693 632 467 347 255 313 101 75 132 124 180 101 89 101 117 62 96 146 190 122 20 9 11 15 12
2050 2277 2323 2160 2164 1956 1408 1315 1061 1096 965 880 977 1080 721 1060 937 829 641 421 373 386 193 109 79 16 22 133 187 135 81 83 77 61 42 26 13 1 6 7 18 15 12
940 2148 2352 2097 1834 1798 1764 1641 1327 1530 1314 1283 1208 1412 1039 1020 956 958 572 373 226 276 157 92 53 33 22 62 112 122 77 61 17 15 16 18 2 0 3 9 6 5 11
0 1894 2372 2234 1975 1651 1623 1671 1750 1818 1601 1638 1617 1450 1265 1011 918 949 711 437 266 136 86 40 52 22 1 79 16 58 60 60 12 0 1 4 0 0 1 12 10 3 7
0 37 2310 2323 2169 1932 1666 1796 1689 1792 1756 1639 1641 1473 1288 1115 957 883 676 412 335 197 108 30 21 9 4 14 18 30 51 28 4 5 8 2 0 0 0 8 8 6 8
0 0 1714 2387 2216 2087 1658 1770 1483 1367 1394 1336 1386 1375 1195 1201 1034 882 639 398 379 222 93 25 14 10 0 7 10 34 46 24 1 2 0 0 0 0 2 8 8 10 14
0 0 896 2271 2124 2004 1796 1643 1441 1237 1130 1063 1030 1053 1139 940 964 804 564 425 387 228 34 10 6 5 3 13 26 45 34 11 0 0 0 0 0 0 0 5 5 9 14
0 0 217 1912 2042 1947 1786 1534 1385 1072 880 1020 942 791 935 833 860 658 479 378 307 178 63 4 0 0 0 36 37 60 23 0 4 0 0 0 0 0 0 4 15 10 1
0 0 64 1679 1902 1909 1708 1563 1334 1234 967 803 809 722 604 649 706 544 395 277 252 147 58 3 3 2 7 26 21 2 12 0 0 0 0 0 0 0 0 0 7 0 0
0 0 389 1688 2008 1976 1694 1601 1346 1060 663 550 699 573 586 640 580 458 337 274 193 87 67 22 17 11 10 19 24 14 0 0 0 0 0 0 0 0 0 0 0 0 0
0 0 834 1845 2072 1876 1674 1153 834 627 463 392 386 369 325 364 424 317 288 255 229 161 66 35 20 5 8 15 8 0 2 0 2 4 0 8 0 0 0 0 0 0 0
0 47 1171 1860 1923 1699 1522 1378 1135 893 646 384 280 221 211 236 233 215 184 112 106 87 73 62 32 2 3 7 15 22 0 0 0 0 10 11 5 10 0 0 0 0 0
0 919 1745 1821 1793 1656 1378 1169 997 783 429 355 304 236 169 128 146 156 147 112 107 61 60 113 58 1 0 1 0 15 2 0 2 0 0 0 5 2 2 0 0 0 0
3 1525 1920 1727 1726 1631 1269 1103 922 701 431 351 297 207 188 217 178 135 129 69 30 9 38 89 86 18 1 0 3 2 2 0 0 0 0 0 0 0 0 0 0 0 0

GFSSE_con_mlcape_096.txt.gz
CAPE
813 1046 1166 1096 1121 1057 898 741 662 493 421 372 504 640 906 1003 1086 1156 1275 1315 1158 1341 1619 1507 1012 1081 1198 1179 1006 847 802 781 781 686 1179 1088 1123 1093 992 927 905 957 953
673 1170 1274 1200 1219 1184 1057 903 827 730 618 523 512 535 815 1016 1152 1240 1321 1411 1519 1614 1578 1338 1038 1127 1174 943 859 841 765 663 797 878 1007 1138 1175 1131 948 850 907 941 917
656 1100 1368 1313 1268 1277 1199 1086 1024 976 856 712 673 678 847 1018 1119 1291 1473 1689 1732 1759 1595 1370 1165 1034 1037 908 864 818 824 827 861 1049 1157 1162 1155 1143 984 921 922 913 895
707 1075 1318 1382 1342 1338 1284 1229 1208 1179 1121 968 822 867 1004 1077 1144 1218 1454 1687 1707 1775 1648 1242 1199 1010 972 868 912 867 920 960 930 940 906 904 1154 1140 1023 925 902 932 884
743 966 1216 1388 1446 1470 1324 1257 1312 1352 1255 1141 986 979 1082 1125 1185 1214 1401 1650 1872 1606 1590 1153 1057 932 827 741 789 907 957 863 809 753 728 843 1080 1166 1044 997 881 758 711
573 857 1093 1208 1430 1514 1507 1370 1380 1412 1379 1325 1257 1138 1166 1225 1267 1244 1362 1383 1564 1159 925 1098 904 834 739 743 813 876 935 812 687 666 684 901 916 1099 1085 892 718 628 712
287 489 810 1020 1204 1249 1365 1360 1420 1430 1427 1425 1474 1381 1292 1299 1331 1392 1369 1344 1200 971 798 1011 1102 824 729 703 718 721 630 696 625 641 720 746 831 974 981 826 691 708 641
148 341 456 824 944 1164 1245 1149 1252 1389 1442 1556 1620 1565 1505 1360 1353 1352 1298 1199 1048 837 802 906 971 836 712 650 597 544 517 478 576 485 611 699 812 911 916 767 648 614 539
485 328 447 731 1002 1138 1105 1155 1245 1411 1542 1496 1500 1583 1666 1493 1308 1266 1212 1085 877 704 655 834 837 718 590 569 433 338 387 443 409 396 490 621 726 823 798 720 631 490 375
1189 873 420 526 799 974 1025 1158 1269 1505 1455 1379 1457 1485 1751 1599 1347 1260 1198 981 766 701 576 553 395 369 411 425 297 214 328 363 300 266 386 463 633 803 774 722 557 363 148
1364 1212 938 420 616 724 906 1155 1370 1390 1252 1286 1409 1599 1820 1631 1521 1266 1155 926 713 567 464 389 360 196 251 446 244 174 280 271 257 238 340 463 536 659 711 563 339 136 65
1424 1395 1096 547 443 694 872 1081 1318 1386 1274 1374 1456 1703 1736 1616 1441 1171 1065 905 575 409 344 294 295 160 213 430 242 189 204 248 197 179 321 462 512 564 567 314 145 29 25
1437 1617 1555 1047 496 481 777 823 1054 1243 1159 1292 1340 1533 1466 1378 1269 1079 923 834 511 423 339 336 413 306 335 432 250 173 186 256 200 190 278 303 470 629 447 250 99 49 15
1668 1628 1864 1755 1181 606 682 697 787 950 931 1083 1294 1241 1117 1158 989 888 792 644 557 493 327 320 370 404 357 279 185 87 131 229 172 137 171 234 476 427 335 212 114 55 16
1603 2043 2037 2131 1801 1370 1099 921 837 797 871 919 944 942 885 1019 859 716 671 531 445 460 325 291 252 100 133 42 108 49 68 149 135 95 104 165 253 223 175 112 100 70 27
1634 2122 2198 2262 2192 1897 1466 1267 951 968 857 812 863 926 805 838 794 699 610 538 468 403 278 275 105 24 13 16 20 68 45 54 93 57 63 82 60 27 8 14 27 26 26
0 1324 2252 2277 2311 2091 1716 1337 1268 1193 1218 1086 1013 1076 963 892 803 755 639 591 508 353 240 80 69 28 14 51 20 27 41 31 28 36 17 0 9 0 0 5 16 23 18
0 0 1222 2131 2077 2043 1850 1534 1439 1426 1550 1364 1340 1176 1147 1015 913 812 736 653 496 367 239 112 57 43 8 2 18 19 25 20 19 26 7 0 0 0 0 1 13 11 11
0 0 153 1376 1881 2067 1732 1437 1432 1486 1617 1489 1410 1329 1169 1051 910 808 721 640 541 380 246 117 54 29 9 3 6 16 27 28 3 12 4 0 0 0 0 1 8 6 9
0 0 0 601 1360 2057 1686 1315 1354 1495 1484 1329 1243 1257 1136 1007 992 856 685 577 441 271 154 106 75 4 3 0 0 23 26 19 0 0 0 0 0 0 0 0 0 7 11
0 0 0 453 1339 1849 1683 1324 1083 1338 1191 1027 845 712 859 891 764 730 661 498 386 309 164 55 18 0 0 3 14 45 5 0 0 0 0 0 0 0 0 0 0 1 8
0 0 0 266 1121 1617 1707 1594 1200 1089 932 754 642 741 579 656 466 648 542 438 364 318 159 65 29 2 8 5 3 0 0 1 0 0 0 0 0 0 0 0 0 0 0
0 0 0 159 789 1533 1818 1507 1025 483 492 651 682 582 441 381 346 432 423 356 273 216 135 79 21 12 14 7 2 0 0 1 1 0 0 0 0 0 0 0 0 0 0
0 0 0 392 945 1572 1710 1426 941 1048 973 697 469 313 308 339 388 368 344 287 230 148 97 60 35 20 20 20 17 0 0 0 0 1 0 0 0 0 0 0 0 0 0
4 4 57 782 1327 1672 1444 1362 1153 1061 695 301 198 252 191 213 245 238 291 212 168 102 68 56 25 7 23 20 9 1 0 0 0 0 0 0 0 0 0 0 0 0 0
1 165 1138 1247 1579 1508 1302 1134 1206 843 515 394 266 195 113 91 89 168 141 144 112 73 60 86 45 9 8 20 9 5 0 0 0 0 0 4 0 0 0 0 0 0 0

GFSSE_con_mlcape_099.txt.gz
CAPE
560 914 1043 1214 1228 899 669 474 367 427 557 636 682 1076 1214 1319 1112 1104 1236 1145 1172 1392 1595 1296 1206 1143 1310 1045 910 974 966 940 916 873 935 1272 1322 1246 1174 1064 1124 1079 975
694 1027 1146 1339 1285 1035 816 619 481 482 595 699 775 931 1197 1440 1342 1498 1329 1325 1410 1728 1597 1257 1231 1379 1388 1013 799 818 906 914 907 945 1096 1247 1164 1204 1175 1064 1084 966 942
805 1132 1258 1381 1348 1193 1008 875 698 633 652 683 793 1031 1073 1240 1352 1399 1381 1418 1756 1817 1578 1359 1320 1203 1057 824 853 810 882 965 1068 1133 1270 1145 1014 1083 1178 1067 1064 961 962
938 1202 1280 1414 1416 1301 1167 1126 985 865 743 710 794 988 1092 1263 1278 1368 1441 1535 1728 1641 1567 1432 1414 1109 838 797 850 918 960 1093 1137 1279 1146 1078 993 1112 1150 1077 1077 1088 1021
1144 1322 1370 1394 1437 1422 1352 1292 1207 1133 901 792 817 953 1073 1260 1379 1562 1516 1654 1675 1677 1650 1464 1079 919 865 884 925 1000 969 1016 1041 1038 1006 1008 801 1100 1089 1102 998 1033 940
1115 1333 1448 1376 1398 1439 1454 1427 1380 1267 1107 929 920 986 1144 1295 1366 1524 1504 1739 1744 1648 1559 1418 1011 698 665 789 946 930 909 886 880 799 914 908 764 1183 1104 1046 910 885 833
1019 1188 1288 1363 1399 1447 1507 1507 1492 1367 1297 1179 1104 1102 1180 1292 1349 1417 1446 1498 1601 1562 1297 1407 947 664 684 821 932 818 743 731 637 679 792 667 762 1017 1005 821 795 782 751
516 904 1097 1400 1460 1530 1573 1518 1521 1449 1445 1418 1309 1208 1211 1270 1347 1327 1481 1529 1279 1080 1147 1116 894 768 772 846 907 704 695 681 603 620 666 584 757 1020 1027 917 778 698 600
551 634 786 943 1145 1283 1439 1487 1516 1483 1482 1477 1456 1412 1310 1299 1376 1298 1391 1342 1105 940 1123 1046 910 794 746 798 746 567 616 683 505 450 539 518 823 1064 982 868 745 640 561
412 460 500 749 871 957 1145 1209 1276 1421 1490 1532 1557 1534 1533 1401 1376 1294 1346 1282 1049 897 950 1002 970 788 779 768 614 554 497 568 426 432 372 478 849 919 1016 831 711 615 462
310 311 476 628 784 748 869 1180 1291 1438 1559 1412 1507 1463 1578 1513 1358 1302 1246 1114 930 744 693 897 912 818 811 728 504 498 469 429 361 344 330 447 608 923 804 777 619 421 268
439 295 440 568 644 716 889 1030 1266 1549 1455 1157 1234 1311 1610 1551 1344 1193 1183 1033 815 707 682 750 681 641 708 539 480 435 300 308 313 289 304 443 494 838 714 655 410 222 124
1123 1088 804 557 591 611 760 973 1151 1408 1297 1084 1232 1326 1604 1523 1405 1141 1084 953 693 570 496 407 453 319 284 575 471 366 372 332 280 280 349 415 427 755 609 489 317 166 110
1401 1265 1259 912 573 474 556 663 967 1110 1094 1198 1097 1259 1559 1440 1286 1076 964 835 558 419 323 274 247 316 243 604 380 251 275 238 210 257 386 395 428 581 635 410 273 195 87
1688 1668 1479 1150 687 464 422 508 658 823 891 1079 1090 1201 1419 1331 1115 994 827 671 590 410 217 208 179 221 223 485 285 172 165 110 117 192 296 305 261 403 586 454 345 235 103
1095 1863 1954 1703 1269 838 566 361 361 686 898 894 926 1018 1165 1136 1008 915 713 588 489 382 245 215 157 258 307 240 193 52 53 59 67 130 188 217 180 325 453 398 408 307 156
0 407 1946 2090 1885 1579 1109 524 366 519 602 668 780 928 909 933 903 805 664 521 397 300 263 197 113 124 105 81 17 53 55 43 57 49 87 140 185 166 206 122 164 196 124
0 0 793 2137 2199 2087 1703 1258 880 705 727 616 685 785 738 741 783 688 634 510 306 275 262 221 124 50 24 13 1 22 50 57 54 53 39 66 82 45 0 5 25 32 30
0 0 0 1188 2076 2274 2104 1683 1386 1032 895 794 742 715 768 745 710 679 578 454 342 340 327 274 133 81 32 15 26 10 25 38 38 35 34 21 18 0 0 0 6 12 16
0 0 0 318 1391 2133 2221 1771 1492 1272 1275 1103 1043 950 876 908 818 734 573 489 433 459 326 275 202 78 42 24 6 9 15 25 16 30 17 5 2 0 0 0 2 7 6
0 0 0 55 794 1761 1913 1800 1602 1504 1416 1235 1300 1162 1138 1054 869 731 566 513 486 456 277 250 135 77 12 2 6 8 3 15 13 21 16 1 0 0 0 0 0 1 3
0 0 0 0 685 1351 1676 1647 1616 1467 1288 1138 1069 1093 1176 1029 902 737 559 502 406 323 149 123 75 26 4 1 5 4 0 1 1 6 2 1 0 0 0 0 0 0 0
0 0 0 0 406 1115 1581 1623 1217 858 639 827 889 925 1022 898 836 748 416 407 374 304 184 61 75 36 14 1 0 3 1 0 1 0 1 1 0 0 0 0 0 0 0
0 0 0 0 461 1123 1703 1497 1184 1063 1019 904 883 826 544 532 543 400 341 260 320 240 149 92 33 12 1 2 4 7 0 0 0 0 1 0 0 0 0 0 0 0 0
0 0 1 8 456 948 1597 1550 1221 1216 973 685 646 455 565 383 366 182 190 224 211 178 128 66 21 4 1 0 5 4 4 0 0 0 0 1 0 0 0 0 0 0 0
0 0 2 248 638 1359 1627 1582 1291 1105 831 563 449 482 339 253 248 225 203 213 230 136 76 63 40 3 1 2 12 16 15 1 0 0 0 0 0 0 0 0 0 0 0

GFSSE_con_mlcape_102.txt.gz
CAPE
272 851 1011 1124 1104 826 577 538 614 762 955 1136 1272 1240 1138 1002 886 773 828 969 1322 1688 1729 1617 1347 1312 1344 1201 995 872 937 1061 1001 899 1228 1417 1358 1193 1021 1080 1030 1006 1069
477 970 1060 1192 1131 876 705 620 632 701 814 951 1123 1336 1257 1108 889 792 900 1046 1373 1704 1734 1477 1353 1421 1166 971 927 966 993 1023 1037 1146 1322 1182 1272 1302 1278 1159 1000 1018 964
592 1059 1125 1193 1276 1035 812 671 713 762 766 875 1023 1188 1354 1179 1016 1182 1112 1269 1639 1510 1534 1456 1449 1510 1141 840 848 968 936 1018 1210 1210 1413 1150 1240 1229 1178 1023 1064 917 933
827 1139 1183 1378 1485 1278 964 827 827 922 871 848 1027 1267 1432 1383 1533 1353 1318 1533 1739 1629 1517 1553 1506 1336 966 851 825 919 979 1081 1170 1359 1129 1025 1047 1186 1181 993 956 1061 1088
1073 1183 1296 1529 1570 1392 1170 1041 1016 1034 942 922 960 1149 1423 1546 1562 1458 1529 1787 1738 1703 1595 1661 1576 1125 868 883 884 899 1000 1101 1165 1134 967 833 953 1182 1224 1159 1093 1084 1055
1171 1243 1385 1566 1630 1462 1346 1245 1138 1022 936 935 1032 1105 1193 1360 1498 1491 1527 1612 1640 1690 1729 1776 1473 877 833 905 924 911 966 1035 1059 1062 988 893 954 1144 1181 1031 1029 994 986
1237 1308 1438 1604 1673 1597 1505 1455 1359 1136 990 963 1067 1158 1212 1307 1447 1552 1606 1668 1535 1668 1776 1623 1001 770 851 910 918 913 906 884 950 988 954 769 812 1123 1152 1094 978 970 920
1088 1287 1433 1611 1621 1614 1576 1504 1485 1365 1166 1063 1105 1184 1260 1327 1430 1557 1651 1784 1596 1461 1752 1403 827 716 739 898 900 867 778 827 831 841 833 703 869 1034 1092 995 779 790 752
1126 1328 1491 1607 1649 1563 1509 1509 1531 1506 1401 1233 1133 1147 1244 1302 1305 1447 1551 1590 1374 1291 1238 1168 778 664 782 976 842 713 696 726 648 736 710 678 738 975 1064 978 760 701 655
1063 1275 1394 1499 1643 1580 1511 1472 1500 1558 1524 1464 1343 1214 1212 1286 1319 1353 1382 1409 1208 994 1068 959 812 724 887 977 841 717 726 667 608 635 603 555 546 874 1091 966 805 718 646
894 1072 1208 1274 1401 1429 1445 1562 1592 1592 1578 1532 1522 1461 1356 1315 1361 1309 1286 1276 1096 904 972 973 895 811 831 931 826 648 724 661 555 520 493 448 388 941 896 913 727 653 526
405 649 906 888 965 1034 1199 1306 1454 1599 1616 1576 1568 1551 1509 1375 1291 1288 1242 1226 1047 850 888 891 775 774 829 774 704 664 579 632 560 504 443 411 464 735 954 803 712 499 356
499 389 463 506 661 822 1055 1133 1142 1413 1423 1428 1381 1406 1414 1472 1355 1227 1152 1160 959 784 670 733 689 633 683 675 595 579 605 582 511 485 397 492 445 720 714 595 569 414 248
1171 725 507 678 550 782 963 1060 1145 1333 1352 1264 1266 1169 1187 1479 1372 1161 1083 978 781 630 507 482 560 460 506 551 505 436 531 432 315 338 409 506 511 698 762 731 459 345 202
1040 1494 1414 889 794 852 888 918 961 1238 1338 1313 996 1087 1182 1463 1414 1174 1029 945 695 492 360 273 200 249 226 309 366 329 417 318 204 160 271 440 454 437 821 705 465 375 227
0 88 1650 1553 1190 899 851 809 830 1008 916 957 1061 1065 1211 1463 1388 1152 1058 905 701 466 255 186 179 145 220 237 253 306 166 158 75 85 84 195 231 294 460 500 521 440 301
0 0 31 1441 1515 1192 889 689 563 611 701 683 823 1102 1204 1348 1270 1074 983 779 632 389 265 74 103 96 105 225 243 169 121 57 46 32 25 48 102 147 213 256 335 322 235
0 0 0 193 1146 1510 1187 813 576 506 484 655 855 1006 973 1085 1145 1009 893 717 419 337 298 113 116 135 98 170 103 91 35 14 7 31 31 48 60 114 148 246 262 138 86
0 0 0 2 518 1232 1542 1256 809 608 503 505 610 631 743 965 1019 973 910 634 338 346 270 171 150 153 77 69 20 41 24 21 20 22 43 46 30 46 64 78 86 87 58
0 0 0 0 81 1036 1776 1564 1167 938 735 656 625 659 644 799 803 788 755 575 348 292 227 195 210 146 93 14 10 23 17 18 33 33 32 28 20 18 13 16 8 4 12
0 0 0 0 0 775 1666 1695 1585 1461 1307 1105 838 659 561 664 678 712 599 467 335 337 246 272 188 205 118 17 1 7 4 6 5 14 26 13 7 7 0 1 0 0 7
0 0 0 0 0 551 1420 1778 1727 1544 1488 1341 1044 804 575 675 679 744 604 535 440 472 335 311 180 166 107 23 8 4 1 1 10 20 11 20 8 2 1 0 0 0 0
0 0 0 0 0 430 1160 1843 1480 1521 1338 1235 1141 1053 961 950 869 876 673 540 470 363 278 185 140 91 96 4 1 2 0 4 0 0 4 13 3 1 1 0 0 0 0
0 0 0 0 0 488 1283 1558 1415 1406 1060 941 1081 1202 1095 1031 971 949 748 626 540 271 246 159 117 60 20 20 1 0 0 0 0 0 1 0 1 1 1 0 0 0 0
0 0 0 0 0 0 1420 1369 1187 1137 1211 947 982 981 826 739 868 933 690 574 335 198 195 130 57 37 36 28 1 0 0 0 0 0 0 1 1 1 1 0 0 0 0
0 0 0 0 0 0 1502 1531 1300 931 1088 1028 940 956 740 715 835 646 515 351 190 173 124 74 56 9 4 0 0 1 0 0 0 0 0 1 0 0 0 0 0 0 0

GFSSE_con_mlcape_105.txt.gz
CAPE
484 1086 1038 1109 985 659 819 1046 1246 1263 1246 1300 1206 992 850 852 873 864 1093 1325 1259 1667 1620 1609 1308 1342 1337 1378 1150 987 758 1039 1055 1043 1041 1449 1393 1109 1107 1100 1068 1146 1128
663 1208 1013 1200 1053 763 856 973 1200 1364 1412 1515 1420 1235 1106 992 907 871 1133 1265 1571 1619 1620 1436 1329 1343 1348 1086 911 858 986 1135 961 868 1200 1426 1271 1254 1234 1080 1097 1114 1129
809 1238 1148 1301 1129 952 809 925 1086 1343 1539 1568 1565 1417 1293 1147 937 951 1190 1393 1661 1699 1713 1494 1389 1412 1178 942 956 1006 1018 1098 1023 1097 1378 956 1054 1303 1263 1005 1110 1018 1126
1003 1366 1457 1383 1207 1040 915 904 1021 1251 1406 1594 1674 1582 1405 1223 983 1074 1255 1488 1742 1764 1588 1535 1558 1540 1023 888 966 958 1059 1171 1233 1256 1248 1251 1152 1321 1123 983 995 953 1009
1197 1424 1562 1441 1259 1105 1010 973 988 1084 1231 1446 1632 1691 1517 1271 1200 1324 1433 1601 1668 1741 1585 1670 1685 1489 1009 847 898 956 1052 1220 1187 1192 1195 1229 1132 1286 1230 965 1014 1003 1042
1279 1461 1485 1436 1314 1167 1056 1055 1065 1001 1031 1303 1604 1790 1667 1523 1701 1514 1579 1734 1877 1800 1672 1805 1604 1166 929 867 862 968 1099 1146 1139 1284 1195 1024 1283 1195 1154 999 1164 1080 1005
1426 1562 1591 1453 1428 1286 1205 1204 1174 1012 942 1068 1434 1732 1844 1926 1836 1680 1793 1846 1956 1827 1857 1885 1469 1000 913 917 911 970 1011 996 1262 1270 1194 1142 1037 1154 1201 1215 1081 964 980
1515 1596 1732 1624 1573 1514 1419 1270 1127 1018 989 1038 1160 1335 1631 1781 1739 1646 1738 1775 1722 1772 1925 1780 1233 896 937 981 995 971 947 1038 1259 1386 1274 1238 1053 1165 1284 1183 864 906 917
1635 1652 1753 1938 1836 1654 1559 1430 1274 1109 1042 1070 1136 1195 1314 1450 1555 1611 1684 1746 1750 1660 1563 1596 988 861 968 960 907 872 906 1005 1381 1440 1309 1206 1038 1088 1173 1032 833 865 842
1371 1651 1625 1715 1836 1976 1901 1568 1488 1314 1175 1159 1138 1228 1359 1392 1513 1656 1656 1860 1767 1534 1515 1397 947 840 877 892 875 826 843 861 1305 1318 1263 1221 971 1049 1129 986 885 826 775
1068 1158 1348 1531 1662 1830 1877 1830 1619 1558 1454 1336 1320 1261 1367 1715 1740 1789 1822 1851 1630 1391 1408 1195 966 831 875 952 850 772 762 1149 1221 1240 1169 795 665 837 954 899 811 703 702
892 1064 1314 1427 1513 1614 1638 1886 1966 1863 1908 1924 1874 1745 1735 1785 1831 1782 1758 1528 1501 1207 1176 1030 986 854 950 1347 1095 775 1165 1223 1162 1132 1170 642 649 635 710 847 712 651 590
610 837 1000 1061 1124 1245 1511 1702 1804 1702 1727 1788 1995 2045 1915 1788 1753 1722 1740 1716 1796 1236 1413 1022 918 1161 1289 1363 1211 1092 1117 1031 1144 1112 914 558 552 401 484 739 691 561 386
1244 522 692 769 803 881 1360 1318 1365 1474 1524 1659 1897 2008 1924 1703 1615 1732 1673 1787 1818 1528 1382 1322 1161 1254 1282 1275 1301 1016 691 816 965 1047 593 306 370 320 370 388 422 445 312
44 1431 789 519 429 633 1094 1121 1217 1179 1277 1664 1821 1885 1964 1639 1604 1621 1655 1583 1487 1382 1255 1064 1014 938 1029 1079 1076 1023 740 733 564 452 335 157 156 259 261 468 66 491 334
0 0 1108 722 420 679 655 982 1022 1135 1355 1401 1701 1779 1802 1733 1504 1456 1461 1399 1351 1267 1117 1013 925 852 870 817 801 718 793 617 331 133 75 31 84 103 256 516 343 465 327
0 0 0 0 155 1094 903 886 1047 1126 1275 1258 1272 1224 1098 1157 1264 1344 1370 1270 1085 1037 971 798 662 580 636 518 398 505 701 590 243 71 15 21 34 49 60 279 369 386 324
0 0 0 0 342 1330 1446 1262 1083 1109 1185 1014 877 942 1019 1170 1278 1231 1277 1213 888 746 798 682 441 412 408 405 381 403 573 347 79 22 12 17 29 23 41 197 154 188 214
0 0 0 0 20 330 1096 1505 1328 1101 983 936 843 834 1026 1133 1203 1182 1268 1127 745 633 631 597 446 417 328 229 353 398 527 197 18 1 15 7 30 42 41 35 37 140 154
0 0 0 0 0 16 723 1274 1322 1122 959 802 687 761 876 1041 1123 1214 1251 1008 712 540 524 448 401 304 240 243 173 169 210 126 49 21 3 4 15 34 23 18 76 145 68
0 0 0 0 0 0 467 821 964 948 1136 866 847 1024 1049 1009 1057 1170 1153 940 715 642 430 403 322 228 170 143 137 118 35 57 39 34 30 20 37 22 19 24 58 110 74
0 0 0 0 0 0 5 857 1056 1024 1164 1193 1035 944 956 861 887 1024 1039 796 601 514 370 355 285 246 166 97 69 23 12 5 6 15 35 48 53 30 7 15 27 36 42
0 0 0 0 0 0 0 794 1404 1228 1217 1163 1113 1098 1009 1025 878 930 901 649 493 435 421 448 319 304 172 73 46 29 2 0 0 3 2 15 29 25 11 1 14 19 2
0 0 0 0 1 0 0 322 1207 1051 1036 1245 1472 1348 1240 1070 892 874 787 613 520 571 566 427 364 284 161 109 44 25 0 1 11 0 2 2 21 10 4 3 0 8 0
0 0 0 1 1 0 1 0 1206 1336 1238 1442 1720 1630 1390 1106 966 817 741 705 731 656 519 381 234 195 148 97 64 18 2 0 0 0 0 0 0 2 3 1 1 1 4
0 0 0 1 2 2 1 3 531 1274 1379 1469 1527 1519 1309 1053 1031 891 743 732 641 661 511 371 166 170 119 84 64 47 8 0 0 0 0 1 2 0 1 1 1 0 2

GFSSE_con_mlcape_108.txt.gz
CAPE
839 1804 1218 1048 851 952 1041 1257 1406 1552 1266 976 852 836 863 940 1018 1106 1231 1371 1332 1380 1517 1579 1682 1565 1326 1100 1028 946 715 1071 1099 1127 1201 1421 1291 1066 1006 886 895 1031 1062
917 1988 1245 1152 931 999 1101 1386 1533 1632 1503 1197 1017 1026 1073 1140 1116 1236 1374 1456 1564 1790 1896 1716 1595 1669 1556 1622 1310 1148 896 1140 1042 1168 1471 1502 1329 1191 965 899 1050 1050 1179
1275 1928 1455 1196 959 950 1162 1415 1595 1701 1574 1521 1367 1181 1247 1305 1311 1381 1502 1417 1950 1850 1809 1542 1607 1662 1619 1395 985 988 1035 1027 950 1303 1430 1253 1271 1485 986 990 1144 959 1099
1485 1764 1723 1185 945 865 1058 1343 1590 1687 1747 1779 1660 1476 1446 1429 1440 1472 1487 1629 2024 2021 1864 1612 1757 1696 1316 1013 990 1028 1177 1098 1038 1207 996 722 994 1360 1204 1168 947 1029 1020
1523 1632 1930 1242 980 794 887 1217 1513 1755 1846 1875 1780 1693 1618 1554 1526 1518 1513 1908 2085 2076 1901 1766 1936 1632 1043 979 1041 1062 1178 1163 1150 981 1164 1001 1147 1351 1380 1035 769 953 862
1556 1768 1922 1368 1051 795 802 982 1290 1543 1678 1865 1897 1864 1752 1675 1607 1517 1534 1868 2110 1972 1888 1989 2058 1664 1013 911 975 1063 1241 1246 1108 1187 1104 1170 1166 1336 1225 904 925 899 1010
1671 2022 2189 1447 1212 989 882 939 1068 1217 1371 1541 1754 1844 1809 1716 1584 1577 1625 1860 1999 2010 1986 2133 1934 1354 1033 919 986 1085 1166 1201 1159 1086 1064 1141 1250 1241 1301 1092 873 859 941
1890 2244 2388 1700 1401 1250 1129 1024 1000 1054 1211 1435 1681 1827 1839 1731 1791 1716 1768 1895 1917 2034 1952 2120 1756 1203 1064 996 1019 1062 1072 1109 1161 972 987 1136 1336 1155 1376 1201 884 774 1002
2208 2365 2525 2281 1881 1440 1308 1174 1080 981 1041 1293 1548 1778 1928 2030 1982 1855 1911 1996 1991 1894 1785 1762 1674 1136 1080 1079 1028 972 1003 1015 1162 1046 1052 1089 1106 1086 1337 1121 807 893 984
2245 2437 2581 2666 2408 2283 1967 1375 1217 1118 1041 1119 1288 1535 1802 1912 1895 1829 1892 1900 1780 1752 1724 1708 1491 1086 1074 1090 1035 905 957 1079 1255 1007 1209 1042 1060 959 1288 1129 927 976 876
1897 2228 2407 2126 2111 2286 2483 2129 1539 1334 1204 1225 1340 1368 1504 1693 1963 1993 1860 1827 1760 1769 1593 1544 1358 1020 1045 1044 924 850 916 1032 953 1036 1034 847 1026 904 1232 893 913 886 805
1887 1737 1783 1882 2016 1908 2090 2555 2211 2179 1837 1721 1704 1785 1760 1800 2037 1925 1928 1985 1878 1658 1388 1359 1278 1025 970 1224 1077 885 1065 820 800 925 1046 1035 845 889 938 718 821 779 662
1684 1767 1707 1734 1871 1960 1844 2269 2366 2398 2303 2259 2206 2267 2003 2017 2154 2046 2145 2087 1988 1682 1591 1337 1359 1352 1238 1219 1159 1059 1056 1149 952 1015 1117 764 658 604 738 564 597 626 576
1651 1583 1775 1793 1853 1812 1718 2021 2078 2085 2228 2096 2298 2481 2180 2191 2054 2004 1871 2000 1950 1968 1605 1696 1447 1397 1326 1369 1174 1251 1153 919 846 952 816 309 273 368 395 594 509 575 424
0 296 1487 1574 1673 1525 1393 1725 1758 1746 1703 1912 2135 2238 2407 2276 2192 1986 1752 1799 1937 1896 1757 1748 1560 1549 1404 1319 1251 1271 1098 1054 974 1114 888 219 174 187 205 321 349 553 368
0 0 6 1224 1519 1439 1345 1366 1477 1591 1494 1685 1758 1809 2393 2137 2250 2045 1956 2068 1888 1895 1856 1669 1637 1602 1405 1225 1171 1179 1014 1006 884 841 742 280 129 101 111 214 117 213 295
0 0 0 9 1652 1628 1435 1365 1342 1272 1446 1349 1589 1826 2028 2084 1981 1887 1848 1854 1981 1827 1885 1760 1683 1536 1392 1120 1119 1065 898 814 753 794 434 84 25 0 11 32 15 13 317
0 0 0 0 0 122 1287 1628 1665 1514 1452 1397 1387 1533 1932 1921 1871 1824 1730 1639 1745 1954 1975 1749 1657 1471 1389 1219 1063 911 794 793 666 666 251 37 29 71 24 8 23 102 328
0 0 0 0 0 0 309 1103 1540 1875 1789 1657 1589 1493 1484 1633 1498 1445 1465 1562 1458 1449 1739 1697 1440 1424 1172 978 928 860 562 668 623 456 58 14 20 93 133 49 5 75 229
0 0 0 0 0 0 1 539 944 1454 1668 1897 1790 1610 1393 1381 1321 1390 1435 1468 1228 1297 1372 1400 1181 1157 1021 810 588 539 506 529 492 428 158 28 3 69 38 47 11 96 18
0 0 0 0 0 0 0 13 363 1042 1210 1200 1752 1766 1525 1471 1396 1342 1416 1399 1182 1199 1154 1166 1097 952 786 615 301 183 216 357 340 338 164 19 59 70 59 53 48 49 23
0 0 0 0 0 0 0 0 58 509 735 936 1298 1628 1615 1406 1319 1333 1414 1336 1196 1275 963 1017 740 566 593 547 279 118 94 102 191 235 153 60 61 74 90 59 16 44 58
0 0 0 0 0 0 0 0 0 345 744 842 977 1333 1410 1501 1305 1271 1303 1415 1268 1316 972 884 642 560 396 278 349 108 8 27 1 30 98 58 140 104 64 133 40 21 36
0 0 0 0 0 0 0 0 0 12 617 844 990 1025 1200 1429 1585 1391 1372 1507 1401 1210 968 870 667 809 513 320 231 246 0 10 28 21 6 100 143 110 59 129 89 72 30
0 0 0 0 0 0 0 0 2 0 477 982 1013 1134 1335 1256 1403 1587 1449 1475 1365 1047 937 836 725 846 770 625 229 136 137 0 0 10 56 21 6 36 99 60 48 35 72
0 0 0 0 0 0 0 0 3 3 15 1077 1113 1364 1364 1434 1242 1401 1392 1465 1315 1008 804 832 1126 970 610 665 553 404 200 36 0 2 17 17 37 17 8 13 8 6 6

GFSSE_con_mlcape_111.txt.gz
CAPE
759 1697 1006 1022 1050 984 1016 1162 1310 1181 1058 1011 849 876 1061 1045 999 1060 1258 1574 1506 1233 1449 1702 1629 1611 1374 1052 865 826 570 939 976 984 1176 1266 1187 1111 1000 783 937 1118 1101
1026 1888 1065 1053 1033 1017 1040 1161 1334 1448 1206 1144 994 978 1156 1162 1120 1167 1467 1692 1809 1946 1876 1630 1507 1435 1399 1211 1164 1043 629 940 1071 1208 1376 1499 1310 1185 925 899 1184 1124 1119
1097 2361 1346 1090 1058 1067 1129 1277 1458 1661 1522 1331 1183 1064 1207 1286 1308 1379 1459 1466 1544 1840 1991 2018 2052 1975 1695 1819 1480 1219 845 1069 1131 1282 1205 1165 1243 1269 808 1026 1155 1085 1159
1388 2346 1792 1204 1122 1095 1205 1477 1659 1855 1852 1521 1327 1226 1320 1334 1379 1461 1559 1546 1959 2025 2100 1828 1858 1933 1911 1668 1108 1039 985 1056 1080 1116 1294 941 1028 1318 1235 1093 845 1061 1145
1663 2033 2135 1308 1110 1068 1233 1644 1822 2058 1885 1627 1549 1397 1528 1510 1510 1575 1718 1640 2198 2053 1966 1947 2112 2033 1624 1214 1081 1066 1225 1112 1073 1045 1088 646 985 1233 1282 1078 897 881 917
1726 1728 1903 1329 1074 1007 1208 1618 1924 1963 1913 1890 1812 1732 1693 1714 1674 1610 1706 1826 2247 2321 2231 2116 2204 1843 1179 1120 1158 1145 1182 1157 1077 1142 1360 1148 1218 1170 1318 896 928 856 1019
1686 1879 2247 1335 1129 996 1175 1466 1807 1935 2006 2033 2001 1953 1927 1893 1777 1591 1702 2100 2343 2354 2187 2199 2247 1957 1167 1078 1115 1145 1186 1141 1204 1014 641 1204 1435 1105 1324 933 889 777 791
1759 2134 2805 1620 1297 1045 1052 1248 1436 1637 1797 2004 2079 2049 2056 2030 1807 1533 1628 1961 2164 2114 2042 2102 2132 1720 1236 1080 1123 1133 1163 1112 1004 1024 792 793 1283 1103 1272 1057 874 775 895
2148 2337 2701 2252 1669 1197 1000 954 1066 1250 1427 1682 1929 2096 2124 2048 1793 1657 1734 1899 2000 1999 2004 1895 1913 1456 1183 1114 1111 1069 1060 1091 1081 826 791 1137 1100 1075 1386 1093 814 712 735
2696 2675 2855 2700 2250 1972 1550 1061 992 998 1100 1383 1732 1999 2126 1983 1806 1867 1908 1894 2011 2094 2079 1853 1896 1469 1137 1130 1128 1034 1028 1026 1120 1312 752 1181 1119 1020 1402 992 826 719 888
2493 2635 2899 2954 2620 2542 2303 1805 1239 1106 1026 1151 1472 1792 2055 2360 2466 2424 2144 2101 1851 1874 1801 1773 1781 1414 1097 1083 1108 1002 986 1063 796 589 761 909 859 1003 1207 1093 809 811 912
2445 2508 2742 2552 2337 2623 2620 2553 1939 1814 1474 1443 1473 1752 1914 1930 2067 2082 2031 1845 1890 1708 1711 1651 1651 1284 1012 1247 1214 944 1119 899 868 585 744 556 638 984 958 852 643 886 911
1290 2490 2287 2274 2146 2263 2460 2630 2431 2291 2055 2027 1931 1967 1822 1883 2039 2014 2119 2027 2067 1833 1974 1605 1634 1517 1315 1238 1432 1292 1009 951 797 921 998 725 887 876 858 560 377 559 510
393 2070 2475 2313 2528 2469 2409 2434 2262 2147 2338 2133 2101 2353 2206 2050 1932 2025 1480 1969 2140 1987 1833 1859 1599 1616 1494 1478 1581 1382 1190 1130 1284 1124 1089 372 472 627 703 594 453 451 421
0 627 1979 2279 2244 2431 2561 2121 2083 1976 2272 2189 2348 2298 2254 1781 1953 1658 1646 1526 2170 1987 1990 1895 1779 1688 1544 1343 1381 1324 1371 1212 1219 1097 1092 376 258 374 449 432 501 347 323
0 0 0 1107 1957 2095 2089 2033 1882 1912 1799 2015 2108 1990 2403 1969 1951 1844 1732 1542 1378 1842 2082 1920 1797 1717 1637 1505 1386 1423 1329 1156 1056 972 838 815 209 243 356 332 258 70 160
0 0 0 0 225 1558 1826 1804 1743 1436 1659 1628 1784 1834 2284 2157 2296 2251 1977 1690 1435 1410 2195 2084 1933 1846 1782 1554 1369 1401 1207 1205 1042 936 764 758 272 84 105 84 90 30 20
0 0 0 0 0 238 1342 1287 1670 1483 1331 1371 1433 1745 1976 2153 2117 2412 2173 2038 1965 1661 1734 1969 1893 1752 1629 1561 1375 1217 1115 1117 946 869 807 642 405 113 17 7 0 0 1
0 0 0 0 0 0 0 128 1211 1661 1778 1676 1698 1665 1989 2204 2109 2220 2349 2040 2061 1947 1737 1928 1874 1737 1694 1471 1448 1154 1058 972 968 743 587 648 347 123 48 29 5 0 18
0 0 0 0 0 0 0 0 196 739 1221 1742 1929 2023 2064 2017 2236 2207 2159 2088 1967 1871 1924 1873 1872 1763 1675 1258 1176 863 882 1055 823 619 523 422 384 203 63 29 4 0 2
0 0 0 0 0 0 0 0 0 246 582 1133 1611 1964 2391 2201 2094 2155 2065 1827 1844 1663 1729 1762 1735 1409 1467 1456 1302 1032 803 688 549 414 457 439 343 150 43 40 21 11 26
0 0 0 0 0 0 0 0 0 0 42 372 1095 1342 1949 2404 2205 2108 2085 1816 1888 1554 1584 1494 1441 1297 1285 1376 842 638 384 403 345 489 484 405 359 274 69 55 18 22 67
0 0 0 0 0 0 0 0 0 0 0 122 718 796 1371 2109 2328 2200 1816 1938 1917 1568 1355 1467 1299 1185 1139 1103 822 371 144 83 172 287 408 375 349 246 162 127 52 40 39
0 0 0 0 0 0 0 0 0 0 0 0 399 690 1040 1563 2049 2184 2096 1774 2022 1703 1510 1416 1266 1254 1107 607 912 664 445 303 199 172 292 356 370 203 246 133 96 71 41
0 0 0 0 0 0 0 0 0 0 0 0 7 806 1085 1316 1754 1701 1714 1903 1931 1790 1730 1527 1222 1261 1041 805 664 511 616 355 263 198 199 347 134 274 134 180 172 108 121
0 0 0 0 0 0 0 0 1 1 1 1 0 195 1492 1384 1635 1626 1566 1528 1770 1943 1631 1697 1481 1136 1066 969 711 459 356 344 176 243 144 82 113 81 94 122 160 113 85

GFSSE_con_mlcape_114.txt.gz
CAPE
1793 1076 1188 1102 1072 1139 1262 1267 1077 1003 1098 943 788 696 757 895 810 716 782 1091 1380 1702 1829 1875 1838 1405 1022 1103 704 485 219 677 842 898 953 1013 1044 1045 902 807 1157 1003 965
2095 1235 994 1116 1091 1151 1211 1287 1206 1117 1177 1124 928 841 941 904 887 935 1061 1124 1192 1544 1815 1863 1649 1492 1169 931 756 679 387 617 847 1042 1151 1140 1077 988 806 994 1194 889 949
2292 1565 1075 1068 1087 1157 1251 1272 1330 1246 1233 1294 1125 1062 1058 946 951 1109 1479 1692 1856 1996 2007 1599 1515 1510 1489 1296 1266 1046 654 755 876 1068 1173 1184 1146 1124 971 900 1038 776 1004
2454 1771 1425 1134 1085 1097 1194 1314 1449 1490 1479 1446 1392 1212 1208 1112 1095 1134 1384 1624 1737 1979 2093 2189 2241 2209 1919 1889 1435 1187 820 978 910 968 1107 1230 1056 916 1165 1050 685 911 1068
1834 2486 1966 1160 1123 1141 1227 1424 1633 1776 1771 1601 1549 1339 1279 1206 1247 1316 1275 1396 1756 2197 2209 2024 2053 2173 2043 1618 1172 1037 979 1019 901 948 1090 812 939 1085 1217 916 741 830 923
1783 2518 1816 1469 1200 1206 1339 1573 1790 1887 1856 1658 1504 1470 1373 1324 1381 1381 1397 1484 2099 2148 2118 1962 2138 2007 1606 1220 1084 1077 1145 1113 914 933 912 559 930 855 976 805 890 849 1050
1885 2356 2062 1712 1208 1230 1417 1701 1854 1907 1793 1672 1632 1588 1540 1563 1559 1504 1612 1594 2075 2231 2085 2202 2144 1896 1178 1077 1093 1134 1110 1086 1035 940 476 1 891 920 994 932 846 833 977
2337 2687 1981 1556 1209 1233 1391 1621 1814 1856 1858 1883 1860 1843 1751 1727 1663 1529 1590 1709 2089 2182 2213 2091 2080 1936 1369 1052 1055 1059 1047 986 1046 924 20 31 432 974 888 831 819 740 849
2233 3220 2723 1814 1322 1167 1209 1352 1577 1750 1884 1959 1983 1983 1948 1908 1752 1561 1547 1770 1921 2030 2022 1913 1923 1804 1339 1072 1019 993 940 905 829 932 444 316 756 963 1036 843 822 748 806
2755 2635 3241 2479 1678 1314 1120 1111 1226 1392 1539 1743 1916 2004 2006 1977 1882 1638 1553 1706 1791 1862 1810 1854 1838 1652 1272 1085 984 941 892 817 682 671 965 448 726 881 1116 795 840 805 803
2742 2857 2969 2850 2285 1916 1554 1123 1041 1115 1251 1458 1668 1895 1970 2075 1933 1780 1665 1803 1765 1771 1830 1905 1808 1708 1333 1068 1011 921 872 891 896 615 763 557 772 928 1007 869 734 709 654
2604 2701 2908 3129 2690 2526 2161 1763 1177 1137 1144 1328 1593 1759 2123 2276 2356 2184 2138 1879 2005 1761 1757 1697 1728 1665 1315 1180 999 846 895 973 977 841 547 525 530 19 1040 820 640 495 357
53 2687 2794 2574 2341 2447 2669 2387 1625 1711 1381 1445 1535 1828 1779 2134 2384 2207 2181 1912 1861 1830 1636 1576 1610 1616 1430 1217 1339 1209 973 923 1001 980 479 114 372 576 885 736 577 423 309
0 2065 2697 2352 2105 1982 2226 2786 2554 2217 2003 1951 1793 1895 1952 1774 1767 2192 1648 2054 1898 1917 1685 1850 1704 1613 1458 1525 1343 1307 1152 1033 1146 889 652 334 561 793 995 782 488 345 359
0 233 1918 2101 2302 1949 2131 2399 2565 2404 2479 2439 2247 2339 2267 2062 2203 2119 1807 2041 2173 2042 1948 1687 1854 1734 1543 1389 1468 1386 1173 1123 1103 1067 991 572 301 460 820 870 600 387 306
0 0 86 1035 1731 2398 2233 2386 2307 2510 2424 2102 2220 2541 2436 2380 1796 2227 1944 2045 2265 2222 1967 1831 1582 1312 1551 1500 1244 1252 1198 1212 1078 1118 930 559 316 137 369 586 350 246 240
0 0 0 0 0 130 1572 1713 1788 2245 2190 2463 2324 2042 2318 2482 2106 2120 2134 1724 1651 2250 1912 1707 1853 1772 1567 1653 1455 1237 1244 1221 1084 990 852 606 202 84 143 256 263 258 30
0 0 0 0 0 0 0 1350 1960 1811 1903 1797 2197 2239 1852 2463 2019 2476 1996 2099 2185 1617 2138 1855 1657 1533 1614 1728 1496 1498 1411 1204 938 879 865 586 231 67 32 42 67 39 0
0 0 0 0 0 0 0 0 1 1026 1855 1699 1612 2025 2032 1765 2666 2156 2392 1945 1904 2204 1873 2152 1744 1586 1674 1558 1544 1371 1253 973 913 823 709 641 365 148 52 0 2 1 0
0 0 0 0 0 0 0 0 0 0 760 1875 1978 1738 1915 2049 2000 2348 2293 2444 1860 1968 2008 1988 1916 1918 1807 1522 1639 1345 1118 959 790 860 765 641 425 206 112 29 2 4 0
0 0 0 0 0 0 0 0 0 0 0 815 1681 2016 2120 2184 2290 2161 2282 2427 2124 1741 1652 1772 2033 1729 1692 1685 1509 1181 966 977 875 760 547 474 312 228 174 93 4 5 3
0 0 0 0 0 0 0 0 0 0 0 0 0 223 1624 2164 2272 2345 2373 2372 2328 1861 1580 1708 2047 1868 1555 1609 1444 1011 595 715 758 611 523 398 284 221 154 28 2 1 5
0 0 0 0 0 0 0 0 0 0 0 0 0 0 1050 1575 2224 1923 2204 2271 2144 1936 1544 1425 1826 1689 1300 1237 1293 667 239 51 433 441 584 352 338 243 198 61 6 0 1
0 0 0 0 0 0 0 0 0 0 0 0 0 0 9 604 831 1910 1678 2209 2017 2034 1567 1267 1474 1530 1234 965 1184 888 373 253 108 192 412 415 335 303 242 184 61 4 0
0 0 0 0 0 0 0 0 0 0 0 0 0 0 0 0 239 1365 1810 2001 2025 2035 1817 1300 1235 1444 1150 1034 896 934 804 512 494 377 382 374 502 386 280 205 149 46 3
0 0 0 0 0 0 0 0 0 0 0 1 0 0 0 0 4 1015 1528 1691 1859 1756 1731 1580 1434 1438 1166 1210 895 763 780 663 519 318 177 285 234 201 279 296 135 132 80

GFSSE_con_mlcape_117.txt.gz
CAPE
925 1215 1248 1281 1385 1253 1175 1135 1080 1002 930 776 538 419 599 624 622 954 1257 1369 1603 1827 1806 1598 1440 1352 1374 1249 907 491 590 730 737 845 1006 1181 1376 1158 1062 1127 997 1028 1020
1227 1321 1220 1252 1317 1376 1214 1080 1052 1105 1056 902 673 550 685 631 537 663 976 1338 1572 1664 1767 1805 1571 1369 1140 1210 872 607 471 841 942 898 830 1147 1120 1076 1051 1252 1002 969 1066
1484 1333 1280 1171 1201 1349 1376 1197 1118 1139 1173 1032 821 704 707 661 641 667 833 1051 1372 1619 1697 1628 1550 1441 1335 1104 941 757 616 839 1037 1001 1134 1010 1066 1107 1177 1118 976 811 1049
1800 1224 1288 1197 1144 1228 1356 1373 1194 1180 1205 1170 991 850 792 711 746 901 1186 1445 1659 1915 1899 1659 1595 1735 1671 1533 1441 1278 947 993 938 1035 1422 1076 1002 1079 1085 1203 865 918 1165
2137 1347 1171 1193 1165 1220 1323 1417 1344 1319 1302 1356 1232 975 873 842 832 946 1178 1413 1572 1941 2021 2051 2008 1924 1869 1638 1359 1146 1049 1108 1045 1032 901 753 691 1107 1222 1086 875 886 929
2367 1750 1300 1106 1136 1211 1328 1448 1533 1539 1464 1457 1420 1168 1047 1039 1011 925 1013 1261 1612 2198 2123 1854 1786 1837 1753 1352 1156 1075 1159 1124 1076 756 562 511 582 517 1007 900 933 977 907
2366 2047 1637 1065 1080 1193 1336 1573 1646 1687 1616 1559 1557 1355 1121 1168 1135 988 953 1201 1785 2126 2013 1829 1926 1743 1255 1055 1022 1088 1161 1213 1196 626 418 274 327 535 625 769 863 982 900
2147 2066 1778 1599 1143 1205 1356 1588 1731 1775 1734 1569 1528 1506 1247 1253 1266 1149 1094 1291 1683 2072 1934 1861 1839 1750 1286 967 1001 1044 1110 1120 1148 602 285 8 0 600 603 744 846 891 868
2646 2028 1862 1687 1388 1180 1219 1525 1654 1694 1645 1581 1623 1642 1516 1426 1413 1318 1270 1402 1552 1949 2004 1937 1819 1739 1403 1042 968 979 999 1033 901 561 436 41 11 383 803 650 822 758 901
2755 2609 2047 1696 1366 1176 1147 1417 1618 1708 1725 1747 1804 1788 1782 1652 1617 1538 1417 1489 1639 1950 1929 1760 1743 1673 1323 1042 948 942 937 920 801 678 565 373 89 500 710 766 825 765 765
2218 3015 2614 2218 1620 1044 999 1186 1418 1555 1675 1804 1903 1888 1827 1871 1872 1697 1506 1449 1655 1756 1775 1710 1731 1598 1309 1053 940 908 913 853 740 684 505 713 734 785 779 798 811 747 715
2198 2663 2728 2505 2113 1373 1155 968 1035 1205 1315 1517 1695 1785 1770 1784 1760 1726 1508 1407 1479 1548 1646 1730 1714 1535 1354 1076 876 842 775 832 751 766 650 640 710 602 691 769 700 691 572
23 2508 2837 2720 2358 1908 1630 1197 831 963 999 1214 1387 1576 1692 1751 1751 1606 1486 1386 1618 1672 1581 1663 1536 1433 1277 1087 951 971 900 820 700 710 578 493 266 374 272 800 787 634 561
0 1742 2771 2741 2548 2362 2192 1938 1442 913 831 833 1141 1436 1424 1550 1962 1954 1778 1687 1567 1686 1498 1382 1248 1306 1221 1031 913 1043 1197 979 737 738 577 293 1 598 736 869 871 718 517
0 1350 2024 2344 2378 2193 2199 2357 2085 1525 1154 1034 1045 1438 1560 1383 1552 1946 1897 1859 1720 1652 1517 1384 1259 1271 1231 1079 1026 1201 1218 1063 986 884 604 410 405 654 835 1137 880 681 457
0 234 68 1714 2239 2007 1578 1730 1949 2027 1968 1753 1684 1578 1796 1712 1512 1563 1701 1768 1608 1655 1636 1460 1424 1422 1437 1150 1147 1193 1221 1117 1168 924 670 451 283 280 625 1097 952 807 623
0 0 0 0 0 0 546 956 1073 923 1474 1823 1829 2109 2101 1922 2033 1657 1799 1678 1723 1819 1752 1647 1393 1345 1410 1148 1201 1014 982 1064 1065 1004 744 462 315 137 140 630 743 770 699
0 0 0 0 0 0 0 0 41 572 920 1160 1132 1864 2282 2273 1923 2033 1532 1801 1427 1888 1856 1789 1546 1391 1279 1054 1168 1222 1080 1038 1028 958 833 562 358 275 74 259 438 384 193
0 0 0 0 0 0 0 0 0 0 0 199 1119 1587 1658 1826 2190 1947 1839 1825 1754 1568 1791 1856 1573 1405 1295 1032 1246 1280 1101 1089 980 888 773 614 368 185 25 9 86 166 108
0 0 0 0 0 0 0 0 0 0 0 0 43 942 1216 1425 1481 1829 1925 1828 1722 1693 1783 1780 1691 1414 1229 1210 1327 1319 1152 987 942 859 752 609 434 225 40 0 0 0 0
0 0 0 0 0 0 0 0 0 0 0 0 0 0 29 1028 1329 1476 1735 1680 1660 1604 1446 1690 1695 1522 1343 1223 1259 1087 1058 893 787 676 676 644 522 272 139 62 0 0 0
0 0 0 0 0 0 0 0 0 0 0 0 0 0 0 0 43 1141 1406 1572 1607 1471 1024 1308 1512 1511 1465 1435 1037 936 690 744 790 763 679 570 472 374 190 86 3 0 0
0 0 0 0 0 0 0 0 0 0 0 0 0 0 0 0 0 123 1160 1179 1311 1293 1034 902 967 1318 1343 1307 1140 770 411 441 347 558 666 533 371 305 184 107 18 0 0
0 0 0 0 0 0 0 0 0 0 0 0 0 0 0 0 0 0 0 643 1169 1097 869 676 786 1026 1028 817 1048 838 213 114 58 16 258 400 404 318 199 120 53 0 0
0 0 0 0 0 0 0 0 0 0 0 0 0 0 0 0 0 0 0 0 630 1002 879 775 685 1034 921 799 809 1094 732 223 131 76 32 214 365 315 278 184 104 17 0
0 0 0 0 0 0 0 0 0 0 0 0 0 0 0 0 0 0 0 0 0 879 1009 975 888 945 1171 1178 823 687 792 726 461 373 156 237 230 279 318 250 170 88 22

GFSSE_con_mlcape_123.txt.gz
CAPE
1077 1069 1141 1238 1252 1281 1101 729 434 290 387 631 727 990 1380 1500 1467 1555 1715 1671 1796 1900 1992 1951 1706 1631 1363 713 546 677 751 933 849 1013 1126 1381 1401 1366 1101 1073 1203 1093 853
1056 1289 1216 1299 1317 1347 1205 907 658 453 399 524 738 891 1109 1420 1624 1691 1669 1778 1945 2014 2059 1922 1692 1513 1296 841 487 446 696 853 989 1007 1036 1344 1451 1361 1196 1026 1075 1034 1024
1004 1312 1343 1351 1391 1415 1326 1093 871 695 565 547 670 833 998 1169 1370 1487 1612 1784 1965 2076 2025 1799 1620 1621 1377 938 525 377 538 905 1043 796 1093 1145 1166 1195 1189 979 1099 965 957
1044 1306 1405 1385 1362 1363 1295 1226 1131 947 733 615 616 734 931 1038 1180 1385 1580 1757 1882 1864 1820 1712 1625 1573 1207 898 611 561 594 924 940 976 954 812 882 885 800 700 995 1127 935
1147 1297 1370 1390 1353 1270 1233 1235 1266 1204 906 724 658 721 753 917 1023 1192 1365 1583 1748 1790 1846 1793 1671 1453 1185 1058 1009 798 677 903 959 900 753 611 614 701 464 793 988 1189 910
1364 1277 1336 1367 1332 1272 1209 1178 1259 1269 1022 827 709 761 727 777 924 1082 1198 1339 1575 1665 1570 1573 1854 1593 1305 1107 882 725 764 927 744 596 559 540 213 133 528 907 873 965 956
1620 1337 1250 1245 1260 1282 1247 1189 1196 1207 1135 994 836 788 843 890 944 942 1062 1521 1815 1911 2053 1871 1719 1515 1283 976 837 752 828 859 707 451 457 572 347 295 798 941 688 806 958
1786 1584 1284 1240 1280 1331 1397 1298 1188 1183 1176 1189 1042 873 857 913 971 1034 1196 1418 1749 2168 1990 1550 1393 1334 1107 899 802 726 862 921 695 449 289 358 411 416 514 833 690 860 897
1822 1783 1418 1270 1317 1279 1259 1310 1250 1261 1241 1316 1286 1031 928 869 905 940 1030 1164 1642 2133 1859 1583 1368 1151 882 796 774 748 808 907 688 476 150 121 150 370 875 927 845 785 849
1711 1890 1711 1479 1328 1301 1314 1252 1278 1399 1384 1391 1426 1304 1041 896 964 953 889 1040 1420 1873 1846 1695 1501 1266 1036 764 721 700 722 772 643 449 375 168 291 452 1196 1100 982 815 838
1909 1920 1782 1594 1322 1173 1249 1342 1433 1501 1540 1529 1527 1526 1291 1136 1093 1167 1082 999 1267 1698 1789 1762 1625 1373 1137 844 691 674 654 637 557 388 342 419 100 903 1202 1004 1042 869 864
1586 1863 1963 1852 1733 1413 1297 1349 1516 1659 1711 1638 1539 1502 1586 1416 1221 1345 1304 1137 1247 1444 1775 1799 1653 1402 1195 839 658 635 570 529 499 460 286 228 470 407 586 795 956 931 884
1172 2190 2084 2010 1853 1751 1546 1276 1321 1484 1591 1666 1654 1623 1669 1608 1555 1509 1490 1425 1360 1454 1633 1829 1679 1465 1221 872 626 548 497 456 395 426 386 277 436 707 1073 833 885 942 869
0 0 0 1414 2211 1924 1584 1288 1140 1223 1347 1541 1674 1726 1627 1573 1605 1583 1524 1420 1339 1373 1416 1604 1540 1414 1251 994 717 513 509 450 365 358 291 481 505 834 1199 1255 1169 929 941
0 0 27 1150 2413 2125 1791 1436 1032 1073 1117 1156 1352 1617 1563 1539 1607 1509 1477 1373 1296 1256 1251 1341 1436 1286 1206 1046 777 601 491 426 575 428 285 443 574 795 899 1191 1006 1070 1016
0 0 285 1158 1919 2197 1887 1641 1343 960 882 927 1016 1129 1378 1347 1177 1190 1264 1239 1233 1183 1170 1119 1193 1198 1154 1012 845 691 568 529 697 620 386 377 434 360 297 146 946 961 982
0 0 0 0 0 53 80 73 154 546 867 873 913 1177 1020 1070 1202 1087 1116 1183 1215 1310 1174 1090 1103 1157 1150 996 851 730 654 564 684 662 474 393 349 349 238 223 713 920 959
0 0 0 0 0 0 0 0 0 0 0 0 0 0 50 381 1106 1174 1143 1107 1220 1128 1245 1341 1321 1201 1118 1038 905 693 710 629 713 684 529 489 449 412 200 213 567 609 798
0 0 0 0 0 0 0 0 0 0 0 0 0 0 0 0 33 145 175 166 598 758 895 1074 1188 1173 1030 960 925 839 691 639 725 775 597 498 427 337 214 136 73 306 494
0 0 0 0 0 0 0 0 0 0 0 0 0 0 0 0 0 7 0 0 0 91 398 660 926 1000 963 826 685 677 668 684 713 774 701 567 436 323 242 131 69 47 273
0 0 0 0 0 0 0 0 0 0 0 0 0 0 0 0 0 0 0 0 10 60 20 343 614 758 749 486 353 315 251 271 479 682 661 568 445 299 241 154 58 41 88
0 0 0 0 0 0 0 0 0 0 0 0 0 0 0 0 0 0 0 0 1 0 44 49 542 496 531 318 361 195 190 243 276 305 524 557 511 376 211 112 71 31 24
0 0 0 0 0 0 0 0 0 0 0 0 0 0 0 0 0 0 0 0 0 0 0 29 380 190 283 272 312 109 101 166 167 217 341 492 479 400 281 184 113 43 11
0 0 0 0 0 0 0 0 0 0 0 0 0 0 0 0 0 0 0 0 0 0 0 0 0 270 67 16 87 72 60 1 9 8 77 282 328 393 351 218 144 95 41
0 0 0 0 0 0 0 0 0 0 0 0 0 0 0 0 0 0 0 0 0 0 0 0 0 0 263 10 43 46 38 0 36 0 0 29 158 258 228 206 183 135 81
0 0 0 0 0 0 0 0 0 0 0 0 0 0 0 0 0 0 0 0 0 0 0 0 0 0 1 296 164 79 19 12 12 15 0 0 36 100 234 93 94 108 65